Missouri River (Missouri), Waverly (06895500)

StateMissouriLatestUnknown (53300 cfs)
RiverMissouri RiverRatingObservedEstimated
Updated2026-05-05 12:00 (29 minutes ago)Flood - The river is flooding. Obstacles can be treacherous or deadly. The river should be avoided at this stage for casual trips and definitely for the inexperienced. Trips should be attempted only with protective gear and equipment.Flood(none)(none)
Discharge53300 cfs (median: 62300 cfs)High - The river is high and potentially dangerous, especially for the young and / or inexperienced. Normal stream obstacles are sometimes difficult to navigate. Extended distances can be attempted, but canoe travel may not be advisable.High(none)(none)
Height12.53 feetGood - Conditions are ideal for a canoe or kayak. Boats typically will drag on fewer than one-quarter of riffles, if at all, and portages are unnecessary or rare. Normal float lengths can be attempted without a problem.Good(none)(none)
TrendFalling (falling over 24 hours)Low - River is low but can still be floated. Some riffles are okay but most come with significant dragging and might need a portage. Float lengths should be reduced to accommodate low flow, dragging, and portages.Low(none)(none)
USGSExternal icon USGS Site (External icon Duck Duck Go Maps)Poor - River is too low to float comfortably. Most or all riffles will drag or must be portaged and some obstacles (such as slick shelf rock) cause undue problems. Avoid the river at this stage for casual paddling trips.Poor(none)(none)

Trending Data

Plot Image

Trips for Missouri River (Missouri), Waverly (06895500)

DateStartEndDistanceConditionDischargeHeightFishingDetails

A total of 0 rows are displayed.

Condition Descriptions

Fishing Conditions

Fish Species

Notes

Classic Trip List

The classic River Trips application is still available for use. It is updated with the new system using a data retrofit. It is no longer maintained. The original River Trips application is no longer updated (as of 1 Dec 2016) but can be checked for errors or for the condition of the data before it was converted to the new system.

Gauge Data Table

ObservationHeightDischargeMaximum
Discharge
Minimum
Discharge
Mean
Discharge
P05P10P20P25P50
(Median)
P75P80P90P95
2026-05-05 12:00 12.53 53300 163000 (1999) 37100 (1981) 71400 38400 39900 42400 45400 62300 90000 94000 123000 149000
2026-05-05 11:00 12.56 53400 163000 (1999) 37100 (1981) 71400 38400 39900 42400 45400 62300 90000 94000 123000 149000
2026-05-05 10:00 12.56 53400 163000 (1999) 37100 (1981) 71400 38400 39900 42400 45400 62300 90000 94000 123000 149000
2026-05-05 09:00 12.55 53400 163000 (1999) 37100 (1981) 71400 38400 39900 42400 45400 62300 90000 94000 123000 149000
2026-05-05 08:00 12.50 53100 163000 (1999) 37100 (1981) 71400 38400 39900 42400 45400 62300 90000 94000 123000 149000
2026-05-05 07:00 12.53 53300 163000 (1999) 37100 (1981) 71400 38400 39900 42400 45400 62300 90000 94000 123000 149000
2026-05-05 06:00 12.55 53400 163000 (1999) 37100 (1981) 71400 38400 39900 42400 45400 62300 90000 94000 123000 149000
2026-05-05 05:00 12.50 53100 163000 (1999) 37100 (1981) 71400 38400 39900 42400 45400 62300 90000 94000 123000 149000
2026-05-05 04:00 12.54 53300 163000 (1999) 37100 (1981) 71400 38400 39900 42400 45400 62300 90000 94000 123000 149000
2026-05-05 03:00 12.52 53200 163000 (1999) 37100 (1981) 71400 38400 39900 42400 45400 62300 90000 94000 123000 149000
2026-05-05 02:00 12.57 53500 163000 (1999) 37100 (1981) 71400 38400 39900 42400 45400 62300 90000 94000 123000 149000
2026-05-05 01:00 12.52 53200 163000 (1999) 37100 (1981) 71400 38400 39900 42400 45400 62300 90000 94000 123000 149000
2026-05-05 00:00 12.57 53500 163000 (1999) 37100 (1981) 71400 38400 39900 42400 45400 62300 90000 94000 123000 149000
2026-05-04 23:00 12.56 53400 163000 (1999) 37100 (1981) 71400 38400 39900 42400 45400 62300 90000 94000 123000 149000
2026-05-04 22:00 12.57 53500 168000 (1984) 36200 (1981) 71300 38900 40000 42600 44300 62600 87200 92800 116000 154000
2026-05-04 21:00 12.57 53500 168000 (1984) 36200 (1981) 71300 38900 40000 42600 44300 62600 87200 92800 116000 154000
2026-05-04 20:00 12.57 53500 168000 (1984) 36200 (1981) 71300 38900 40000 42600 44300 62600 87200 92800 116000 154000
2026-05-04 19:00 12.59 53600 168000 (1984) 36200 (1981) 71300 38900 40000 42600 44300 62600 87200 92800 116000 154000
2026-05-04 18:00 12.59 53600 168000 (1984) 36200 (1981) 71300 38900 40000 42600 44300 62600 87200 92800 116000 154000
2026-05-04 17:00 12.59 53600 168000 (1984) 36200 (1981) 71300 38900 40000 42600 44300 62600 87200 92800 116000 154000
2026-05-04 16:00 12.58 53600 168000 (1984) 36200 (1981) 71300 38900 40000 42600 44300 62600 87200 92800 116000 154000
2026-05-04 15:00 12.61 53800 168000 (1984) 36200 (1981) 71300 38900 40000 42600 44300 62600 87200 92800 116000 154000
2026-05-04 14:00 12.63 53900 168000 (1984) 36200 (1981) 71300 38900 40000 42600 44300 62600 87200 92800 116000 154000
2026-05-04 13:00 12.57 53500 168000 (1984) 36200 (1981) 71300 38900 40000 42600 44300 62600 87200 92800 116000 154000
2026-05-04 12:00 12.64 54000 168000 (1984) 36200 (1981) 71300 38900 40000 42600 44300 62600 87200 92800 116000 154000
2026-05-04 11:00 12.57 53500 168000 (1984) 36200 (1981) 71300 38900 40000 42600 44300 62600 87200 92800 116000 154000
2026-05-04 10:00 12.60 53700 168000 (1984) 36200 (1981) 71300 38900 40000 42600 44300 62600 87200 92800 116000 154000
2026-05-04 09:00 12.61 53800 168000 (1984) 36200 (1981) 71300 38900 40000 42600 44300 62600 87200 92800 116000 154000
2026-05-04 08:00 12.64 54000 168000 (1984) 36200 (1981) 71300 38900 40000 42600 44300 62600 87200 92800 116000 154000
2026-05-04 07:00 12.65 54000 168000 (1984) 36200 (1981) 71300 38900 40000 42600 44300 62600 87200 92800 116000 154000
2026-05-04 06:00 12.66 54100 168000 (1984) 36200 (1981) 71300 38900 40000 42600 44300 62600 87200 92800 116000 154000
2026-05-04 05:00 12.67 54200 168000 (1984) 36200 (1981) 71300 38900 40000 42600 44300 62600 87200 92800 116000 154000
2026-05-04 04:00 12.67 54200 168000 (1984) 36200 (1981) 71300 38900 40000 42600 44300 62600 87200 92800 116000 154000
2026-05-04 03:00 12.68 54200 168000 (1984) 36200 (1981) 71300 38900 40000 42600 44300 62600 87200 92800 116000 154000
2026-05-04 02:00 12.69 54300 168000 (1984) 36200 (1981) 71300 38900 40000 42600 44300 62600 87200 92800 116000 154000
2026-05-04 01:00 12.68 54200 168000 (1984) 36200 (1981) 71300 38900 40000 42600 44300 62600 87200 92800 116000 154000
2026-05-04 00:00 12.71 54400 168000 (1984) 36200 (1981) 71300 38900 40000 42600 44300 62600 87200 92800 116000 154000
2026-05-03 23:00 12.73 54600 168000 (1984) 36200 (1981) 71300 38900 40000 42600 44300 62600 87200 92800 116000 154000
2026-05-03 22:00 12.73 54600 191000 (1984) 36800 (1981) 72100 38200 39500 42600 44000 65800 89100 93200 114000 163000
2026-05-03 21:00 12.75 54700 191000 (1984) 36800 (1981) 72100 38200 39500 42600 44000 65800 89100 93200 114000 163000
2026-05-03 20:00 12.76 54800 191000 (1984) 36800 (1981) 72100 38200 39500 42600 44000 65800 89100 93200 114000 163000
2026-05-03 19:00 12.78 54900 191000 (1984) 36800 (1981) 72100 38200 39500 42600 44000 65800 89100 93200 114000 163000
2026-05-03 18:00 12.78 54900 191000 (1984) 36800 (1981) 72100 38200 39500 42600 44000 65800 89100 93200 114000 163000
2026-05-03 17:00 12.82 55200 191000 (1984) 36800 (1981) 72100 38200 39500 42600 44000 65800 89100 93200 114000 163000
2026-05-03 16:00 12.82 55200 191000 (1984) 36800 (1981) 72100 38200 39500 42600 44000 65800 89100 93200 114000 163000
2026-05-03 15:00 12.80 55000 191000 (1984) 36800 (1981) 72100 38200 39500 42600 44000 65800 89100 93200 114000 163000
2026-05-03 14:00 12.82 55200 191000 (1984) 36800 (1981) 72100 38200 39500 42600 44000 65800 89100 93200 114000 163000
2026-05-03 13:00 12.86 55400 191000 (1984) 36800 (1981) 72100 38200 39500 42600 44000 65800 89100 93200 114000 163000
2026-05-03 12:00 12.87 55500 191000 (1984) 36800 (1981) 72100 38200 39500 42600 44000 65800 89100 93200 114000 163000
2026-05-03 11:00 12.89 55600 191000 (1984) 36800 (1981) 72100 38200 39500 42600 44000 65800 89100 93200 114000 163000
2026-05-03 10:00 12.89 55600 191000 (1984) 36800 (1981) 72100 38200 39500 42600 44000 65800 89100 93200 114000 163000
2026-05-03 09:00 12.94 56000 191000 (1984) 36800 (1981) 72100 38200 39500 42600 44000 65800 89100 93200 114000 163000
2026-05-03 08:00 12.98 56200 191000 (1984) 36800 (1981) 72100 38200 39500 42600 44000 65800 89100 93200 114000 163000
2026-05-03 07:00 13.02 56500 191000 (1984) 36800 (1981) 72100 38200 39500 42600 44000 65800 89100 93200 114000 163000
2026-05-03 06:00 13.05 56700 191000 (1984) 36800 (1981) 72100 38200 39500 42600 44000 65800 89100 93200 114000 163000
2026-05-03 05:00 13.08 56900 191000 (1984) 36800 (1981) 72100 38200 39500 42600 44000 65800 89100 93200 114000 163000
2026-05-03 04:00 13.11 57100 191000 (1984) 36800 (1981) 72100 38200 39500 42600 44000 65800 89100 93200 114000 163000
2026-05-03 03:00 13.13 57200 191000 (1984) 36800 (1981) 72100 38200 39500 42600 44000 65800 89100 93200 114000 163000
2026-05-03 02:00 13.12 57200 191000 (1984) 36800 (1981) 72100 38200 39500 42600 44000 65800 89100 93200 114000 163000
2026-05-03 01:00 13.20 57700 191000 (1984) 36800 (1981) 72100 38200 39500 42600 44000 65800 89100 93200 114000 163000
2026-05-03 00:00 13.22 57900 191000 (1984) 36800 (1981) 72100 38200 39500 42600 44000 65800 89100 93200 114000 163000
2026-05-02 23:00 13.24 58000 191000 (1984) 36800 (1981) 72100 38200 39500 42600 44000 65800 89100 93200 114000 163000
2026-05-02 22:00 13.26 58100 201000 (1984) 36900 (1981) 73600 37500 40500 43300 44000 67200 89100 98600 122000 165000
2026-05-02 21:00 13.27 58200 201000 (1984) 36900 (1981) 73600 37500 40500 43300 44000 67200 89100 98600 122000 165000
2026-05-02 20:00 13.30 58400 201000 (1984) 36900 (1981) 73600 37500 40500 43300 44000 67200 89100 98600 122000 165000
2026-05-02 19:00 13.31 58500 201000 (1984) 36900 (1981) 73600 37500 40500 43300 44000 67200 89100 98600 122000 165000
2026-05-02 18:00 13.34 58700 201000 (1984) 36900 (1981) 73600 37500 40500 43300 44000 67200 89100 98600 122000 165000
2026-05-02 17:00 13.36 58800 201000 (1984) 36900 (1981) 73600 37500 40500 43300 44000 67200 89100 98600 122000 165000
2026-05-02 16:00 13.37 58900 201000 (1984) 36900 (1981) 73600 37500 40500 43300 44000 67200 89100 98600 122000 165000
2026-05-02 15:00 13.39 59000 201000 (1984) 36900 (1981) 73600 37500 40500 43300 44000 67200 89100 98600 122000 165000
2026-05-02 14:00 13.40 59100 201000 (1984) 36900 (1981) 73600 37500 40500 43300 44000 67200 89100 98600 122000 165000
2026-05-02 13:00 13.42 59300 201000 (1984) 36900 (1981) 73600 37500 40500 43300 44000 67200 89100 98600 122000 165000
2026-05-02 12:00 13.45 59500 201000 (1984) 36900 (1981) 73600 37500 40500 43300 44000 67200 89100 98600 122000 165000
2026-05-02 11:00 13.45 59500 201000 (1984) 36900 (1981) 73600 37500 40500 43300 44000 67200 89100 98600 122000 165000
2026-05-02 10:00 13.46 59500 201000 (1984) 36900 (1981) 73600 37500 40500 43300 44000 67200 89100 98600 122000 165000
2026-05-02 09:00 13.48 59700 201000 (1984) 36900 (1981) 73600 37500 40500 43300 44000 67200 89100 98600 122000 165000
2026-05-02 08:00 13.51 59900 201000 (1984) 36900 (1981) 73600 37500 40500 43300 44000 67200 89100 98600 122000 165000
2026-05-02 07:00 13.54 60100 201000 (1984) 36900 (1981) 73600 37500 40500 43300 44000 67200 89100 98600 122000 165000
2026-05-02 06:00 13.56 60200 201000 (1984) 36900 (1981) 73600 37500 40500 43300 44000 67200 89100 98600 122000 165000
2026-05-02 05:00 13.57 60300 201000 (1984) 36900 (1981) 73600 37500 40500 43300 44000 67200 89100 98600 122000 165000
2026-05-02 04:00 13.58 60400 201000 (1984) 36900 (1981) 73600 37500 40500 43300 44000 67200 89100 98600 122000 165000
2026-05-02 03:00 13.60 60500 201000 (1984) 36900 (1981) 73600 37500 40500 43300 44000 67200 89100 98600 122000 165000
2026-05-02 02:00 13.63 60700 201000 (1984) 36900 (1981) 73600 37500 40500 43300 44000 67200 89100 98600 122000 165000
2026-05-02 01:00 13.65 60900 201000 (1984) 36900 (1981) 73600 37500 40500 43300 44000 67200 89100 98600 122000 165000
2026-05-02 00:00 13.68 61100 201000 (1984) 36900 (1981) 73600 37500 40500 43300 44000 67200 89100 98600 122000 165000
2026-05-01 23:00 13.71 61300 201000 (1984) 36900 (1981) 73600 37500 40500 43300 44000 67200 89100 98600 122000 165000
2026-05-01 22:00 13.75 61600 185000 (1984) 36600 (1967) 73700 38400 41100 43600 44800 66500 88700 95000 119000 151000
2026-05-01 21:00 13.78 61800 185000 (1984) 36600 (1967) 73700 38400 41100 43600 44800 66500 88700 95000 119000 151000
2026-05-01 20:00 13.83 62200 185000 (1984) 36600 (1967) 73700 38400 41100 43600 44800 66500 88700 95000 119000 151000
2026-05-01 19:00 13.87 62500 185000 (1984) 36600 (1967) 73700 38400 41100 43600 44800 66500 88700 95000 119000 151000
2026-05-01 18:00 13.91 62800 185000 (1984) 36600 (1967) 73700 38400 41100 43600 44800 66500 88700 95000 119000 151000
2026-05-01 17:00 13.96 63100 185000 (1984) 36600 (1967) 73700 38400 41100 43600 44800 66500 88700 95000 119000 151000
2026-05-01 16:00 13.98 63300 185000 (1984) 36600 (1967) 73700 38400 41100 43600 44800 66500 88700 95000 119000 151000
2026-05-01 15:00 14.06 63900 185000 (1984) 36600 (1967) 73700 38400 41100 43600 44800 66500 88700 95000 119000 151000
2026-05-01 14:00 14.13 64400 185000 (1984) 36600 (1967) 73700 38400 41100 43600 44800 66500 88700 95000 119000 151000
2026-05-01 13:00 14.19 64800 185000 (1984) 36600 (1967) 73700 38400 41100 43600 44800 66500 88700 95000 119000 151000
2026-05-01 12:00 14.25 65300 185000 (1984) 36600 (1967) 73700 38400 41100 43600 44800 66500 88700 95000 119000 151000
2026-05-01 11:00 14.31 65700 185000 (1984) 36600 (1967) 73700 38400 41100 43600 44800 66500 88700 95000 119000 151000
2026-05-01 10:00 14.38 66300 185000 (1984) 36600 (1967) 73700 38400 41100 43600 44800 66500 88700 95000 119000 151000
2026-05-01 09:00 14.44 66700 185000 (1984) 36600 (1967) 73700 38400 41100 43600 44800 66500 88700 95000 119000 151000
2026-05-01 08:00 14.53 67400 185000 (1984) 36600 (1967) 73700 38400 41100 43600 44800 66500 88700 95000 119000 151000
2026-05-01 07:00 14.62 68100 185000 (1984) 36600 (1967) 73700 38400 41100 43600 44800 66500 88700 95000 119000 151000
2026-05-01 06:00 14.69 68700 185000 (1984) 36600 (1967) 73700 38400 41100 43600 44800 66500 88700 95000 119000 151000
2026-05-01 05:00 14.78 69400 185000 (1984) 36600 (1967) 73700 38400 41100 43600 44800 66500 88700 95000 119000 151000
2026-05-01 04:00 14.87 70100 185000 (1984) 36600 (1967) 73700 38400 41100 43600 44800 66500 88700 95000 119000 151000
2026-05-01 03:00 14.95 70700 185000 (1984) 36600 (1967) 73700 38400 41100 43600 44800 66500 88700 95000 119000 151000
2026-05-01 02:00 15.04 71500 185000 (1984) 36600 (1967) 73700 38400 41100 43600 44800 66500 88700 95000 119000 151000
2026-05-01 01:00 15.12 72100 185000 (1984) 36600 (1967) 73700 38400 41100 43600 44800 66500 88700 95000 119000 151000
2026-05-01 00:00 15.21 72800 185000 (1984) 36600 (1967) 73700 38400 41100 43600 44800 66500 88700 95000 119000 151000
2026-04-30 23:00 15.29 73500 185000 (1984) 36600 (1967) 73700 38400 41100 43600 44800 66500 88700 95000 119000 151000
2026-04-30 22:00 15.39 74300 173000 (1999) 36800 (1981) 73100 39600 40800 43800 45400 64800 93000 99700 127000 140000
2026-04-30 21:00 15.50 75200 173000 (1999) 36800 (1981) 73100 39600 40800 43800 45400 64800 93000 99700 127000 140000
2026-04-30 20:00 15.63 76300 173000 (1999) 36800 (1981) 73100 39600 40800 43800 45400 64800 93000 99700 127000 140000
2026-04-30 19:00 15.73 77200 173000 (1999) 36800 (1981) 73100 39600 40800 43800 45400 64800 93000 99700 127000 140000
2026-04-30 18:00 15.83 78100 173000 (1999) 36800 (1981) 73100 39600 40800 43800 45400 64800 93000 99700 127000 140000
2026-04-30 17:00 15.90 78700 173000 (1999) 36800 (1981) 73100 39600 40800 43800 45400 64800 93000 99700 127000 140000
2026-04-30 16:00 16.05 80000 173000 (1999) 36800 (1981) 73100 39600 40800 43800 45400 64800 93000 99700 127000 140000
2026-04-30 15:00 16.15 80900 173000 (1999) 36800 (1981) 73100 39600 40800 43800 45400 64800 93000 99700 127000 140000
2026-04-30 14:00 16.33 82500 173000 (1999) 36800 (1981) 73100 39600 40800 43800 45400 64800 93000 99700 127000 140000
2026-04-30 13:00 16.40 83100 173000 (1999) 36800 (1981) 73100 39600 40800 43800 45400 64800 93000 99700 127000 140000
2026-04-30 12:00 16.57 84600 173000 (1999) 36800 (1981) 73100 39600 40800 43800 45400 64800 93000 99700 127000 140000
2026-04-30 11:00 16.67 85600 173000 (1999) 36800 (1981) 73100 39600 40800 43800 45400 64800 93000 99700 127000 140000
2026-04-30 10:00 16.84 87100 173000 (1999) 36800 (1981) 73100 39600 40800 43800 45400 64800 93000 99700 127000 140000
2026-04-30 09:00 17.00 88600 173000 (1999) 36800 (1981) 73100 39600 40800 43800 45400 64800 93000 99700 127000 140000
2026-04-30 08:00 17.14 90000 173000 (1999) 36800 (1981) 73100 39600 40800 43800 45400 64800 93000 99700 127000 140000
2026-04-30 07:00 17.26 91100 173000 (1999) 36800 (1981) 73100 39600 40800 43800 45400 64800 93000 99700 127000 140000
2026-04-30 06:00 17.40 92500 173000 (1999) 36800 (1981) 73100 39600 40800 43800 45400 64800 93000 99700 127000 140000
2026-04-30 05:00 17.52 93700 173000 (1999) 36800 (1981) 73100 39600 40800 43800 45400 64800 93000 99700 127000 140000
2026-04-30 04:00 17.64 94900 173000 (1999) 36800 (1981) 73100 39600 40800 43800 45400 64800 93000 99700 127000 140000
2026-04-30 03:00 17.76 96100 173000 (1999) 36800 (1981) 73100 39600 40800 43800 45400 64800 93000 99700 127000 140000
2026-04-30 02:00 17.88 97300 173000 (1999) 36800 (1981) 73100 39600 40800 43800 45400 64800 93000 99700 127000 140000
2026-04-30 01:00 18.01 98600 173000 (1999) 36800 (1981) 73100 39600 40800 43800 45400 64800 93000 99700 127000 140000
2026-04-30 00:00 18.13 99900 173000 (1999) 36800 (1981) 73100 39600 40800 43800 45400 64800 93000 99700 127000 140000
2026-04-29 23:00 18.26 101000 173000 (1999) 36800 (1981) 73100 39600 40800 43800 45400 64800 93000 99700 127000 140000
2026-04-29 22:00 18.38 102000 219000 (1999) 35900 (1981) 74600 38100 40100 44200 44900 62500 87800 101000 133000 166000
2026-04-29 21:00 18.52 104000 219000 (1999) 35900 (1981) 74600 38100 40100 44200 44900 62500 87800 101000 133000 166000
2026-04-29 20:00 18.65 105000 219000 (1999) 35900 (1981) 74600 38100 40100 44200 44900 62500 87800 101000 133000 166000
2026-04-29 19:00 18.74 106000 219000 (1999) 35900 (1981) 74600 38100 40100 44200 44900 62500 87800 101000 133000 166000
2026-04-29 18:00 18.89 108000 219000 (1999) 35900 (1981) 74600 38100 40100 44200 44900 62500 87800 101000 133000 166000
2026-04-29 17:00 19.00 109000 219000 (1999) 35900 (1981) 74600 38100 40100 44200 44900 62500 87800 101000 133000 166000
2026-04-29 16:00 19.12 111000 219000 (1999) 35900 (1981) 74600 38100 40100 44200 44900 62500 87800 101000 133000 166000
2026-04-29 15:00 19.20 111000 219000 (1999) 35900 (1981) 74600 38100 40100 44200 44900 62500 87800 101000 133000 166000
2026-04-29 14:00 19.27 112000 219000 (1999) 35900 (1981) 74600 38100 40100 44200 44900 62500 87800 101000 133000 166000
2026-04-29 13:00 19.38 113000 219000 (1999) 35900 (1981) 74600 38100 40100 44200 44900 62500 87800 101000 133000 166000
2026-04-29 12:00 19.45 114000 219000 (1999) 35900 (1981) 74600 38100 40100 44200 44900 62500 87800 101000 133000 166000
2026-04-29 11:00 19.54 115000 219000 (1999) 35900 (1981) 74600 38100 40100 44200 44900 62500 87800 101000 133000 166000
2026-04-29 10:00 19.65 117000 219000 (1999) 35900 (1981) 74600 38100 40100 44200 44900 62500 87800 101000 133000 166000
2026-04-29 09:00 19.72 117000 219000 (1999) 35900 (1981) 74600 38100 40100 44200 44900 62500 87800 101000 133000 166000
2026-04-29 08:00 19.77 118000 219000 (1999) 35900 (1981) 74600 38100 40100 44200 44900 62500 87800 101000 133000 166000
2026-04-29 07:00 19.83 119000 219000 (1999) 35900 (1981) 74600 38100 40100 44200 44900 62500 87800 101000 133000 166000
2026-04-29 06:00 19.89 119000 219000 (1999) 35900 (1981) 74600 38100 40100 44200 44900 62500 87800 101000 133000 166000
2026-04-29 05:00 19.94 120000 219000 (1999) 35900 (1981) 74600 38100 40100 44200 44900 62500 87800 101000 133000 166000
2026-04-29 04:00 19.94 120000 219000 (1999) 35900 (1981) 74600 38100 40100 44200 44900 62500 87800 101000 133000 166000
2026-04-29 03:00 19.93 120000 219000 (1999) 35900 (1981) 74600 38100 40100 44200 44900 62500 87800 101000 133000 166000
2026-04-29 02:00 19.93 120000 219000 (1999) 35900 (1981) 74600 38100 40100 44200 44900 62500 87800 101000 133000 166000
2026-04-29 01:00 19.91 120000 219000 (1999) 35900 (1981) 74600 38100 40100 44200 44900 62500 87800 101000 133000 166000
2026-04-29 00:00 19.90 120000 219000 (1999) 35900 (1981) 74600 38100 40100 44200 44900 62500 87800 101000 133000 166000
2026-04-28 23:00 19.86 119000 219000 (1999) 35900 (1981) 74600 38100 40100 44200 44900 62500 87800 101000 133000 166000
2026-04-28 22:00 19.85 119000 193000 (2016) 34400 (1981) 72500 37700 39700 44900 45400 58900 83900 90700 131000 176000
2026-04-28 21:00 19.82 119000 193000 (2016) 34400 (1981) 72500 37700 39700 44900 45400 58900 83900 90700 131000 176000
2026-04-28 20:00 19.75 118000 193000 (2016) 34400 (1981) 72500 37700 39700 44900 45400 58900 83900 90700 131000 176000
2026-04-28 19:00 19.73 118000 193000 (2016) 34400 (1981) 72500 37700 39700 44900 45400 58900 83900 90700 131000 176000
2026-04-28 18:00 19.67 117000 193000 (2016) 34400 (1981) 72500 37700 39700 44900 45400 58900 83900 90700 131000 176000
2026-04-28 17:00 19.63 116000 193000 (2016) 34400 (1981) 72500 37700 39700 44900 45400 58900 83900 90700 131000 176000
2026-04-28 16:00 19.58 116000 193000 (2016) 34400 (1981) 72500 37700 39700 44900 45400 58900 83900 90700 131000 176000
2026-04-28 15:00 19.48 115000 193000 (2016) 34400 (1981) 72500 37700 39700 44900 45400 58900 83900 90700 131000 176000
2026-04-28 14:00 19.42 114000 193000 (2016) 34400 (1981) 72500 37700 39700 44900 45400 58900 83900 90700 131000 176000
2026-04-28 13:00 19.30 113000 193000 (2016) 34400 (1981) 72500 37700 39700 44900 45400 58900 83900 90700 131000 176000
2026-04-28 12:00 19.23 112000 193000 (2016) 34400 (1981) 72500 37700 39700 44900 45400 58900 83900 90700 131000 176000
2026-04-28 11:00 19.19 111000 193000 (2016) 34400 (1981) 72500 37700 39700 44900 45400 58900 83900 90700 131000 176000
2026-04-28 10:00 19.12 111000 193000 (2016) 34400 (1981) 72500 37700 39700 44900 45400 58900 83900 90700 131000 176000
2026-04-28 09:00 19.08 110000 193000 (2016) 34400 (1981) 72500 37700 39700 44900 45400 58900 83900 90700 131000 176000
2026-04-28 08:00 19.02 109000 193000 (2016) 34400 (1981) 72500 37700 39700 44900 45400 58900 83900 90700 131000 176000
2026-04-28 07:00 18.90 108000 193000 (2016) 34400 (1981) 72500 37700 39700 44900 45400 58900 83900 90700 131000 176000
2026-04-28 06:00 18.76 107000 193000 (2016) 34400 (1981) 72500 37700 39700 44900 45400 58900 83900 90700 131000 176000
2026-04-28 05:00 18.63 105000 193000 (2016) 34400 (1981) 72500 37700 39700 44900 45400 58900 83900 90700 131000 176000
2026-04-28 04:00 18.47 103000 193000 (2016) 34400 (1981) 72500 37700 39700 44900 45400 58900 83900 90700 131000 176000
2026-04-28 03:00 18.29 102000 193000 (2016) 34400 (1981) 72500 37700 39700 44900 45400 58900 83900 90700 131000 176000
2026-04-28 02:00 18.09 99400 193000 (2016) 34400 (1981) 72500 37700 39700 44900 45400 58900 83900 90700 131000 176000
2026-04-28 01:00 17.85 97000 193000 (2016) 34400 (1981) 72500 37700 39700 44900 45400 58900 83900 90700 131000 176000
2026-04-28 00:00 17.57 94200 193000 (2016) 34400 (1981) 72500 37700 39700 44900 45400 58900 83900 90700 131000 176000
2026-04-27 23:00 17.26 91100 193000 (2016) 34400 (1981) 72500 37700 39700 44900 45400 58900 83900 90700 131000 176000
2026-04-27 22:00 16.88 87500 144000 (1984) 34600 (1981) 67700 37600 40400 43700 44900 56200 85500 89700 118000 136000
2026-04-27 21:00 16.41 83200 144000 (1984) 34600 (1981) 67700 37600 40400 43700 44900 56200 85500 89700 118000 136000
2026-04-27 20:00 16.00 79500 144000 (1984) 34600 (1981) 67700 37600 40400 43700 44900 56200 85500 89700 118000 136000
2026-04-27 19:00 15.48 75100 144000 (1984) 34600 (1981) 67700 37600 40400 43700 44900 56200 85500 89700 118000 136000
2026-04-27 18:00 14.97 70900 144000 (1984) 34600 (1981) 67700 37600 40400 43700 44900 56200 85500 89700 118000 136000
2026-04-27 17:00 14.52 67400 144000 (1984) 34600 (1981) 67700 37600 40400 43700 44900 56200 85500 89700 118000 136000
2026-04-27 16:00 14.01 63500 144000 (1984) 34600 (1981) 67700 37600 40400 43700 44900 56200 85500 89700 118000 136000
2026-04-27 15:00 13.67 61000 144000 (1984) 34600 (1981) 67700 37600 40400 43700 44900 56200 85500 89700 118000 136000
2026-04-27 14:00 13.31 58500 144000 (1984) 34600 (1981) 67700 37600 40400 43700 44900 56200 85500 89700 118000 136000
2026-04-27 13:00 12.98 56200 144000 (1984) 34600 (1981) 67700 37600 40400 43700 44900 56200 85500 89700 118000 136000
2026-04-27 12:00 12.76 54800 144000 (1984) 34600 (1981) 67700 37600 40400 43700 44900 56200 85500 89700 118000 136000
2026-04-27 11:00 12.60 53700 144000 (1984) 34600 (1981) 67700 37600 40400 43700 44900 56200 85500 89700 118000 136000
2026-04-27 10:00 12.45 52700 144000 (1984) 34600 (1981) 67700 37600 40400 43700 44900 56200 85500 89700 118000 136000
2026-04-27 09:00 12.30 51800 144000 (1984) 34600 (1981) 67700 37600 40400 43700 44900 56200 85500 89700 118000 136000
2026-04-27 08:00 12.22 51300 144000 (1984) 34600 (1981) 67700 37600 40400 43700 44900 56200 85500 89700 118000 136000
2026-04-27 07:00 12.17 51000 144000 (1984) 34600 (1981) 67700 37600 40400 43700 44900 56200 85500 89700 118000 136000
2026-04-27 06:00 12.07 50300 144000 (1984) 34600 (1981) 67700 37600 40400 43700 44900 56200 85500 89700 118000 136000
2026-04-27 05:00 11.93 49500 144000 (1984) 34600 (1981) 67700 37600 40400 43700 44900 56200 85500 89700 118000 136000
2026-04-27 04:00 11.93 49500 144000 (1984) 34600 (1981) 67700 37600 40400 43700 44900 56200 85500 89700 118000 136000
2026-04-27 03:00 11.94 49500 144000 (1984) 34600 (1981) 67700 37600 40400 43700 44900 56200 85500 89700 118000 136000
2026-04-27 02:00 11.93 49500 144000 (1984) 34600 (1981) 67700 37600 40400 43700 44900 56200 85500 89700 118000 136000
2026-04-27 01:00 11.95 49600 144000 (1984) 34600 (1981) 67700 37600 40400 43700 44900 56200 85500 89700 118000 136000
2026-04-27 00:00 11.94 49500 144000 (1984) 34600 (1981) 67700 37600 40400 43700 44900 56200 85500 89700 118000 136000
2026-04-26 23:00 12.00 49900 144000 (1984) 34600 (1981) 67700 37600 40400 43700 44900 56200 85500 89700 118000 136000
2026-04-26 22:00 11.91 49300 152000 (1984) 34700 (1990) 66700 36900 40000 44200 45400 55300 84200 89900 109000 126000
2026-04-26 21:00 11.86 49000 152000 (1984) 34700 (1990) 66700 36900 40000 44200 45400 55300 84200 89900 109000 126000
2026-04-26 20:00 11.84 48900 152000 (1984) 34700 (1990) 66700 36900 40000 44200 45400 55300 84200 89900 109000 126000
2026-04-26 19:00 11.94 49500 152000 (1984) 34700 (1990) 66700 36900 40000 44200 45400 55300 84200 89900 109000 126000
2026-04-26 18:00 11.96 49700 152000 (1984) 34700 (1990) 66700 36900 40000 44200 45400 55300 84200 89900 109000 126000
2026-04-26 17:00 11.94 49500 152000 (1984) 34700 (1990) 66700 36900 40000 44200 45400 55300 84200 89900 109000 126000
2026-04-26 16:00 11.89 49200 152000 (1984) 34700 (1990) 66700 36900 40000 44200 45400 55300 84200 89900 109000 126000
2026-04-26 15:00 11.88 49200 152000 (1984) 34700 (1990) 66700 36900 40000 44200 45400 55300 84200 89900 109000 126000
2026-04-26 14:00 11.89 49200 152000 (1984) 34700 (1990) 66700 36900 40000 44200 45400 55300 84200 89900 109000 126000
2026-04-26 13:00 11.91 49300 152000 (1984) 34700 (1990) 66700 36900 40000 44200 45400 55300 84200 89900 109000 126000
2026-04-26 12:00 11.90 49300 152000 (1984) 34700 (1990) 66700 36900 40000 44200 45400 55300 84200 89900 109000 126000
2026-04-26 11:00 11.94 49500 152000 (1984) 34700 (1990) 66700 36900 40000 44200 45400 55300 84200 89900 109000 126000
2026-04-26 10:00 11.94 49500 152000 (1984) 34700 (1990) 66700 36900 40000 44200 45400 55300 84200 89900 109000 126000
2026-04-26 09:00 11.95 49600 152000 (1984) 34700 (1990) 66700 36900 40000 44200 45400 55300 84200 89900 109000 126000
2026-04-26 08:00 11.98 49800 152000 (1984) 34700 (1990) 66700 36900 40000 44200 45400 55300 84200 89900 109000 126000
2026-04-26 07:00 12.02 50000 152000 (1984) 34700 (1990) 66700 36900 40000 44200 45400 55300 84200 89900 109000 126000
2026-04-26 06:00 12.06 50300 152000 (1984) 34700 (1990) 66700 36900 40000 44200 45400 55300 84200 89900 109000 126000
2026-04-26 05:00 12.04 50100 152000 (1984) 34700 (1990) 66700 36900 40000 44200 45400 55300 84200 89900 109000 126000
2026-04-26 04:00 12.08 50400 152000 (1984) 34700 (1990) 66700 36900 40000 44200 45400 55300 84200 89900 109000 126000
2026-04-26 03:00 12.15 50800 152000 (1984) 34700 (1990) 66700 36900 40000 44200 45400 55300 84200 89900 109000 126000
2026-04-26 02:00 12.18 51000 152000 (1984) 34700 (1990) 66700 36900 40000 44200 45400 55300 84200 89900 109000 126000
2026-04-26 01:00 12.19 51100 152000 (1984) 34700 (1990) 66700 36900 40000 44200 45400 55300 84200 89900 109000 126000
2026-04-26 00:00 12.18 51000 152000 (1984) 34700 (1990) 66700 36900 40000 44200 45400 55300 84200 89900 109000 126000
2026-04-25 23:00 12.28 51700 152000 (1984) 34700 (1990) 66700 36900 40000 44200 45400 55300 84200 89900 109000 126000
2026-04-25 22:00 12.32 51900 154000 (1984) 34700 (1990) 68100 37900 40800 44700 46100 56400 83600 94700 110000 134000
2026-04-25 21:00 12.37 52200 154000 (1984) 34700 (1990) 68100 37900 40800 44700 46100 56400 83600 94700 110000 134000
2026-04-25 20:00 12.42 52500 154000 (1984) 34700 (1990) 68100 37900 40800 44700 46100 56400 83600 94700 110000 134000
2026-04-25 19:00 12.47 52900 154000 (1984) 34700 (1990) 68100 37900 40800 44700 46100 56400 83600 94700 110000 134000
2026-04-25 18:00 12.50 53100 154000 (1984) 34700 (1990) 68100 37900 40800 44700 46100 56400 83600 94700 110000 134000
2026-04-25 17:00 12.51 53100 154000 (1984) 34700 (1990) 68100 37900 40800 44700 46100 56400 83600 94700 110000 134000
2026-04-25 16:00 12.56 53400 154000 (1984) 34700 (1990) 68100 37900 40800 44700 46100 56400 83600 94700 110000 134000
2026-04-25 15:00 12.63 53900 154000 (1984) 34700 (1990) 68100 37900 40800 44700 46100 56400 83600 94700 110000 134000
2026-04-25 14:00 12.68 54200 154000 (1984) 34700 (1990) 68100 37900 40800 44700 46100 56400 83600 94700 110000 134000
2026-04-25 13:00 12.75 54700 154000 (1984) 34700 (1990) 68100 37900 40800 44700 46100 56400 83600 94700 110000 134000
2026-04-25 12:00 12.81 55100 154000 (1984) 34700 (1990) 68100 37900 40800 44700 46100 56400 83600 94700 110000 134000
2026-04-25 11:00 12.82 55200 154000 (1984) 34700 (1990) 68100 37900 40800 44700 46100 56400 83600 94700 110000 134000
2026-04-25 10:00 12.89 55600 154000 (1984) 34700 (1990) 68100 37900 40800 44700 46100 56400 83600 94700 110000 134000
2026-04-25 09:00 12.93 55900 154000 (1984) 34700 (1990) 68100 37900 40800 44700 46100 56400 83600 94700 110000 134000
2026-04-25 08:00 12.99 56300 154000 (1984) 34700 (1990) 68100 37900 40800 44700 46100 56400 83600 94700 110000 134000
2026-04-25 07:00 13.11 57100 154000 (1984) 34700 (1990) 68100 37900 40800 44700 46100 56400 83600 94700 110000 134000
2026-04-25 06:00 13.16 57500 154000 (1984) 34700 (1990) 68100 37900 40800 44700 46100 56400 83600 94700 110000 134000
2026-04-25 05:00 13.19 57700 154000 (1984) 34700 (1990) 68100 37900 40800 44700 46100 56400 83600 94700 110000 134000
2026-04-25 04:00 13.20 57700 154000 (1984) 34700 (1990) 68100 37900 40800 44700 46100 56400 83600 94700 110000 134000
2026-04-25 03:00 13.21 57800 154000 (1984) 34700 (1990) 68100 37900 40800 44700 46100 56400 83600 94700 110000 134000
2026-04-25 02:00 13.20 57700 154000 (1984) 34700 (1990) 68100 37900 40800 44700 46100 56400 83600 94700 110000 134000
2026-04-25 01:00 13.20 57700 154000 (1984) 34700 (1990) 68100 37900 40800 44700 46100 56400 83600 94700 110000 134000
2026-04-25 00:00 13.20 57700 154000 (1984) 34700 (1990) 68100 37900 40800 44700 46100 56400 83600 94700 110000 134000
2026-04-24 23:00 13.16 57500 154000 (1984) 34700 (1990) 68100 37900 40800 44700 46100 56400 83600 94700 110000 134000
2026-04-24 22:00 13.10 57000 157000 (1984) 35200 (1990) 69400 37500 40500 44800 47500 59200 85400 88000 116000 141000
2026-04-24 21:00 13.06 56800 157000 (1984) 35200 (1990) 69400 37500 40500 44800 47500 59200 85400 88000 116000 141000
2026-04-24 20:00 13.00 56400 157000 (1984) 35200 (1990) 69400 37500 40500 44800 47500 59200 85400 88000 116000 141000
2026-04-24 19:00 12.92 55800 157000 (1984) 35200 (1990) 69400 37500 40500 44800 47500 59200 85400 88000 116000 141000
2026-04-24 18:00 12.83 55200 157000 (1984) 35200 (1990) 69400 37500 40500 44800 47500 59200 85400 88000 116000 141000
2026-04-24 17:00 12.71 54400 157000 (1984) 35200 (1990) 69400 37500 40500 44800 47500 59200 85400 88000 116000 141000
2026-04-24 16:00 12.64 54000 157000 (1984) 35200 (1990) 69400 37500 40500 44800 47500 59200 85400 88000 116000 141000
2026-04-24 15:00 12.52 53200 157000 (1984) 35200 (1990) 69400 37500 40500 44800 47500 59200 85400 88000 116000 141000
2026-04-24 14:00 12.40 52400 157000 (1984) 35200 (1990) 69400 37500 40500 44800 47500 59200 85400 88000 116000 141000
2026-04-24 13:00 12.28 51700 157000 (1984) 35200 (1990) 69400 37500 40500 44800 47500 59200 85400 88000 116000 141000
2026-04-24 12:00 12.13 50700 157000 (1984) 35200 (1990) 69400 37500 40500 44800 47500 59200 85400 88000 116000 141000
2026-04-24 11:00 12.04 50100 157000 (1984) 35200 (1990) 69400 37500 40500 44800 47500 59200 85400 88000 116000 141000
2026-04-24 10:00 11.95 49600 157000 (1984) 35200 (1990) 69400 37500 40500 44800 47500 59200 85400 88000 116000 141000
2026-04-24 09:00 11.87 49100 157000 (1984) 35200 (1990) 69400 37500 40500 44800 47500 59200 85400 88000 116000 141000
2026-04-24 08:00 11.80 48700 157000 (1984) 35200 (1990) 69400 37500 40500 44800 47500 59200 85400 88000 116000 141000
2026-04-24 07:00 11.75 48400 157000 (1984) 35200 (1990) 69400 37500 40500 44800 47500 59200 85400 88000 116000 141000
2026-04-24 06:00 11.70 48100 157000 (1984) 35200 (1990) 69400 37500 40500 44800 47500 59200 85400 88000 116000 141000
2026-04-24 05:00 11.67 47900 157000 (1984) 35200 (1990) 69400 37500 40500 44800 47500 59200 85400 88000 116000 141000
2026-04-24 04:00 11.65 47800 157000 (1984) 35200 (1990) 69400 37500 40500 44800 47500 59200 85400 88000 116000 141000
2026-04-24 03:00 11.66 47800 157000 (1984) 35200 (1990) 69400 37500 40500 44800 47500 59200 85400 88000 116000 141000
2026-04-24 02:00 11.65 47800 157000 (1984) 35200 (1990) 69400 37500 40500 44800 47500 59200 85400 88000 116000 141000
2026-04-24 01:00 11.61 47500 157000 (1984) 35200 (1990) 69400 37500 40500 44800 47500 59200 85400 88000 116000 141000
2026-04-24 00:00 11.63 47700 157000 (1984) 35200 (1990) 69400 37500 40500 44800 47500 59200 85400 88000 116000 141000
2026-04-23 23:00 11.62 47600 157000 (1984) 35200 (1990) 69400 37500 40500 44800 47500 59200 85400 88000 116000 141000
2026-04-23 22:00 11.57 47300 156000 (1984) 35200 (2004) 69600 37100 40200 44500 48100 60900 86900 89600 119000 139000
2026-04-23 21:00 11.58 47400 156000 (1984) 35200 (2004) 69600 37100 40200 44500 48100 60900 86900 89600 119000 139000
2026-04-23 20:00 11.58 47400 156000 (1984) 35200 (2004) 69600 37100 40200 44500 48100 60900 86900 89600 119000 139000
2026-04-23 19:00 11.58 47400 156000 (1984) 35200 (2004) 69600 37100 40200 44500 48100 60900 86900 89600 119000 139000
2026-04-23 18:00 11.61 47500 156000 (1984) 35200 (2004) 69600 37100 40200 44500 48100 60900 86900 89600 119000 139000
2026-04-23 17:00 11.61 47500 156000 (1984) 35200 (2004) 69600 37100 40200 44500 48100 60900 86900 89600 119000 139000
2026-04-23 16:00 11.62 47600 156000 (1984) 35200 (2004) 69600 37100 40200 44500 48100 60900 86900 89600 119000 139000
2026-04-23 15:00 11.62 47600 156000 (1984) 35200 (2004) 69600 37100 40200 44500 48100 60900 86900 89600 119000 139000
2026-04-23 14:00 11.62 47600 156000 (1984) 35200 (2004) 69600 37100 40200 44500 48100 60900 86900 89600 119000 139000
2026-04-23 13:00 11.60 47500 156000 (1984) 35200 (2004) 69600 37100 40200 44500 48100 60900 86900 89600 119000 139000
2026-04-23 12:00 11.67 47900 156000 (1984) 35200 (2004) 69600 37100 40200 44500 48100 60900 86900 89600 119000 139000
2026-04-23 11:00 11.67 47900 156000 (1984) 35200 (2004) 69600 37100 40200 44500 48100 60900 86900 89600 119000 139000
2026-04-23 10:00 11.65 47800 156000 (1984) 35200 (2004) 69600 37100 40200 44500 48100 60900 86900 89600 119000 139000
2026-04-23 09:00 11.66 47800 156000 (1984) 35200 (2004) 69600 37100 40200 44500 48100 60900 86900 89600 119000 139000
2026-04-23 08:00 11.68 48000 156000 (1984) 35200 (2004) 69600 37100 40200 44500 48100 60900 86900 89600 119000 139000
2026-04-23 07:00 11.70 48100 156000 (1984) 35200 (2004) 69600 37100 40200 44500 48100 60900 86900 89600 119000 139000
2026-04-23 06:00 11.72 48200 156000 (1984) 35200 (2004) 69600 37100 40200 44500 48100 60900 86900 89600 119000 139000
2026-04-23 05:00 11.71 48100 156000 (1984) 35200 (2004) 69600 37100 40200 44500 48100 60900 86900 89600 119000 139000
2026-04-23 04:00 11.71 48100 156000 (1984) 35200 (2004) 69600 37100 40200 44500 48100 60900 86900 89600 119000 139000
2026-04-23 03:00 11.73 48300 156000 (1984) 35200 (2004) 69600 37100 40200 44500 48100 60900 86900 89600 119000 139000
2026-04-23 02:00 11.74 48300 156000 (1984) 35200 (2004) 69600 37100 40200 44500 48100 60900 86900 89600 119000 139000
2026-04-23 01:00 11.75 48400 156000 (1984) 35200 (2004) 69600 37100 40200 44500 48100 60900 86900 89600 119000 139000
2026-04-23 00:00 11.77 48500 156000 (1984) 35200 (2004) 69600 37100 40200 44500 48100 60900 86900 89600 119000 139000
2026-04-22 23:00 11.79 48600 156000 (1984) 35200 (2004) 69600 37100 40200 44500 48100 60900 86900 89600 119000 139000
2026-04-22 22:00 11.82 48800 151000 (1984) 36600 (1990) 68900 38300 39400 44900 45600 62400 86100 90200 114000 135000
2026-04-22 21:00 11.83 48900 151000 (1984) 36600 (1990) 68900 38300 39400 44900 45600 62400 86100 90200 114000 135000
2026-04-22 20:00 11.85 49000 151000 (1984) 36600 (1990) 68900 38300 39400 44900 45600 62400 86100 90200 114000 135000
2026-04-22 19:00 11.86 49000 151000 (1984) 36600 (1990) 68900 38300 39400 44900 45600 62400 86100 90200 114000 135000
2026-04-22 18:00 11.84 48900 151000 (1984) 36600 (1990) 68900 38300 39400 44900 45600 62400 86100 90200 114000 135000
2026-04-22 17:00 11.88 49200 151000 (1984) 36600 (1990) 68900 38300 39400 44900 45600 62400 86100 90200 114000 135000
2026-04-22 16:00 11.89 49200 151000 (1984) 36600 (1990) 68900 38300 39400 44900 45600 62400 86100 90200 114000 135000
2026-04-22 15:00 11.87 49100 151000 (1984) 36600 (1990) 68900 38300 39400 44900 45600 62400 86100 90200 114000 135000
2026-04-22 14:00 11.92 49400 151000 (1984) 36600 (1990) 68900 38300 39400 44900 45600 62400 86100 90200 114000 135000
2026-04-22 13:00 11.94 49500 151000 (1984) 36600 (1990) 68900 38300 39400 44900 45600 62400 86100 90200 114000 135000
2026-04-22 12:00 11.95 49600 151000 (1984) 36600 (1990) 68900 38300 39400 44900 45600 62400 86100 90200 114000 135000
2026-04-22 11:00 11.96 49700 151000 (1984) 36600 (1990) 68900 38300 39400 44900 45600 62400 86100 90200 114000 135000
2026-04-22 10:00 11.97 49700 151000 (1984) 36600 (1990) 68900 38300 39400 44900 45600 62400 86100 90200 114000 135000
2026-04-22 09:00 11.98 49800 151000 (1984) 36600 (1990) 68900 38300 39400 44900 45600 62400 86100 90200 114000 135000
2026-04-22 08:00 11.98 49800 151000 (1984) 36600 (1990) 68900 38300 39400 44900 45600 62400 86100 90200 114000 135000
2026-04-22 07:00 11.99 49800 151000 (1984) 36600 (1990) 68900 38300 39400 44900 45600 62400 86100 90200 114000 135000
2026-04-22 06:00 12.00 49900 151000 (1984) 36600 (1990) 68900 38300 39400 44900 45600 62400 86100 90200 114000 135000
2026-04-22 05:00 12.01 50000 151000 (1984) 36600 (1990) 68900 38300 39400 44900 45600 62400 86100 90200 114000 135000
2026-04-22 04:00 12.02 50000 151000 (1984) 36600 (1990) 68900 38300 39400 44900 45600 62400 86100 90200 114000 135000
2026-04-22 03:00 12.03 50100 151000 (1984) 36600 (1990) 68900 38300 39400 44900 45600 62400 86100 90200 114000 135000
2026-04-22 02:00 12.04 50100 151000 (1984) 36600 (1990) 68900 38300 39400 44900 45600 62400 86100 90200 114000 135000
2026-04-22 01:00 12.05 50200 151000 (1984) 36600 (1990) 68900 38300 39400 44900 45600 62400 86100 90200 114000 135000
2026-04-22 00:00 12.05 50200 151000 (1984) 36600 (1990) 68900 38300 39400 44900 45600 62400 86100 90200 114000 135000
2026-04-21 23:00 12.04 50100 151000 (1984) 36600 (1990) 68900 38300 39400 44900 45600 62400 86100 90200 114000 135000
2026-04-21 22:00 12.08 50400 144000 (1997) 36400 (2004) 68600 38200 39400 45600 46300 59400 78700 89900 119000 137000
2026-04-21 21:00 12.03 50100 144000 (1997) 36400 (2004) 68600 38200 39400 45600 46300 59400 78700 89900 119000 137000
2026-04-21 20:00 12.11 50600 144000 (1997) 36400 (2004) 68600 38200 39400 45600 46300 59400 78700 89900 119000 137000
2026-04-21 19:00 12.15 50800 144000 (1997) 36400 (2004) 68600 38200 39400 45600 46300 59400 78700 89900 119000 137000
2026-04-21 18:00 12.12 50600 144000 (1997) 36400 (2004) 68600 38200 39400 45600 46300 59400 78700 89900 119000 137000
2026-04-21 17:00 12.13 50700 144000 (1997) 36400 (2004) 68600 38200 39400 45600 46300 59400 78700 89900 119000 137000
2026-04-21 16:00 12.16 50900 144000 (1997) 36400 (2004) 68600 38200 39400 45600 46300 59400 78700 89900 119000 137000
2026-04-21 15:00 12.19 51100 144000 (1997) 36400 (2004) 68600 38200 39400 45600 46300 59400 78700 89900 119000 137000
2026-04-21 14:00 12.18 51000 144000 (1997) 36400 (2004) 68600 38200 39400 45600 46300 59400 78700 89900 119000 137000
2026-04-21 13:00 12.17 51000 144000 (1997) 36400 (2004) 68600 38200 39400 45600 46300 59400 78700 89900 119000 137000
2026-04-21 12:00 12.18 51000 144000 (1997) 36400 (2004) 68600 38200 39400 45600 46300 59400 78700 89900 119000 137000
2026-04-21 11:00 12.25 51500 144000 (1997) 36400 (2004) 68600 38200 39400 45600 46300 59400 78700 89900 119000 137000
2026-04-21 10:00 12.21 51200 144000 (1997) 36400 (2004) 68600 38200 39400 45600 46300 59400 78700 89900 119000 137000
2026-04-21 09:00 12.26 51500 144000 (1997) 36400 (2004) 68600 38200 39400 45600 46300 59400 78700 89900 119000 137000
2026-04-21 08:00 12.31 51800 144000 (1997) 36400 (2004) 68600 38200 39400 45600 46300 59400 78700 89900 119000 137000
2026-04-21 07:00 12.33 52000 144000 (1997) 36400 (2004) 68600 38200 39400 45600 46300 59400 78700 89900 119000 137000
2026-04-21 06:00 12.34 52000 144000 (1997) 36400 (2004) 68600 38200 39400 45600 46300 59400 78700 89900 119000 137000
2026-04-21 05:00 12.36 52200 144000 (1997) 36400 (2004) 68600 38200 39400 45600 46300 59400 78700 89900 119000 137000
2026-04-21 04:00 12.37 52200 144000 (1997) 36400 (2004) 68600 38200 39400 45600 46300 59400 78700 89900 119000 137000
2026-04-21 03:00 12.39 52400 144000 (1997) 36400 (2004) 68600 38200 39400 45600 46300 59400 78700 89900 119000 137000
2026-04-21 02:00 12.41 52500 144000 (1997) 36400 (2004) 68600 38200 39400 45600 46300 59400 78700 89900 119000 137000
2026-04-21 01:00 12.43 52600 144000 (1997) 36400 (2004) 68600 38200 39400 45600 46300 59400 78700 89900 119000 137000
2026-04-21 00:00 12.45 52700 144000 (1997) 36400 (2004) 68600 38200 39400 45600 46300 59400 78700 89900 119000 137000
2026-04-20 23:00 12.48 52900 144000 (1997) 36400 (2004) 68600 38200 39400 45600 46300 59400 78700 89900 119000 137000
2026-04-20 22:00 12.49 53000 146000 (1978) 33700 (2004) 68800 37200 39200 43900 45800 58600 82200 90400 130000 140000
2026-04-20 21:00 12.50 53100 146000 (1978) 33700 (2004) 68800 37200 39200 43900 45800 58600 82200 90400 130000 140000
2026-04-20 20:00 12.52 53200 146000 (1978) 33700 (2004) 68800 37200 39200 43900 45800 58600 82200 90400 130000 140000
2026-04-20 19:00 12.54 53300 146000 (1978) 33700 (2004) 68800 37200 39200 43900 45800 58600 82200 90400 130000 140000
2026-04-20 18:00 12.56 53400 146000 (1978) 33700 (2004) 68800 37200 39200 43900 45800 58600 82200 90400 130000 140000
2026-04-20 17:00 12.59 53600 146000 (1978) 33700 (2004) 68800 37200 39200 43900 45800 58600 82200 90400 130000 140000
2026-04-20 16:00 12.62 53800 146000 (1978) 33700 (2004) 68800 37200 39200 43900 45800 58600 82200 90400 130000 140000
2026-04-20 15:00 12.61 53800 146000 (1978) 33700 (2004) 68800 37200 39200 43900 45800 58600 82200 90400 130000 140000
2026-04-20 14:00 12.67 54200 146000 (1978) 33700 (2004) 68800 37200 39200 43900 45800 58600 82200 90400 130000 140000
2026-04-20 13:00 12.69 54300 146000 (1978) 33700 (2004) 68800 37200 39200 43900 45800 58600 82200 90400 130000 140000
2026-04-20 12:00 12.72 54500 146000 (1978) 33700 (2004) 68800 37200 39200 43900 45800 58600 82200 90400 130000 140000
2026-04-20 11:00 12.72 54500 146000 (1978) 33700 (2004) 68800 37200 39200 43900 45800 58600 82200 90400 130000 140000
2026-04-20 10:00 12.71 54400 146000 (1978) 33700 (2004) 68800 37200 39200 43900 45800 58600 82200 90400 130000 140000
2026-04-20 09:00 12.70 54400 146000 (1978) 33700 (2004) 68800 37200 39200 43900 45800 58600 82200 90400 130000 140000
2026-04-20 08:00 12.78 54900 146000 (1978) 33700 (2004) 68800 37200 39200 43900 45800 58600 82200 90400 130000 140000
2026-04-20 07:00 12.84 55300 146000 (1978) 33700 (2004) 68800 37200 39200 43900 45800 58600 82200 90400 130000 140000
2026-04-20 06:00 12.86 55400 146000 (1978) 33700 (2004) 68800 37200 39200 43900 45800 58600 82200 90400 130000 140000
2026-04-20 05:00 12.90 55700 146000 (1978) 33700 (2004) 68800 37200 39200 43900 45800 58600 82200 90400 130000 140000
2026-04-20 04:00 12.94 56000 146000 (1978) 33700 (2004) 68800 37200 39200 43900 45800 58600 82200 90400 130000 140000
2026-04-20 03:00 12.96 56100 146000 (1978) 33700 (2004) 68800 37200 39200 43900 45800 58600 82200 90400 130000 140000
2026-04-20 02:00 12.95 56000 146000 (1978) 33700 (2004) 68800 37200 39200 43900 45800 58600 82200 90400 130000 140000
2026-04-20 01:00 12.94 56000 146000 (1978) 33700 (2004) 68800 37200 39200 43900 45800 58600 82200 90400 130000 140000
2026-04-20 00:00 12.96 56100 146000 (1978) 33700 (2004) 68800 37200 39200 43900 45800 58600 82200 90400 130000 140000
2026-04-19 23:00 13.00 56400 146000 (1978) 33700 (2004) 68800 37200 39200 43900 45800 58600 82200 90400 130000 140000
2026-04-19 22:00 13.09 57000 149000 (1978) 32400 (1964) 69900 36300 38800 42400 45000 60100 80900 91800 138000 147000
2026-04-19 21:00 13.16 57500 149000 (1978) 32400 (1964) 69900 36300 38800 42400 45000 60100 80900 91800 138000 147000
2026-04-19 20:00 13.21 57800 149000 (1978) 32400 (1964) 69900 36300 38800 42400 45000 60100 80900 91800 138000 147000
2026-04-19 19:00 13.27 58200 149000 (1978) 32400 (1964) 69900 36300 38800 42400 45000 60100 80900 91800 138000 147000
2026-04-19 18:00 13.32 58600 149000 (1978) 32400 (1964) 69900 36300 38800 42400 45000 60100 80900 91800 138000 147000
2026-04-19 17:00 13.33 58600 149000 (1978) 32400 (1964) 69900 36300 38800 42400 45000 60100 80900 91800 138000 147000
2026-04-19 16:00 13.43 59300 149000 (1978) 32400 (1964) 69900 36300 38800 42400 45000 60100 80900 91800 138000 147000
2026-04-19 15:00 13.43 59300 149000 (1978) 32400 (1964) 69900 36300 38800 42400 45000 60100 80900 91800 138000 147000
2026-04-19 14:00 13.50 59800 149000 (1978) 32400 (1964) 69900 36300 38800 42400 45000 60100 80900 91800 138000 147000
2026-04-19 13:00 13.51 59900 149000 (1978) 32400 (1964) 69900 36300 38800 42400 45000 60100 80900 91800 138000 147000
2026-04-19 12:00 13.60 60500 149000 (1978) 32400 (1964) 69900 36300 38800 42400 45000 60100 80900 91800 138000 147000
2026-04-19 11:00 13.68 61100 149000 (1978) 32400 (1964) 69900 36300 38800 42400 45000 60100 80900 91800 138000 147000
2026-04-19 10:00 13.76 61700 149000 (1978) 32400 (1964) 69900 36300 38800 42400 45000 60100 80900 91800 138000 147000
2026-04-19 09:00 13.82 62100 149000 (1978) 32400 (1964) 69900 36300 38800 42400 45000 60100 80900 91800 138000 147000
2026-04-19 08:00 13.90 62700 149000 (1978) 32400 (1964) 69900 36300 38800 42400 45000 60100 80900 91800 138000 147000
2026-04-19 07:00 13.97 63200 149000 (1978) 32400 (1964) 69900 36300 38800 42400 45000 60100 80900 91800 138000 147000
2026-04-19 06:00 14.03 63700 149000 (1978) 32400 (1964) 69900 36300 38800 42400 45000 60100 80900 91800 138000 147000
2026-04-19 05:00 14.08 64000 149000 (1978) 32400 (1964) 69900 36300 38800 42400 45000 60100 80900 91800 138000 147000
2026-04-19 04:00 14.14 64500 149000 (1978) 32400 (1964) 69900 36300 38800 42400 45000 60100 80900 91800 138000 147000
2026-04-19 03:00 14.20 64900 149000 (1978) 32400 (1964) 69900 36300 38800 42400 45000 60100 80900 91800 138000 147000
2026-04-19 02:00 14.27 65400 149000 (1978) 32400 (1964) 69900 36300 38800 42400 45000 60100 80900 91800 138000 147000
2026-04-19 01:00 14.35 66100 149000 (1978) 32400 (1964) 69900 36300 38800 42400 45000 60100 80900 91800 138000 147000
2026-04-19 00:00 14.43 66700 149000 (1978) 32400 (1964) 69900 36300 38800 42400 45000 60100 80900 91800 138000 147000
2026-04-18 23:00 14.48 67000 149000 (1978) 32400 (1964) 69900 36300 38800 42400 45000 60100 80900 91800 138000 147000
2026-04-18 22:00 14.54 67500 177000 (1973) 34700 (2004) 70300 36400 38400 42400 43200 57700 88000 95400 137000 156000
2026-04-18 21:00 14.59 67900 177000 (1973) 34700 (2004) 70300 36400 38400 42400 43200 57700 88000 95400 137000 156000
2026-04-18 20:00 14.62 68100 177000 (1973) 34700 (2004) 70300 36400 38400 42400 43200 57700 88000 95400 137000 156000
2026-04-18 19:00 14.66 68400 177000 (1973) 34700 (2004) 70300 36400 38400 42400 43200 57700 88000 95400 137000 156000
2026-04-18 18:00 14.67 68500 177000 (1973) 34700 (2004) 70300 36400 38400 42400 43200 57700 88000 95400 137000 156000
2026-04-18 17:00 14.68 68600 177000 (1973) 34700 (2004) 70300 36400 38400 42400 43200 57700 88000 95400 137000 156000
2026-04-18 16:00 14.66 68400 177000 (1973) 34700 (2004) 70300 36400 38400 42400 43200 57700 88000 95400 137000 156000
2026-04-18 15:00 14.62 68100 177000 (1973) 34700 (2004) 70300 36400 38400 42400 43200 57700 88000 95400 137000 156000
2026-04-18 14:00 14.59 67900 177000 (1973) 34700 (2004) 70300 36400 38400 42400 43200 57700 88000 95400 137000 156000
2026-04-18 13:00 14.53 67400 177000 (1973) 34700 (2004) 70300 36400 38400 42400 43200 57700 88000 95400 137000 156000
2026-04-18 12:00 14.48 67000 177000 (1973) 34700 (2004) 70300 36400 38400 42400 43200 57700 88000 95400 137000 156000
2026-04-18 11:00 14.39 66400 177000 (1973) 34700 (2004) 70300 36400 38400 42400 43200 57700 88000 95400 137000 156000
2026-04-18 10:00 14.32 65800 177000 (1973) 34700 (2004) 70300 36400 38400 42400 43200 57700 88000 95400 137000 156000
2026-04-18 09:00 14.20 64900 177000 (1973) 34700 (2004) 70300 36400 38400 42400 43200 57700 88000 95400 137000 156000
2026-04-18 08:00 14.10 64200 177000 (1973) 34700 (2004) 70300 36400 38400 42400 43200 57700 88000 95400 137000 156000
2026-04-18 07:00 13.95 63100 177000 (1973) 34700 (2004) 70300 36400 38400 42400 43200 57700 88000 95400 137000 156000
2026-04-18 06:00 13.80 62000 177000 (1973) 34700 (2004) 70300 36400 38400 42400 43200 57700 88000 95400 137000 156000
2026-04-18 05:00 13.65 60900 177000 (1973) 34700 (2004) 70300 36400 38400 42400 43200 57700 88000 95400 137000 156000
2026-04-18 04:00 13.44 59400 177000 (1973) 34700 (2004) 70300 36400 38400 42400 43200 57700 88000 95400 137000 156000
2026-04-18 03:00 13.37 58900 177000 (1973) 34700 (2004) 70300 36400 38400 42400 43200 57700 88000 95400 137000 156000
2026-04-18 02:00 13.23 57900 177000 (1973) 34700 (2004) 70300 36400 38400 42400 43200 57700 88000 95400 137000 156000
2026-04-18 01:00 13.12 57200 177000 (1973) 34700 (2004) 70300 36400 38400 42400 43200 57700 88000 95400 137000 156000
2026-04-18 00:00 13.03 56600 177000 (1973) 34700 (2004) 70300 36400 38400 42400 43200 57700 88000 95400 137000 156000
2026-04-17 23:00 12.95 56000 177000 (1973) 34700 (2004) 70300 36400 38400 42400 43200 57700 88000 95400 137000 156000
2026-04-17 22:00 12.86 55400 192000 (1999) 35100 (2004) 71000 37900 39800 42300 44500 58700 86900 91800 131000 160000
2026-04-17 21:00 12.80 55000 192000 (1999) 35100 (2004) 71000 37900 39800 42300 44500 58700 86900 91800 131000 160000
2026-04-17 20:00 12.77 54800 192000 (1999) 35100 (2004) 71000 37900 39800 42300 44500 58700 86900 91800 131000 160000
2026-04-17 19:00 12.70 54400 192000 (1999) 35100 (2004) 71000 37900 39800 42300 44500 58700 86900 91800 131000 160000
2026-04-17 18:00 12.49 53000 192000 (1999) 35100 (2004) 71000 37900 39800 42300 44500 58700 86900 91800 131000 160000
2026-04-17 17:00 12.54 53300 192000 (1999) 35100 (2004) 71000 37900 39800 42300 44500 58700 86900 91800 131000 160000
2026-04-17 16:00 12.46 52800 192000 (1999) 35100 (2004) 71000 37900 39800 42300 44500 58700 86900 91800 131000 160000
2026-04-17 15:00 12.45 52700 192000 (1999) 35100 (2004) 71000 37900 39800 42300 44500 58700 86900 91800 131000 160000
2026-04-17 14:00 12.43 52600 192000 (1999) 35100 (2004) 71000 37900 39800 42300 44500 58700 86900 91800 131000 160000
2026-04-17 13:00 12.40 52400 192000 (1999) 35100 (2004) 71000 37900 39800 42300 44500 58700 86900 91800 131000 160000
2026-04-17 12:00 12.38 52300 192000 (1999) 35100 (2004) 71000 37900 39800 42300 44500 58700 86900 91800 131000 160000
2026-04-17 11:00 12.38 52300 192000 (1999) 35100 (2004) 71000 37900 39800 42300 44500 58700 86900 91800 131000 160000
2026-04-17 10:00 12.36 52200 192000 (1999) 35100 (2004) 71000 37900 39800 42300 44500 58700 86900 91800 131000 160000
2026-04-17 09:00 12.38 52300 192000 (1999) 35100 (2004) 71000 37900 39800 42300 44500 58700 86900 91800 131000 160000
2026-04-17 08:00 12.42 52500 192000 (1999) 35100 (2004) 71000 37900 39800 42300 44500 58700 86900 91800 131000 160000
2026-04-17 07:00 12.43 52600 192000 (1999) 35100 (2004) 71000 37900 39800 42300 44500 58700 86900 91800 131000 160000
2026-04-17 06:00 12.43 52600 192000 (1999) 35100 (2004) 71000 37900 39800 42300 44500 58700 86900 91800 131000 160000
2026-04-17 05:00 12.46 52800 192000 (1999) 35100 (2004) 71000 37900 39800 42300 44500 58700 86900 91800 131000 160000
2026-04-17 04:00 12.48 52900 192000 (1999) 35100 (2004) 71000 37900 39800 42300 44500 58700 86900 91800 131000 160000
2026-04-17 03:00 12.48 52900 192000 (1999) 35100 (2004) 71000 37900 39800 42300 44500 58700 86900 91800 131000 160000
2026-04-17 02:00 12.50 53100 192000 (1999) 35100 (2004) 71000 37900 39800 42300 44500 58700 86900 91800 131000 160000
2026-04-17 01:00 12.52 53200 192000 (1999) 35100 (2004) 71000 37900 39800 42300 44500 58700 86900 91800 131000 160000
2026-04-17 00:00 12.55 53400 192000 (1999) 35100 (2004) 71000 37900 39800 42300 44500 58700 86900 91800 131000 160000
2026-04-16 23:00 12.58 53600 192000 (1999) 35100 (2004) 71000 37900 39800 42300 44500 58700 86900 91800 131000 160000
2026-04-16 22:00 12.61 53800 183000 (1987) 34400 (2003) 70300 37800 39900 43900 45700 61300 84500 93300 128000 152000
2026-04-16 21:00 12.63 53900 183000 (1987) 34400 (2003) 70300 37800 39900 43900 45700 61300 84500 93300 128000 152000
2026-04-16 20:00 12.65 54000 183000 (1987) 34400 (2003) 70300 37800 39900 43900 45700 61300 84500 93300 128000 152000
2026-04-16 19:00 12.66 54100 183000 (1987) 34400 (2003) 70300 37800 39900 43900 45700 61300 84500 93300 128000 152000
2026-04-16 18:00 12.68 54200 183000 (1987) 34400 (2003) 70300 37800 39900 43900 45700 61300 84500 93300 128000 152000
2026-04-16 17:00 12.68 54200 183000 (1987) 34400 (2003) 70300 37800 39900 43900 45700 61300 84500 93300 128000 152000
2026-04-16 16:00 12.68 54200 183000 (1987) 34400 (2003) 70300 37800 39900 43900 45700 61300 84500 93300 128000 152000
2026-04-16 15:00 12.69 54300 183000 (1987) 34400 (2003) 70300 37800 39900 43900 45700 61300 84500 93300 128000 152000
2026-04-16 14:00 12.69 54300 183000 (1987) 34400 (2003) 70300 37800 39900 43900 45700 61300 84500 93300 128000 152000
2026-04-16 13:00 12.71 54400 183000 (1987) 34400 (2003) 70300 37800 39900 43900 45700 61300 84500 93300 128000 152000
2026-04-16 12:00 12.71 54400 183000 (1987) 34400 (2003) 70300 37800 39900 43900 45700 61300 84500 93300 128000 152000
2026-04-16 11:00 12.72 54500 183000 (1987) 34400 (2003) 70300 37800 39900 43900 45700 61300 84500 93300 128000 152000
2026-04-16 10:00 12.73 54600 183000 (1987) 34400 (2003) 70300 37800 39900 43900 45700 61300 84500 93300 128000 152000
2026-04-16 09:00 12.74 54600 183000 (1987) 34400 (2003) 70300 37800 39900 43900 45700 61300 84500 93300 128000 152000
2026-04-16 08:00 12.74 54600 183000 (1987) 34400 (2003) 70300 37800 39900 43900 45700 61300 84500 93300 128000 152000
2026-04-16 07:00 12.78 54900 183000 (1987) 34400 (2003) 70300 37800 39900 43900 45700 61300 84500 93300 128000 152000
2026-04-16 06:00 12.81 55100 183000 (1987) 34400 (2003) 70300 37800 39900 43900 45700 61300 84500 93300 128000 152000
2026-04-16 05:00 12.85 55400 183000 (1987) 34400 (2003) 70300 37800 39900 43900 45700 61300 84500 93300 128000 152000
2026-04-16 04:00 12.87 55500 183000 (1987) 34400 (2003) 70300 37800 39900 43900 45700 61300 84500 93300 128000 152000
2026-04-16 03:00 12.90 55700 183000 (1987) 34400 (2003) 70300 37800 39900 43900 45700 61300 84500 93300 128000 152000
2026-04-16 02:00 12.94 56000 183000 (1987) 34400 (2003) 70300 37800 39900 43900 45700 61300 84500 93300 128000 152000
2026-04-16 01:00 12.99 56300 183000 (1987) 34400 (2003) 70300 37800 39900 43900 45700 61300 84500 93300 128000 152000
2026-04-16 00:00 13.03 56600 183000 (1987) 34400 (2003) 70300 37800 39900 43900 45700 61300 84500 93300 128000 152000
2026-04-15 23:00 13.07 56800 183000 (1987) 34400 (2003) 70300 37800 39900 43900 45700 61300 84500 93300 128000 152000
2026-04-15 22:00 13.11 57100 155000 (1997) 34500 (2003) 69200 37300 40100 43300 45300 58900 84700 95500 118000 145000
2026-04-15 21:00 13.16 57500 155000 (1997) 34500 (2003) 69200 37300 40100 43300 45300 58900 84700 95500 118000 145000
2026-04-15 20:00 13.21 57800 155000 (1997) 34500 (2003) 69200 37300 40100 43300 45300 58900 84700 95500 118000 145000
2026-04-15 19:00 13.26 58100 155000 (1997) 34500 (2003) 69200 37300 40100 43300 45300 58900 84700 95500 118000 145000
2026-04-15 18:00 13.26 58100 155000 (1997) 34500 (2003) 69200 37300 40100 43300 45300 58900 84700 95500 118000 145000
2026-04-15 17:00 13.34 58700 155000 (1997) 34500 (2003) 69200 37300 40100 43300 45300 58900 84700 95500 118000 145000
2026-04-15 16:00 13.39 59000 155000 (1997) 34500 (2003) 69200 37300 40100 43300 45300 58900 84700 95500 118000 145000
2026-04-15 15:00 13.45 59500 155000 (1997) 34500 (2003) 69200 37300 40100 43300 45300 58900 84700 95500 118000 145000
2026-04-15 14:00 13.51 59900 155000 (1997) 34500 (2003) 69200 37300 40100 43300 45300 58900 84700 95500 118000 145000
2026-04-15 13:00 13.56 60200 155000 (1997) 34500 (2003) 69200 37300 40100 43300 45300 58900 84700 95500 118000 145000
2026-04-15 12:00 13.62 60700 155000 (1997) 34500 (2003) 69200 37300 40100 43300 45300 58900 84700 95500 118000 145000
2026-04-15 11:00 13.69 61200 155000 (1997) 34500 (2003) 69200 37300 40100 43300 45300 58900 84700 95500 118000 145000
2026-04-15 10:00 13.76 61700 155000 (1997) 34500 (2003) 69200 37300 40100 43300 45300 58900 84700 95500 118000 145000
2026-04-15 09:00 13.80 62000 155000 (1997) 34500 (2003) 69200 37300 40100 43300 45300 58900 84700 95500 118000 145000
2026-04-15 08:00 13.87 62500 155000 (1997) 34500 (2003) 69200 37300 40100 43300 45300 58900 84700 95500 118000 145000
2026-04-15 07:00 13.92 62800 155000 (1997) 34500 (2003) 69200 37300 40100 43300 45300 58900 84700 95500 118000 145000
2026-04-15 06:00 13.96 63100 155000 (1997) 34500 (2003) 69200 37300 40100 43300 45300 58900 84700 95500 118000 145000
2026-04-15 05:00 14.01 63500 155000 (1997) 34500 (2003) 69200 37300 40100 43300 45300 58900 84700 95500 118000 145000
2026-04-15 04:00 14.06 63900 155000 (1997) 34500 (2003) 69200 37300 40100 43300 45300 58900 84700 95500 118000 145000
2026-04-15 03:00 14.11 64200 155000 (1997) 34500 (2003) 69200 37300 40100 43300 45300 58900 84700 95500 118000 145000
2026-04-15 02:00 14.16 64600 155000 (1997) 34500 (2003) 69200 37300 40100 43300 45300 58900 84700 95500 118000 145000
2026-04-15 01:00 14.19 64800 155000 (1997) 34500 (2003) 69200 37300 40100 43300 45300 58900 84700 95500 118000 145000
2026-04-15 00:00 14.24 65200 155000 (1997) 34500 (2003) 69200 37300 40100 43300 45300 58900 84700 95500 118000 145000
2026-04-14 23:00 14.27 65400 155000 (1997) 34500 (2003) 69200 37300 40100 43300 45300 58900 84700 95500 118000 145000
2026-04-14 22:00 14.31 65700 170000 (1997) 34400 (2003) 69900 35800 38500 43800 45400 58600 90900 95300 115000 149000
2026-04-14 21:00 14.36 66100 170000 (1997) 34400 (2003) 69900 35800 38500 43800 45400 58600 90900 95300 115000 149000
2026-04-14 20:00 14.41 66500 170000 (1997) 34400 (2003) 69900 35800 38500 43800 45400 58600 90900 95300 115000 149000
2026-04-14 19:00 14.45 66800 170000 (1997) 34400 (2003) 69900 35800 38500 43800 45400 58600 90900 95300 115000 149000
2026-04-14 18:00 14.46 66900 170000 (1997) 34400 (2003) 69900 35800 38500 43800 45400 58600 90900 95300 115000 149000
2026-04-14 17:00 14.55 67600 170000 (1997) 34400 (2003) 69900 35800 38500 43800 45400 58600 90900 95300 115000 149000
2026-04-14 16:00 14.59 67100 170000 (1997) 34400 (2003) 69900 35800 38500 43800 45400 58600 90900 95300 115000 149000
2026-04-14 15:00 14.61 67300 170000 (1997) 34400 (2003) 69900 35800 38500 43800 45400 58600 90900 95300 115000 149000
2026-04-14 14:00 14.66 67700 170000 (1997) 34400 (2003) 69900 35800 38500 43800 45400 58600 90900 95300 115000 149000
2026-04-14 13:00 14.67 67700 170000 (1997) 34400 (2003) 69900 35800 38500 43800 45400 58600 90900 95300 115000 149000
2026-04-14 12:00 14.71 68100 170000 (1997) 34400 (2003) 69900 35800 38500 43800 45400 58600 90900 95300 115000 149000
2026-04-14 10:00 14.84 69100 170000 (1997) 34400 (2003) 69900 35800 38500 43800 45400 58600 90900 95300 115000 149000
2026-04-14 09:00 14.88 69400 170000 (1997) 34400 (2003) 69900 35800 38500 43800 45400 58600 90900 95300 115000 149000
2026-04-14 08:00 14.88 69400 170000 (1997) 34400 (2003) 69900 35800 38500 43800 45400 58600 90900 95300 115000 149000
2026-04-14 07:00 14.89 69500 170000 (1997) 34400 (2003) 69900 35800 38500 43800 45400 58600 90900 95300 115000 149000
2026-04-14 06:00 14.89 69500 170000 (1997) 34400 (2003) 69900 35800 38500 43800 45400 58600 90900 95300 115000 149000
2026-04-14 05:00 14.89 69500 170000 (1997) 34400 (2003) 69900 35800 38500 43800 45400 58600 90900 95300 115000 149000
2026-04-14 04:00 14.88 69400 170000 (1997) 34400 (2003) 69900 35800 38500 43800 45400 58600 90900 95300 115000 149000
2026-04-14 03:00 14.89 69500 170000 (1997) 34400 (2003) 69900 35800 38500 43800 45400 58600 90900 95300 115000 149000
2026-04-14 02:00 14.89 69500 170000 (1997) 34400 (2003) 69900 35800 38500 43800 45400 58600 90900 95300 115000 149000
2026-04-14 01:00 14.87 69300 170000 (1997) 34400 (2003) 69900 35800 38500 43800 45400 58600 90900 95300 115000 149000
2026-04-14 00:00 14.85 69100 170000 (1997) 34400 (2003) 69900 35800 38500 43800 45400 58600 90900 95300 115000 149000
2026-04-13 23:00 14.74 68300 170000 (1997) 34400 (2003) 69900 35800 38500 43800 45400 58600 90900 95300 115000 149000
2026-04-13 22:00 14.78 68600 185000 (1997) 33900 (1991) 70400 35200 37700 42300 45900 55000 88600 101000 118000 138000
2026-04-13 21:00 14.72 68100 185000 (1997) 33900 (1991) 70400 35200 37700 42300 45900 55000 88600 101000 118000 138000
2026-04-13 20:00 14.65 67600 185000 (1997) 33900 (1991) 70400 35200 37700 42300 45900 55000 88600 101000 118000 138000
2026-04-13 19:00 14.57 67000 185000 (1997) 33900 (1991) 70400 35200 37700 42300 45900 55000 88600 101000 118000 138000
2026-04-13 18:00 14.49 66400 185000 (1997) 33900 (1991) 70400 35200 37700 42300 45900 55000 88600 101000 118000 138000
2026-04-13 17:00 14.44 66000 185000 (1997) 33900 (1991) 70400 35200 37700 42300 45900 55000 88600 101000 118000 138000
2026-04-13 16:00 14.34 65200 185000 (1997) 33900 (1991) 70400 35200 37700 42300 45900 55000 88600 101000 118000 138000
2026-04-13 15:00 14.26 64600 185000 (1997) 33900 (1991) 70400 35200 37700 42300 45900 55000 88600 101000 118000 138000
2026-04-13 14:00 14.13 63700 185000 (1997) 33900 (1991) 70400 35200 37700 42300 45900 55000 88600 101000 118000 138000
2026-04-13 13:00 14.03 62900 185000 (1997) 33900 (1991) 70400 35200 37700 42300 45900 55000 88600 101000 118000 138000
2026-04-13 12:00 13.93 62200 185000 (1997) 33900 (1991) 70400 35200 37700 42300 45900 55000 88600 101000 118000 138000
2026-04-13 11:00 13.79 61200 185000 (1997) 33900 (1991) 70400 35200 37700 42300 45900 55000 88600 101000 118000 138000
2026-04-13 10:00 13.65 60200 185000 (1997) 33900 (1991) 70400 35200 37700 42300 45900 55000 88600 101000 118000 138000
2026-04-13 09:00 13.55 59500 185000 (1997) 33900 (1991) 70400 35200 37700 42300 45900 55000 88600 101000 118000 138000
2026-04-13 08:00 13.44 58700 185000 (1997) 33900 (1991) 70400 35200 37700 42300 45900 55000 88600 101000 118000 138000
2026-04-13 07:00 13.33 57900 185000 (1997) 33900 (1991) 70400 35200 37700 42300 45900 55000 88600 101000 118000 138000
2026-04-13 06:00 13.23 57200 185000 (1997) 33900 (1991) 70400 35200 37700 42300 45900 55000 88600 101000 118000 138000
2026-04-13 05:00 13.12 56500 185000 (1997) 33900 (1991) 70400 35200 37700 42300 45900 55000 88600 101000 118000 138000
2026-04-13 04:00 13.03 55900 185000 (1997) 33900 (1991) 70400 35200 37700 42300 45900 55000 88600 101000 118000 138000
2026-04-13 03:00 12.95 55400 185000 (1997) 33900 (1991) 70400 35200 37700 42300 45900 55000 88600 101000 118000 138000
2026-04-13 02:00 12.84 54600 185000 (1997) 33900 (1991) 70400 35200 37700 42300 45900 55000 88600 101000 118000 138000
2026-04-13 01:00 12.76 54100 185000 (1997) 33900 (1991) 70400 35200 37700 42300 45900 55000 88600 101000 118000 138000
2026-04-13 00:00 12.67 53500 185000 (1997) 33900 (1991) 70400 35200 37700 42300 45900 55000 88600 101000 118000 138000
2026-04-12 23:00 12.60 53100 185000 (1997) 33900 (1991) 70400 35200 37700 42300 45900 55000 88600 101000 118000 138000
2026-04-12 22:00 12.53 52600 203000 (1997) 32900 (1991) 70900 35900 37800 41200 43600 54600 91000 95200 124000 148000
2026-04-12 21:00 12.47 52200 203000 (1997) 32900 (1991) 70900 35900 37800 41200 43600 54600 91000 95200 124000 148000
2026-04-12 20:00 12.42 51900 203000 (1997) 32900 (1991) 70900 35900 37800 41200 43600 54600 91000 95200 124000 148000
2026-04-12 19:00 12.36 51500 203000 (1997) 32900 (1991) 70900 35900 37800 41200 43600 54600 91000 95200 124000 148000
2026-04-12 18:00 12.33 51300 203000 (1997) 32900 (1991) 70900 35900 37800 41200 43600 54600 91000 95200 124000 148000
2026-04-12 17:00 12.30 51100 203000 (1997) 32900 (1991) 70900 35900 37800 41200 43600 54600 91000 95200 124000 148000
2026-04-12 16:00 12.26 50900 203000 (1997) 32900 (1991) 70900 35900 37800 41200 43600 54600 91000 95200 124000 148000
2026-04-12 15:00 12.23 50700 203000 (1997) 32900 (1991) 70900 35900 37800 41200 43600 54600 91000 95200 124000 148000
2026-04-12 14:00 12.20 50500 203000 (1997) 32900 (1991) 70900 35900 37800 41200 43600 54600 91000 95200 124000 148000
2026-04-12 13:00 12.18 50400 203000 (1997) 32900 (1991) 70900 35900 37800 41200 43600 54600 91000 95200 124000 148000
2026-04-12 12:00 12.16 50300 203000 (1997) 32900 (1991) 70900 35900 37800 41200 43600 54600 91000 95200 124000 148000
2026-04-12 11:00 12.16 50300 203000 (1997) 32900 (1991) 70900 35900 37800 41200 43600 54600 91000 95200 124000 148000
2026-04-12 10:00 12.08 49800 203000 (1997) 32900 (1991) 70900 35900 37800 41200 43600 54600 91000 95200 124000 148000
2026-04-12 09:00 12.15 50200 203000 (1997) 32900 (1991) 70900 35900 37800 41200 43600 54600 91000 95200 124000 148000
2026-04-12 08:00 12.16 50300 203000 (1997) 32900 (1991) 70900 35900 37800 41200 43600 54600 91000 95200 124000 148000
2026-04-12 07:00 12.19 50500 203000 (1997) 32900 (1991) 70900 35900 37800 41200 43600 54600 91000 95200 124000 148000
2026-04-12 06:00 12.21 50600 203000 (1997) 32900 (1991) 70900 35900 37800 41200 43600 54600 91000 95200 124000 148000
2026-04-12 05:00 12.23 50700 203000 (1997) 32900 (1991) 70900 35900 37800 41200 43600 54600 91000 95200 124000 148000
2026-04-12 04:00 12.25 50800 203000 (1997) 32900 (1991) 70900 35900 37800 41200 43600 54600 91000 95200 124000 148000
2026-04-12 03:00 12.29 51100 203000 (1997) 32900 (1991) 70900 35900 37800 41200 43600 54600 91000 95200 124000 148000
2026-04-12 02:00 12.32 51300 203000 (1997) 32900 (1991) 70900 35900 37800 41200 43600 54600 91000 95200 124000 148000
2026-04-12 01:00 12.36 51500 203000 (1997) 32900 (1991) 70900 35900 37800 41200 43600 54600 91000 95200 124000 148000
2026-04-12 00:00 12.39 51700 203000 (1997) 32900 (1991) 70900 35900 37800 41200 43600 54600 91000 95200 124000 148000
2026-04-11 23:00 12.44 52000 203000 (1997) 32900 (1991) 70900 35900 37800 41200 43600 54600 91000 95200 124000 148000
2026-04-11 22:00 12.47 52200 188000 (1960) 32500 (1991) 71400 36100 37700 41300 43900 56600 93200 102000 131000 140000
2026-04-11 21:00 12.52 52500 188000 (1960) 32500 (1991) 71400 36100 37700 41300 43900 56600 93200 102000 131000 140000
2026-04-11 20:00 12.54 52700 188000 (1960) 32500 (1991) 71400 36100 37700 41300 43900 56600 93200 102000 131000 140000
2026-04-11 19:00 12.53 52600 188000 (1960) 32500 (1991) 71400 36100 37700 41300 43900 56600 93200 102000 131000 140000
2026-04-11 18:00 12.60 53100 188000 (1960) 32500 (1991) 71400 36100 37700 41300 43900 56600 93200 102000 131000 140000
2026-04-11 17:00 12.67 53500 188000 (1960) 32500 (1991) 71400 36100 37700 41300 43900 56600 93200 102000 131000 140000
2026-04-11 16:00 12.64 53300 188000 (1960) 32500 (1991) 71400 36100 37700 41300 43900 56600 93200 102000 131000 140000
2026-04-11 15:00 12.64 53300 188000 (1960) 32500 (1991) 71400 36100 37700 41300 43900 56600 93200 102000 131000 140000
2026-04-11 14:00 12.67 53500 188000 (1960) 32500 (1991) 71400 36100 37700 41300 43900 56600 93200 102000 131000 140000
2026-04-11 13:00 12.68 53600 188000 (1960) 32500 (1991) 71400 36100 37700 41300 43900 56600 93200 102000 131000 140000
2026-04-11 12:00 12.70 53700 188000 (1960) 32500 (1991) 71400 36100 37700 41300 43900 56600 93200 102000 131000 140000
2026-04-11 11:00 12.70 53700 188000 (1960) 32500 (1991) 71400 36100 37700 41300 43900 56600 93200 102000 131000 140000
2026-04-11 10:00 12.72 53800 188000 (1960) 32500 (1991) 71400 36100 37700 41300 43900 56600 93200 102000 131000 140000
2026-04-11 09:00 12.65 53400 188000 (1960) 32500 (1991) 71400 36100 37700 41300 43900 56600 93200 102000 131000 140000
2026-04-11 08:00 12.63 53300 188000 (1960) 32500 (1991) 71400 36100 37700 41300 43900 56600 93200 102000 131000 140000
2026-04-11 07:00 12.62 53200 188000 (1960) 32500 (1991) 71400 36100 37700 41300 43900 56600 93200 102000 131000 140000
2026-04-11 06:00 12.61 53100 188000 (1960) 32500 (1991) 71400 36100 37700 41300 43900 56600 93200 102000 131000 140000
2026-04-11 05:00 12.56 52800 188000 (1960) 32500 (1991) 71400 36100 37700 41300 43900 56600 93200 102000 131000 140000
2026-04-11 04:00 12.50 52400 188000 (1960) 32500 (1991) 71400 36100 37700 41300 43900 56600 93200 102000 131000 140000
2026-04-11 03:00 12.40 51800 188000 (1960) 32500 (1991) 71400 36100 37700 41300 43900 56600 93200 102000 131000 140000
2026-04-11 02:00 12.34 51400 188000 (1960) 32500 (1991) 71400 36100 37700 41300 43900 56600 93200 102000 131000 140000
2026-04-11 01:00 12.21 50600 188000 (1960) 32500 (1991) 71400 36100 37700 41300 43900 56600 93200 102000 131000 140000
2026-04-11 00:00 12.14 50100 188000 (1960) 32500 (1991) 71400 36100 37700 41300 43900 56600 93200 102000 131000 140000
2026-04-10 23:00 12.01 49300 188000 (1960) 32500 (1991) 71400 36100 37700 41300 43900 56600 93200 102000 131000 140000
2026-04-10 22:00 11.90 48700 205000 (1960) 32100 (1991) 70000 36500 37700 41100 42200 54700 93800 100000 126000 140000
2026-04-10 21:00 11.78 48000 205000 (1960) 32100 (1991) 70000 36500 37700 41100 42200 54700 93800 100000 126000 140000
2026-04-10 20:00 11.60 46900 205000 (1960) 32100 (1991) 70000 36500 37700 41100 42200 54700 93800 100000 126000 140000
2026-04-10 19:00 11.48 46200 205000 (1960) 32100 (1991) 70000 36500 37700 41100 42200 54700 93800 100000 126000 140000
2026-04-10 18:00 11.38 45600 205000 (1960) 32100 (1991) 70000 36500 37700 41100 42200 54700 93800 100000 126000 140000
2026-04-10 17:00 11.32 45300 205000 (1960) 32100 (1991) 70000 36500 37700 41100 42200 54700 93800 100000 126000 140000
2026-04-10 16:00 11.24 44800 205000 (1960) 32100 (1991) 70000 36500 37700 41100 42200 54700 93800 100000 126000 140000
2026-04-10 15:00 11.25 44900 205000 (1960) 32100 (1991) 70000 36500 37700 41100 42200 54700 93800 100000 126000 140000
2026-04-10 14:00 11.19 44500 205000 (1960) 32100 (1991) 70000 36500 37700 41100 42200 54700 93800 100000 126000 140000
2026-04-10 13:00 11.12 44100 205000 (1960) 32100 (1991) 70000 36500 37700 41100 42200 54700 93800 100000 126000 140000
2026-04-10 12:00 11.10 44000 205000 (1960) 32100 (1991) 70000 36500 37700 41100 42200 54700 93800 100000 126000 140000
2026-04-10 11:00 11.12 44100 205000 (1960) 32100 (1991) 70000 36500 37700 41100 42200 54700 93800 100000 126000 140000
2026-04-10 10:00 11.10 44000 205000 (1960) 32100 (1991) 70000 36500 37700 41100 42200 54700 93800 100000 126000 140000
2026-04-10 09:00 11.11 44100 205000 (1960) 32100 (1991) 70000 36500 37700 41100 42200 54700 93800 100000 126000 140000
2026-04-10 08:00 11.11 44100 205000 (1960) 32100 (1991) 70000 36500 37700 41100 42200 54700 93800 100000 126000 140000
2026-04-10 07:00 11.11 44100 205000 (1960) 32100 (1991) 70000 36500 37700 41100 42200 54700 93800 100000 126000 140000
2026-04-10 06:00 11.10 44000 205000 (1960) 32100 (1991) 70000 36500 37700 41100 42200 54700 93800 100000 126000 140000
2026-04-10 05:00 11.09 44000 205000 (1960) 32100 (1991) 70000 36500 37700 41100 42200 54700 93800 100000 126000 140000
2026-04-10 04:00 11.07 43800 205000 (1960) 32100 (1991) 70000 36500 37700 41100 42200 54700 93800 100000 126000 140000
2026-04-10 03:00 11.08 43900 205000 (1960) 32100 (1991) 70000 36500 37700 41100 42200 54700 93800 100000 126000 140000
2026-04-10 02:00 11.09 44000 205000 (1960) 32100 (1991) 70000 36500 37700 41100 42200 54700 93800 100000 126000 140000
2026-04-10 01:00 11.05 43700 205000 (1960) 32100 (1991) 70000 36500 37700 41100 42200 54700 93800 100000 126000 140000
2026-04-10 00:00 11.08 43900 205000 (1960) 32100 (1991) 70000 36500 37700 41100 42200 54700 93800 100000 126000 140000
2026-04-09 23:00 11.08 43900 205000 (1960) 32100 (1991) 70000 36500 37700 41100 42200 54700 93800 100000 126000 140000
2026-04-09 22:00 11.09 44000 213000 (1960) 32000 (1991) 69700 36600 37800 41400 42800 54600 95700 103000 123000 144000
2026-04-09 21:00 11.09 44000 213000 (1960) 32000 (1991) 69700 36600 37800 41400 42800 54600 95700 103000 123000 144000
2026-04-09 20:00 11.08 43900 213000 (1960) 32000 (1991) 69700 36600 37800 41400 42800 54600 95700 103000 123000 144000
2026-04-09 19:00 11.08 43900 213000 (1960) 32000 (1991) 69700 36600 37800 41400 42800 54600 95700 103000 123000 144000
2026-04-09 18:00 11.09 44000 213000 (1960) 32000 (1991) 69700 36600 37800 41400 42800 54600 95700 103000 123000 144000
2026-04-09 17:00 11.11 44100 213000 (1960) 32000 (1991) 69700 36600 37800 41400 42800 54600 95700 103000 123000 144000
2026-04-09 16:00 11.14 44200 213000 (1960) 32000 (1991) 69700 36600 37800 41400 42800 54600 95700 103000 123000 144000
2026-04-09 15:00 11.15 44300 213000 (1960) 32000 (1991) 69700 36600 37800 41400 42800 54600 95700 103000 123000 144000
2026-04-09 14:00 11.13 44200 213000 (1960) 32000 (1991) 69700 36600 37800 41400 42800 54600 95700 103000 123000 144000
2026-04-09 13:00 11.17 44400 213000 (1960) 32000 (1991) 69700 36600 37800 41400 42800 54600 95700 103000 123000 144000
2026-04-09 12:00 11.17 44400 213000 (1960) 32000 (1991) 69700 36600 37800 41400 42800 54600 95700 103000 123000 144000
2026-04-09 11:00 11.18 44500 213000 (1960) 32000 (1991) 69700 36600 37800 41400 42800 54600 95700 103000 123000 144000
2026-04-09 10:00 11.20 44600 213000 (1960) 32000 (1991) 69700 36600 37800 41400 42800 54600 95700 103000 123000 144000
2026-04-09 09:00 11.20 44600 213000 (1960) 32000 (1991) 69700 36600 37800 41400 42800 54600 95700 103000 123000 144000
2026-04-09 08:00 11.21 44600 213000 (1960) 32000 (1991) 69700 36600 37800 41400 42800 54600 95700 103000 123000 144000
2026-04-09 07:00 11.20 44600 213000 (1960) 32000 (1991) 69700 36600 37800 41400 42800 54600 95700 103000 123000 144000
2026-04-09 06:00 11.21 44600 213000 (1960) 32000 (1991) 69700 36600 37800 41400 42800 54600 95700 103000 123000 144000
2026-04-09 05:00 11.24 44800 213000 (1960) 32000 (1991) 69700 36600 37800 41400 42800 54600 95700 103000 123000 144000
2026-04-09 04:00 11.25 44900 213000 (1960) 32000 (1991) 69700 36600 37800 41400 42800 54600 95700 103000 123000 144000
2026-04-09 03:00 11.25 44900 213000 (1960) 32000 (1991) 69700 36600 37800 41400 42800 54600 95700 103000 123000 144000
2026-04-09 02:00 11.25 44900 213000 (1960) 32000 (1991) 69700 36600 37800 41400 42800 54600 95700 103000 123000 144000
2026-04-09 01:00 11.24 44800 213000 (1960) 32000 (1991) 69700 36600 37800 41400 42800 54600 95700 103000 123000 144000
2026-04-09 00:00 11.24 44800 213000 (1960) 32000 (1991) 69700 36600 37800 41400 42800 54600 95700 103000 123000 144000
2026-04-08 23:00 11.23 44700 213000 (1960) 32000 (1991) 69700 36600 37800 41400 42800 54600 95700 103000 123000 144000
2026-04-08 22:00 11.24 44800 220000 (1960) 31500 (1991) 70400 37600 38300 41000 42700 52900 98700 105000 126000 150000
2026-04-08 21:00 11.23 44700 220000 (1960) 31500 (1991) 70400 37600 38300 41000 42700 52900 98700 105000 126000 150000
2026-04-08 20:00 11.23 44700 220000 (1960) 31500 (1991) 70400 37600 38300 41000 42700 52900 98700 105000 126000 150000
2026-04-08 19:00 11.23 44700 220000 (1960) 31500 (1991) 70400 37600 38300 41000 42700 52900 98700 105000 126000 150000
2026-04-08 18:00 11.18 44500 220000 (1960) 31500 (1991) 70400 37600 38300 41000 42700 52900 98700 105000 126000 150000
2026-04-08 17:00 11.18 44500 220000 (1960) 31500 (1991) 70400 37600 38300 41000 42700 52900 98700 105000 126000 150000
2026-04-08 16:00 11.14 44200 220000 (1960) 31500 (1991) 70400 37600 38300 41000 42700 52900 98700 105000 126000 150000
2026-04-08 15:00 11.15 44300 220000 (1960) 31500 (1991) 70400 37600 38300 41000 42700 52900 98700 105000 126000 150000
2026-04-08 14:00 11.13 44200 220000 (1960) 31500 (1991) 70400 37600 38300 41000 42700 52900 98700 105000 126000 150000
2026-04-08 13:00 11.09 44000 220000 (1960) 31500 (1991) 70400 37600 38300 41000 42700 52900 98700 105000 126000 150000
2026-04-08 12:00 11.11 44100 220000 (1960) 31500 (1991) 70400 37600 38300 41000 42700 52900 98700 105000 126000 150000
2026-04-08 11:00 11.12 44100 220000 (1960) 31500 (1991) 70400 37600 38300 41000 42700 52900 98700 105000 126000 150000
2026-04-08 10:00 11.16 44400 220000 (1960) 31500 (1991) 70400 37600 38300 41000 42700 52900 98700 105000 126000 150000
2026-04-08 09:00 11.17 44400 220000 (1960) 31500 (1991) 70400 37600 38300 41000 42700 52900 98700 105000 126000 150000
2026-04-08 08:00 11.16 44400 220000 (1960) 31500 (1991) 70400 37600 38300 41000 42700 52900 98700 105000 126000 150000
2026-04-08 07:00 11.15 44300 220000 (1960) 31500 (1991) 70400 37600 38300 41000 42700 52900 98700 105000 126000 150000
2026-04-08 06:00 11.13 44200 220000 (1960) 31500 (1991) 70400 37600 38300 41000 42700 52900 98700 105000 126000 150000
2026-04-08 05:00 11.12 44100 220000 (1960) 31500 (1991) 70400 37600 38300 41000 42700 52900 98700 105000 126000 150000
2026-04-08 04:00 11.07 43800 220000 (1960) 31500 (1991) 70400 37600 38300 41000 42700 52900 98700 105000 126000 150000
2026-04-08 03:00 11.09 44000 220000 (1960) 31500 (1991) 70400 37600 38300 41000 42700 52900 98700 105000 126000 150000
2026-04-08 02:00 11.08 43900 220000 (1960) 31500 (1991) 70400 37600 38300 41000 42700 52900 98700 105000 126000 150000
2026-04-08 01:00 11.06 43800 220000 (1960) 31500 (1991) 70400 37600 38300 41000 42700 52900 98700 105000 126000 150000
2026-04-08 00:00 11.04 43700 220000 (1960) 31500 (1991) 70400 37600 38300 41000 42700 52900 98700 105000 126000 150000
2026-04-07 23:00 10.98 43300 220000 (1960) 31500 (1991) 70400 37600 38300 41000 42700 52900 98700 105000 126000 150000
2026-04-07 22:00 11.01 43500 227000 (1960) 31700 (1991) 72500 37100 38700 41500 43600 53300 101000 111000 133000 153000
2026-04-07 21:00 11.03 43600 227000 (1960) 31700 (1991) 72500 37100 38700 41500 43600 53300 101000 111000 133000 153000
2026-04-07 20:00 10.98 43300 227000 (1960) 31700 (1991) 72500 37100 38700 41500 43600 53300 101000 111000 133000 153000
2026-04-07 19:00 10.95 43200 227000 (1960) 31700 (1991) 72500 37100 38700 41500 43600 53300 101000 111000 133000 153000
2026-04-07 18:00 10.94 43100 227000 (1960) 31700 (1991) 72500 37100 38700 41500 43600 53300 101000 111000 133000 153000
2026-04-07 17:00 10.92 43000 227000 (1960) 31700 (1991) 72500 37100 38700 41500 43600 53300 101000 111000 133000 153000
2026-04-07 16:00 10.90 42900 227000 (1960) 31700 (1991) 72500 37100 38700 41500 43600 53300 101000 111000 133000 153000
2026-04-07 15:00 10.88 42800 227000 (1960) 31700 (1991) 72500 37100 38700 41500 43600 53300 101000 111000 133000 153000
2026-04-07 14:00 10.90 42900 227000 (1960) 31700 (1991) 72500 37100 38700 41500 43600 53300 101000 111000 133000 153000
2026-04-07 13:00 10.90 42900 227000 (1960) 31700 (1991) 72500 37100 38700 41500 43600 53300 101000 111000 133000 153000
2026-04-07 12:00 10.90 42900 227000 (1960) 31700 (1991) 72500 37100 38700 41500 43600 53300 101000 111000 133000 153000
2026-04-07 11:00 10.84 42600 227000 (1960) 31700 (1991) 72500 37100 38700 41500 43600 53300 101000 111000 133000 153000
2026-04-07 10:00 10.87 42700 227000 (1960) 31700 (1991) 72500 37100 38700 41500 43600 53300 101000 111000 133000 153000
2026-04-07 09:00 10.87 42700 227000 (1960) 31700 (1991) 72500 37100 38700 41500 43600 53300 101000 111000 133000 153000
2026-04-07 08:00 10.87 42700 227000 (1960) 31700 (1991) 72500 37100 38700 41500 43600 53300 101000 111000 133000 153000
2026-04-07 07:00 10.85 42600 227000 (1960) 31700 (1991) 72500 37100 38700 41500 43600 53300 101000 111000 133000 153000
2026-04-07 06:00 10.88 42800 227000 (1960) 31700 (1991) 72500 37100 38700 41500 43600 53300 101000 111000 133000 153000
2026-04-07 05:00 10.86 42700 227000 (1960) 31700 (1991) 72500 37100 38700 41500 43600 53300 101000 111000 133000 153000
2026-04-07 04:00 10.86 42700 227000 (1960) 31700 (1991) 72500 37100 38700 41500 43600 53300 101000 111000 133000 153000
2026-04-07 03:00 10.85 42600 227000 (1960) 31700 (1991) 72500 37100 38700 41500 43600 53300 101000 111000 133000 153000
2026-04-07 02:00 10.89 42800 227000 (1960) 31700 (1991) 72500 37100 38700 41500 43600 53300 101000 111000 133000 153000
2026-04-07 01:00 10.91 43000 227000 (1960) 31700 (1991) 72500 37100 38700 41500 43600 53300 101000 111000 133000 153000
2026-04-07 00:00 10.90 42900 227000 (1960) 31700 (1991) 72500 37100 38700 41500 43600 53300 101000 111000 133000 153000
2026-04-06 23:00 10.91 43000 227000 (1960) 31700 (1991) 72500 37100 38700 41500 43600 53300 101000 111000 133000 153000
2026-04-06 22:00 10.89 42800 234000 (1960) 32500 (1991) 74200 36700 39600 43000 44200 54900 101000 115000 140000 161000
2026-04-06 21:00 10.92 43000 234000 (1960) 32500 (1991) 74200 36700 39600 43000 44200 54900 101000 115000 140000 161000
2026-04-06 20:00 10.96 43200 234000 (1960) 32500 (1991) 74200 36700 39600 43000 44200 54900 101000 115000 140000 161000
2026-04-06 19:00 10.96 43200 234000 (1960) 32500 (1991) 74200 36700 39600 43000 44200 54900 101000 115000 140000 161000
2026-04-06 18:00 10.97 43300 234000 (1960) 32500 (1991) 74200 36700 39600 43000 44200 54900 101000 115000 140000 161000
2026-04-06 17:00 10.93 43100 234000 (1960) 32500 (1991) 74200 36700 39600 43000 44200 54900 101000 115000 140000 161000
2026-04-06 16:00 10.96 43200 234000 (1960) 32500 (1991) 74200 36700 39600 43000 44200 54900 101000 115000 140000 161000
2026-04-06 15:00 10.97 43300 234000 (1960) 32500 (1991) 74200 36700 39600 43000 44200 54900 101000 115000 140000 161000
2026-04-06 14:00 10.89 42800 234000 (1960) 32500 (1991) 74200 36700 39600 43000 44200 54900 101000 115000 140000 161000
2026-04-06 13:00 10.91 43000 234000 (1960) 32500 (1991) 74200 36700 39600 43000 44200 54900 101000 115000 140000 161000
2026-04-06 12:00 10.92 43000 234000 (1960) 32500 (1991) 74200 36700 39600 43000 44200 54900 101000 115000 140000 161000
2026-04-06 11:00 10.88 42800 234000 (1960) 32500 (1991) 74200 36700 39600 43000 44200 54900 101000 115000 140000 161000
2026-04-06 10:00 10.91 43000 234000 (1960) 32500 (1991) 74200 36700 39600 43000 44200 54900 101000 115000 140000 161000
2026-04-06 09:00 10.92 43000 234000 (1960) 32500 (1991) 74200 36700 39600 43000 44200 54900 101000 115000 140000 161000
2026-04-06 08:00 10.91 43000 234000 (1960) 32500 (1991) 74200 36700 39600 43000 44200 54900 101000 115000 140000 161000
2026-04-06 07:00 10.90 42900 234000 (1960) 32500 (1991) 74200 36700 39600 43000 44200 54900 101000 115000 140000 161000
2026-04-06 06:00 10.89 42800 234000 (1960) 32500 (1991) 74200 36700 39600 43000 44200 54900 101000 115000 140000 161000
2026-04-06 05:00 10.89 42800 234000 (1960) 32500 (1991) 74200 36700 39600 43000 44200 54900 101000 115000 140000 161000
2026-04-06 04:00 10.88 42800 234000 (1960) 32500 (1991) 74200 36700 39600 43000 44200 54900 101000 115000 140000 161000
2026-04-06 03:00 10.87 42700 234000 (1960) 32500 (1991) 74200 36700 39600 43000 44200 54900 101000 115000 140000 161000
2026-04-06 02:00 10.86 42700 234000 (1960) 32500 (1991) 74200 36700 39600 43000 44200 54900 101000 115000 140000 161000
2026-04-06 01:00 10.85 42600 234000 (1960) 32500 (1991) 74200 36700 39600 43000 44200 54900 101000 115000 140000 161000
2026-04-06 00:00 10.84 42600 234000 (1960) 32500 (1991) 74200 36700 39600 43000 44200 54900 101000 115000 140000 161000
2026-04-05 23:00 10.83 42500 234000 (1960) 32500 (1991) 74200 36700 39600 43000 44200 54900 101000 115000 140000 161000
2026-04-05 22:00 10.82 42500 239000 (1960) 33500 (2003) 75100 35500 40500 44000 45900 55600 97200 112000 142000 169000
2026-04-05 21:00 10.83 42500 239000 (1960) 33500 (2003) 75100 35500 40500 44000 45900 55600 97200 112000 142000 169000
2026-04-05 20:00 10.82 42500 239000 (1960) 33500 (2003) 75100 35500 40500 44000 45900 55600 97200 112000 142000 169000
2026-04-05 19:00 10.80 42400 239000 (1960) 33500 (2003) 75100 35500 40500 44000 45900 55600 97200 112000 142000 169000
2026-04-05 18:00 10.78 42200 239000 (1960) 33500 (2003) 75100 35500 40500 44000 45900 55600 97200 112000 142000 169000
2026-04-05 17:00 10.81 42400 239000 (1960) 33500 (2003) 75100 35500 40500 44000 45900 55600 97200 112000 142000 169000
2026-04-05 16:00 10.79 42300 239000 (1960) 33500 (2003) 75100 35500 40500 44000 45900 55600 97200 112000 142000 169000
2026-04-05 15:00 10.72 41900 239000 (1960) 33500 (2003) 75100 35500 40500 44000 45900 55600 97200 112000 142000 169000
2026-04-05 14:00 10.73 42000 239000 (1960) 33500 (2003) 75100 35500 40500 44000 45900 55600 97200 112000 142000 169000
2026-04-05 13:00 10.75 42100 239000 (1960) 33500 (2003) 75100 35500 40500 44000 45900 55600 97200 112000 142000 169000
2026-04-05 12:00 10.73 42000 239000 (1960) 33500 (2003) 75100 35500 40500 44000 45900 55600 97200 112000 142000 169000
2026-04-05 11:00 10.72 41900 239000 (1960) 33500 (2003) 75100 35500 40500 44000 45900 55600 97200 112000 142000 169000
2026-04-05 10:00 10.71 41900 239000 (1960) 33500 (2003) 75100 35500 40500 44000 45900 55600 97200 112000 142000 169000
2026-04-05 09:00 10.68 41700 239000 (1960) 33500 (2003) 75100 35500 40500 44000 45900 55600 97200 112000 142000 169000
2026-04-05 08:00 10.68 41700 239000 (1960) 33500 (2003) 75100 35500 40500 44000 45900 55600 97200 112000 142000 169000
2026-04-05 07:00 10.58 41200 239000 (1960) 33500 (2003) 75100 35500 40500 44000 45900 55600 97200 112000 142000 169000
2026-04-05 06:00 10.63 41400 239000 (1960) 33500 (2003) 75100 35500 40500 44000 45900 55600 97200 112000 142000 169000
2026-04-05 05:00 10.61 41300 239000 (1960) 33500 (2003) 75100 35500 40500 44000 45900 55600 97200 112000 142000 169000
2026-04-05 04:00 10.61 41300 239000 (1960) 33500 (2003) 75100 35500 40500 44000 45900 55600 97200 112000 142000 169000
2026-04-05 03:00 10.57 41100 239000 (1960) 33500 (2003) 75100 35500 40500 44000 45900 55600 97200 112000 142000 169000
2026-04-05 02:00 10.60 41300 239000 (1960) 33500 (2003) 75100 35500 40500 44000 45900 55600 97200 112000 142000 169000
2026-04-05 01:00 10.57 41100 239000 (1960) 33500 (2003) 75100 35500 40500 44000 45900 55600 97200 112000 142000 169000
2026-04-05 00:00 10.55 41000 239000 (1960) 33500 (2003) 75100 35500 40500 44000 45900 55600 97200 112000 142000 169000
2026-04-04 23:00 10.53 40900 239000 (1960) 33500 (2003) 75100 35500 40500 44000 45900 55600 97200 112000 142000 169000
2026-04-04 22:00 10.51 40800 241000 (1960) 32100 (1964) 74500 34500 39200 45000 46300 56000 85500 100000 141000 176000
2026-04-04 21:00 10.50 40700 241000 (1960) 32100 (1964) 74500 34500 39200 45000 46300 56000 85500 100000 141000 176000
2026-04-04 20:00 10.48 40600 241000 (1960) 32100 (1964) 74500 34500 39200 45000 46300 56000 85500 100000 141000 176000
2026-04-04 19:00 10.55 41000 241000 (1960) 32100 (1964) 74500 34500 39200 45000 46300 56000 85500 100000 141000 176000
2026-04-04 18:00 10.45 40500 241000 (1960) 32100 (1964) 74500 34500 39200 45000 46300 56000 85500 100000 141000 176000
2026-04-04 17:00 10.45 40500 241000 (1960) 32100 (1964) 74500 34500 39200 45000 46300 56000 85500 100000 141000 176000
2026-04-04 16:00 10.45 40500 241000 (1960) 32100 (1964) 74500 34500 39200 45000 46300 56000 85500 100000 141000 176000
2026-04-04 15:00 10.43 40400 241000 (1960) 32100 (1964) 74500 34500 39200 45000 46300 56000 85500 100000 141000 176000
2026-04-04 14:00 10.42 40300 241000 (1960) 32100 (1964) 74500 34500 39200 45000 46300 56000 85500 100000 141000 176000
2026-04-04 13:00 10.44 40400 241000 (1960) 32100 (1964) 74500 34500 39200 45000 46300 56000 85500 100000 141000 176000
2026-04-04 12:00 10.45 40500 241000 (1960) 32100 (1964) 74500 34500 39200 45000 46300 56000 85500 100000 141000 176000
2026-04-04 11:00 10.46 40500 241000 (1960) 32100 (1964) 74500 34500 39200 45000 46300 56000 85500 100000 141000 176000
2026-04-04 10:00 10.47 40600 241000 (1960) 32100 (1964) 74500 34500 39200 45000 46300 56000 85500 100000 141000 176000
2026-04-04 09:00 10.49 40700 241000 (1960) 32100 (1964) 74500 34500 39200 45000 46300 56000 85500 100000 141000 176000
2026-04-04 08:00 10.50 40700 241000 (1960) 32100 (1964) 74500 34500 39200 45000 46300 56000 85500 100000 141000 176000
2026-04-04 07:00 10.55 41000 241000 (1960) 32100 (1964) 74500 34500 39200 45000 46300 56000 85500 100000 141000 176000
2026-04-04 06:00 10.60 41300 241000 (1960) 32100 (1964) 74500 34500 39200 45000 46300 56000 85500 100000 141000 176000
2026-04-04 05:00 10.62 41400 241000 (1960) 32100 (1964) 74500 34500 39200 45000 46300 56000 85500 100000 141000 176000
2026-04-04 04:00 10.65 41500 241000 (1960) 32100 (1964) 74500 34500 39200 45000 46300 56000 85500 100000 141000 176000
2026-04-04 03:00 10.66 41600 241000 (1960) 32100 (1964) 74500 34500 39200 45000 46300 56000 85500 100000 141000 176000
2026-04-04 02:00 10.69 41800 241000 (1960) 32100 (1964) 74500 34500 39200 45000 46300 56000 85500 100000 141000 176000
2026-04-04 01:00 10.71 41900 241000 (1960) 32100 (1964) 74500 34500 39200 45000 46300 56000 85500 100000 141000 176000
2026-04-04 00:00 10.71 41900 241000 (1960) 32100 (1964) 74500 34500 39200 45000 46300 56000 85500 100000 141000 176000
2026-04-03 23:00 10.69 41800 241000 (1960) 32100 (1964) 74500 34500 39200 45000 46300 56000 85500 100000 141000 176000
2026-04-03 22:00 10.73 42000 240000 (1960) 31800 (1964) 74100 34300 38400 42700 45500 55800 85100 99100 141000 202000
2026-04-03 21:00 10.81 42400 240000 (1960) 31800 (1964) 74100 34300 38400 42700 45500 55800 85100 99100 141000 202000
2026-04-03 20:00 10.85 42600 240000 (1960) 31800 (1964) 74100 34300 38400 42700 45500 55800 85100 99100 141000 202000
2026-04-03 19:00 10.86 42700 240000 (1960) 31800 (1964) 74100 34300 38400 42700 45500 55800 85100 99100 141000 202000
2026-04-03 18:00 10.92 43000 240000 (1960) 31800 (1964) 74100 34300 38400 42700 45500 55800 85100 99100 141000 202000
2026-04-03 17:00 10.97 43300 240000 (1960) 31800 (1964) 74100 34300 38400 42700 45500 55800 85100 99100 141000 202000
2026-04-03 16:00 11.02 43600 240000 (1960) 31800 (1964) 74100 34300 38400 42700 45500 55800 85100 99100 141000 202000
2026-04-03 15:00 11.01 43500 240000 (1960) 31800 (1964) 74100 34300 38400 42700 45500 55800 85100 99100 141000 202000
2026-04-03 14:00 11.08 43900 240000 (1960) 31800 (1964) 74100 34300 38400 42700 45500 55800 85100 99100 141000 202000
2026-04-03 13:00 11.18 44500 240000 (1960) 31800 (1964) 74100 34300 38400 42700 45500 55800 85100 99100 141000 202000
2026-04-03 12:00 11.22 44700 240000 (1960) 31800 (1964) 74100 34300 38400 42700 45500 55800 85100 99100 141000 202000
2026-04-03 11:00 11.25 44900 240000 (1960) 31800 (1964) 74100 34300 38400 42700 45500 55800 85100 99100 141000 202000
2026-04-03 10:00 11.30 45100 240000 (1960) 31800 (1964) 74100 34300 38400 42700 45500 55800 85100 99100 141000 202000
2026-04-03 09:00 11.36 45500 240000 (1960) 31800 (1964) 74100 34300 38400 42700 45500 55800 85100 99100 141000 202000
2026-04-03 08:00 11.42 45800 240000 (1960) 31800 (1964) 74100 34300 38400 42700 45500 55800 85100 99100 141000 202000
2026-04-03 07:00 11.43 45900 240000 (1960) 31800 (1964) 74100 34300 38400 42700 45500 55800 85100 99100 141000 202000
2026-04-03 06:00 11.46 46100 240000 (1960) 31800 (1964) 74100 34300 38400 42700 45500 55800 85100 99100 141000 202000
2026-04-03 05:00 11.52 46400 240000 (1960) 31800 (1964) 74100 34300 38400 42700 45500 55800 85100 99100 141000 202000
2026-04-03 04:00 11.57 46700 240000 (1960) 31800 (1964) 74100 34300 38400 42700 45500 55800 85100 99100 141000 202000
2026-04-03 03:00 11.59 46800 240000 (1960) 31800 (1964) 74100 34300 38400 42700 45500 55800 85100 99100 141000 202000
2026-04-03 02:00 11.62 47000 240000 (1960) 31800 (1964) 74100 34300 38400 42700 45500 55800 85100 99100 141000 202000
2026-04-03 01:00 11.64 47100 240000 (1960) 31800 (1964) 74100 34300 38400 42700 45500 55800 85100 99100 141000 202000
2026-04-03 00:00 11.64 47100 240000 (1960) 31800 (1964) 74100 34300 38400 42700 45500 55800 85100 99100 141000 202000
2026-04-02 23:00 11.63 47100 240000 (1960) 31800 (1964) 74100 34300 38400 42700 45500 55800 85100 99100 141000 202000
2026-04-02 22:00 11.60 46900 237000 (1960) 30400 (1991) 74100 34400 36000 41600 45800 56100 81800 96900 143000 201000
2026-04-02 21:00 11.57 46700 237000 (1960) 30400 (1991) 74100 34400 36000 41600 45800 56100 81800 96900 143000 201000
2026-04-02 20:00 11.52 46400 237000 (1960) 30400 (1991) 74100 34400 36000 41600 45800 56100 81800 96900 143000 201000
2026-04-02 19:00 11.39 45700 237000 (1960) 30400 (1991) 74100 34400 36000 41600 45800 56100 81800 96900 143000 201000
2026-04-02 18:00 11.30 45100 237000 (1960) 30400 (1991) 74100 34400 36000 41600 45800 56100 81800 96900 143000 201000
2026-04-02 17:00 11.25 44900 237000 (1960) 30400 (1991) 74100 34400 36000 41600 45800 56100 81800 96900 143000 201000
2026-04-02 16:00 11.14 44200 237000 (1960) 30400 (1991) 74100 34400 36000 41600 45800 56100 81800 96900 143000 201000
2026-04-02 15:00 11.06 43800 237000 (1960) 30400 (1991) 74100 34400 36000 41600 45800 56100 81800 96900 143000 201000
2026-04-02 14:00 10.97 43300 237000 (1960) 30400 (1991) 74100 34400 36000 41600 45800 56100 81800 96900 143000 201000
2026-04-02 13:00 10.88 42800 237000 (1960) 30400 (1991) 74100 34400 36000 41600 45800 56100 81800 96900 143000 201000
2026-04-02 12:00 10.77 42200 237000 (1960) 30400 (1991) 74100 34400 36000 41600 45800 56100 81800 96900 143000 201000
2026-04-02 11:00 10.63 41400 237000 (1960) 30400 (1991) 74100 34400 36000 41600 45800 56100 81800 96900 143000 201000
2026-04-02 09:00 10.50 40700 237000 (1960) 30400 (1991) 74100 34400 36000 41600 45800 56100 81800 96900 143000 201000
2026-04-02 08:00 10.33 39800 237000 (1960) 30400 (1991) 74100 34400 36000 41600 45800 56100 81800 96900 143000 201000
2026-04-02 07:00 10.24 39400 237000 (1960) 30400 (1991) 74100 34400 36000 41600 45800 56100 81800 96900 143000 201000
2026-04-02 06:00 10.20 39200 237000 (1960) 30400 (1991) 74100 34400 36000 41600 45800 56100 81800 96900 143000 201000
2026-04-02 05:00 10.09 38600 237000 (1960) 30400 (1991) 74100 34400 36000 41600 45800 56100 81800 96900 143000 201000
2026-04-02 04:00 10.04 38400 237000 (1960) 30400 (1991) 74100 34400 36000 41600 45800 56100 81800 96900 143000 201000
2026-04-02 03:00 10.01 38200 237000 (1960) 30400 (1991) 74100 34400 36000 41600 45800 56100 81800 96900 143000 201000
2026-04-02 02:00 9.98 38100 237000 (1960) 30400 (1991) 74100 34400 36000 41600 45800 56100 81800 96900 143000 201000
2026-04-02 01:00 9.88 37600 237000 (1960) 30400 (1991) 74100 34400 36000 41600 45800 56100 81800 96900 143000 201000
2026-04-02 00:00 9.81 37200 237000 (1960) 30400 (1991) 74100 34400 36000 41600 45800 56100 81800 96900 143000 201000
2026-04-01 23:00 9.76 37000 237000 (1960) 30400 (1991) 74100 34400 36000 41600 45800 56100 81800 96900 143000 201000
2026-04-01 22:00 9.72 36800 244000 (1960) 27500 (1991) 73200 32200 36000 41100 44600 56100 82700 104000 147000 182000
2026-04-01 21:00 9.72 36800 244000 (1960) 27500 (1991) 73200 32200 36000 41100 44600 56100 82700 104000 147000 182000
2026-04-01 20:00 9.68 36600 244000 (1960) 27500 (1991) 73200 32200 36000 41100 44600 56100 82700 104000 147000 182000
2026-04-01 19:00 9.71 36700 244000 (1960) 27500 (1991) 73200 32200 36000 41100 44600 56100 82700 104000 147000 182000
2026-04-01 18:00 9.70 36700 244000 (1960) 27500 (1991) 73200 32200 36000 41100 44600 56100 82700 104000 147000 182000
2026-04-01 17:00 9.70 36700 244000 (1960) 27500 (1991) 73200 32200 36000 41100 44600 56100 82700 104000 147000 182000
2026-04-01 16:00 9.70 36700 244000 (1960) 27500 (1991) 73200 32200 36000 41100 44600 56100 82700 104000 147000 182000
2026-04-01 15:00 9.69 36600 244000 (1960) 27500 (1991) 73200 32200 36000 41100 44600 56100 82700 104000 147000 182000
2026-04-01 14:00 9.71 36700 244000 (1960) 27500 (1991) 73200 32200 36000 41100 44600 56100 82700 104000 147000 182000
2026-04-01 13:00 9.74 36900 244000 (1960) 27500 (1991) 73200 32200 36000 41100 44600 56100 82700 104000 147000 182000
2026-04-01 12:00 9.75 36900 244000 (1960) 27500 (1991) 73200 32200 36000 41100 44600 56100 82700 104000 147000 182000
2026-04-01 11:00 9.73 36800 244000 (1960) 27500 (1991) 73200 32200 36000 41100 44600 56100 82700 104000 147000 182000
2026-04-01 10:00 9.76 37000 244000 (1960) 27500 (1991) 73200 32200 36000 41100 44600 56100 82700 104000 147000 182000
2026-04-01 09:00 9.75 36900 244000 (1960) 27500 (1991) 73200 32200 36000 41100 44600 56100 82700 104000 147000 182000
2026-04-01 08:00 9.77 37000 244000 (1960) 27500 (1991) 73200 32200 36000 41100 44600 56100 82700 104000 147000 182000
2026-04-01 07:00 9.72 36800 244000 (1960) 27500 (1991) 73200 32200 36000 41100 44600 56100 82700 104000 147000 182000
2026-04-01 06:00 9.73 36800 244000 (1960) 27500 (1991) 73200 32200 36000 41100 44600 56100 82700 104000 147000 182000
2026-04-01 05:00 9.73 36800 244000 (1960) 27500 (1991) 73200 32200 36000 41100 44600 56100 82700 104000 147000 182000
2026-04-01 04:00 9.76 37000 244000 (1960) 27500 (1991) 73200 32200 36000 41100 44600 56100 82700 104000 147000 182000
2026-04-01 03:00 9.82 37300 244000 (1960) 27500 (1991) 73200 32200 36000 41100 44600 56100 82700 104000 147000 182000
2026-04-01 02:00 9.82 37300 244000 (1960) 27500 (1991) 73200 32200 36000 41100 44600 56100 82700 104000 147000 182000
2026-04-01 01:00 9.83 37300 244000 (1960) 27500 (1991) 73200 32200 36000 41100 44600 56100 82700 104000 147000 182000
2026-04-01 00:00 9.79 37100 244000 (1960) 27500 (1991) 73200 32200 36000 41100 44600 56100 82700 104000 147000 182000
2026-03-31 23:00 9.79 37100 244000 (1960) 27500 (1991) 73200 32200 36000 41100 44600 56100 82700 104000 147000 182000
2026-03-31 22:00 9.84 37400 246000 (1960) 26900 (1989) 71500 32200 35600 40600 41900 57200 83500 100000 142000 155000
2026-03-31 21:00 9.84 37400 246000 (1960) 26900 (1989) 71500 32200 35600 40600 41900 57200 83500 100000 142000 155000
2026-03-31 20:00 9.86 37500 246000 (1960) 26900 (1989) 71500 32200 35600 40600 41900 57200 83500 100000 142000 155000
2026-03-31 19:00 9.87 37500 246000 (1960) 26900 (1989) 71500 32200 35600 40600 41900 57200 83500 100000 142000 155000
2026-03-31 18:00 9.88 37600 246000 (1960) 26900 (1989) 71500 32200 35600 40600 41900 57200 83500 100000 142000 155000
2026-03-31 17:00 9.88 37600 246000 (1960) 26900 (1989) 71500 32200 35600 40600 41900 57200 83500 100000 142000 155000
2026-03-31 16:00 9.89 37600 246000 (1960) 26900 (1989) 71500 32200 35600 40600 41900 57200 83500 100000 142000 155000
2026-03-31 15:00 9.89 37600 246000 (1960) 26900 (1989) 71500 32200 35600 40600 41900 57200 83500 100000 142000 155000
2026-03-31 14:00 9.83 37300 246000 (1960) 26900 (1989) 71500 32200 35600 40600 41900 57200 83500 100000 142000 155000
2026-03-31 13:00 9.83 37300 246000 (1960) 26900 (1989) 71500 32200 35600 40600 41900 57200 83500 100000 142000 155000
2026-03-31 12:00 9.81 37200 246000 (1960) 26900 (1989) 71500 32200 35600 40600 41900 57200 83500 100000 142000 155000
2026-03-31 11:00 9.80 37200 246000 (1960) 26900 (1989) 71500 32200 35600 40600 41900 57200 83500 100000 142000 155000
2026-03-31 10:00 9.83 37300 246000 (1960) 26900 (1989) 71500 32200 35600 40600 41900 57200 83500 100000 142000 155000
2026-03-31 09:00 9.87 37500 246000 (1960) 26900 (1989) 71500 32200 35600 40600 41900 57200 83500 100000 142000 155000
2026-03-31 08:00 9.86 37500 246000 (1960) 26900 (1989) 71500 32200 35600 40600 41900 57200 83500 100000 142000 155000
2026-03-31 07:00 9.87 37500 246000 (1960) 26900 (1989) 71500 32200 35600 40600 41900 57200 83500 100000 142000 155000
2026-03-31 06:00 9.89 37600 246000 (1960) 26900 (1989) 71500 32200 35600 40600 41900 57200 83500 100000 142000 155000
2026-03-31 05:00 9.89 37600 246000 (1960) 26900 (1989) 71500 32200 35600 40600 41900 57200 83500 100000 142000 155000
2026-03-31 04:00 9.88 37600 246000 (1960) 26900 (1989) 71500 32200 35600 40600 41900 57200 83500 100000 142000 155000
2026-03-31 03:00 9.88 37600 246000 (1960) 26900 (1989) 71500 32200 35600 40600 41900 57200 83500 100000 142000 155000
2026-03-31 02:00 9.87 37500 246000 (1960) 26900 (1989) 71500 32200 35600 40600 41900 57200 83500 100000 142000 155000
2026-03-31 01:00 9.86 37500 246000 (1960) 26900 (1989) 71500 32200 35600 40600 41900 57200 83500 100000 142000 155000
2026-03-31 00:00 9.87 37500 246000 (1960) 26900 (1989) 71500 32200 35600 40600 41900 57200 83500 100000 142000 155000
2026-03-30 23:00 9.88 37600 246000 (1960) 26900 (1989) 71500 32200 35600 40600 41900 57200 83500 100000 142000 155000
2026-03-30 22:00 9.88 37600 230000 (2019) 25200 (1989) 68500 31600 34100 39900 41500 54000 83000 91000 128000 148000
2026-03-30 21:00 9.86 37500 230000 (2019) 25200 (1989) 68500 31600 34100 39900 41500 54000 83000 91000 128000 148000
2026-03-30 20:00 9.85 37400 230000 (2019) 25200 (1989) 68500 31600 34100 39900 41500 54000 83000 91000 128000 148000
2026-03-30 19:00 9.85 37400 230000 (2019) 25200 (1989) 68500 31600 34100 39900 41500 54000 83000 91000 128000 148000
2026-03-30 18:00 9.80 37200 230000 (2019) 25200 (1989) 68500 31600 34100 39900 41500 54000 83000 91000 128000 148000
2026-03-30 17:00 9.82 37300 230000 (2019) 25200 (1989) 68500 31600 34100 39900 41500 54000 83000 91000 128000 148000
2026-03-30 16:00 9.83 37300 230000 (2019) 25200 (1989) 68500 31600 34100 39900 41500 54000 83000 91000 128000 148000
2026-03-30 15:00 9.83 37300 230000 (2019) 25200 (1989) 68500 31600 34100 39900 41500 54000 83000 91000 128000 148000
2026-03-30 14:00 9.83 37300 230000 (2019) 25200 (1989) 68500 31600 34100 39900 41500 54000 83000 91000 128000 148000
2026-03-30 13:00 9.82 37300 230000 (2019) 25200 (1989) 68500 31600 34100 39900 41500 54000 83000 91000 128000 148000
2026-03-30 12:00 9.82 37300 230000 (2019) 25200 (1989) 68500 31600 34100 39900 41500 54000 83000 91000 128000 148000
2026-03-30 11:00 9.84 37400 230000 (2019) 25200 (1989) 68500 31600 34100 39900 41500 54000 83000 91000 128000 148000
2026-03-30 10:00 9.84 37400 230000 (2019) 25200 (1989) 68500 31600 34100 39900 41500 54000 83000 91000 128000 148000
2026-03-30 09:00 9.85 37400 230000 (2019) 25200 (1989) 68500 31600 34100 39900 41500 54000 83000 91000 128000 148000
2026-03-30 08:00 9.87 37500 230000 (2019) 25200 (1989) 68500 31600 34100 39900 41500 54000 83000 91000 128000 148000
2026-03-30 07:00 9.87 37500 230000 (2019) 25200 (1989) 68500 31600 34100 39900 41500 54000 83000 91000 128000 148000
2026-03-30 06:00 9.86 37500 230000 (2019) 25200 (1989) 68500 31600 34100 39900 41500 54000 83000 91000 128000 148000
2026-03-30 05:00 9.85 37400 230000 (2019) 25200 (1989) 68500 31600 34100 39900 41500 54000 83000 91000 128000 148000
2026-03-30 04:00 9.84 37400 230000 (2019) 25200 (1989) 68500 31600 34100 39900 41500 54000 83000 91000 128000 148000
2026-03-30 03:00 9.84 37400 230000 (2019) 25200 (1989) 68500 31600 34100 39900 41500 54000 83000 91000 128000 148000
2026-03-30 02:00 9.85 37400 230000 (2019) 25200 (1989) 68500 31600 34100 39900 41500 54000 83000 91000 128000 148000
2026-03-30 01:00 9.87 37500 230000 (2019) 25200 (1989) 68500 31600 34100 39900 41500 54000 83000 91000 128000 148000
2026-03-30 00:00 9.88 37600 230000 (2019) 25200 (1989) 68500 31600 34100 39900 41500 54000 83000 91000 128000 148000
2026-03-29 23:00 9.89 37600 230000 (2019) 25200 (1989) 68500 31600 34100 39900 41500 54000 83000 91000 128000 148000
2026-03-29 22:00 9.90 37700 234000 (2019) 27100 (1989) 68200 29400 34200 39200 42400 52700 78500 91600 139000 152000
2026-03-29 21:00 9.90 37700 234000 (2019) 27100 (1989) 68200 29400 34200 39200 42400 52700 78500 91600 139000 152000
2026-03-29 20:00 9.89 37600 234000 (2019) 27100 (1989) 68200 29400 34200 39200 42400 52700 78500 91600 139000 152000
2026-03-29 19:00 9.90 37700 234000 (2019) 27100 (1989) 68200 29400 34200 39200 42400 52700 78500 91600 139000 152000
2026-03-29 18:00 9.89 37600 234000 (2019) 27100 (1989) 68200 29400 34200 39200 42400 52700 78500 91600 139000 152000
2026-03-29 17:00 9.88 37600 234000 (2019) 27100 (1989) 68200 29400 34200 39200 42400 52700 78500 91600 139000 152000
2026-03-29 16:00 9.89 37600 234000 (2019) 27100 (1989) 68200 29400 34200 39200 42400 52700 78500 91600 139000 152000
2026-03-29 15:00 9.85 37400 234000 (2019) 27100 (1989) 68200 29400 34200 39200 42400 52700 78500 91600 139000 152000
2026-03-29 14:00 9.86 37500 234000 (2019) 27100 (1989) 68200 29400 34200 39200 42400 52700 78500 91600 139000 152000
2026-03-29 13:00 9.87 37500 234000 (2019) 27100 (1989) 68200 29400 34200 39200 42400 52700 78500 91600 139000 152000
2026-03-29 12:00 9.86 37500 234000 (2019) 27100 (1989) 68200 29400 34200 39200 42400 52700 78500 91600 139000 152000
2026-03-29 11:00 9.81 37200 234000 (2019) 27100 (1989) 68200 29400 34200 39200 42400 52700 78500 91600 139000 152000
2026-03-29 10:00 9.83 37300 234000 (2019) 27100 (1989) 68200 29400 34200 39200 42400 52700 78500 91600 139000 152000
2026-03-29 09:00 9.85 37400 234000 (2019) 27100 (1989) 68200 29400 34200 39200 42400 52700 78500 91600 139000 152000
2026-03-29 08:00 9.85 37400 234000 (2019) 27100 (1989) 68200 29400 34200 39200 42400 52700 78500 91600 139000 152000
2026-03-29 07:00 9.85 37400 234000 (2019) 27100 (1989) 68200 29400 34200 39200 42400 52700 78500 91600 139000 152000
2026-03-29 06:00 9.83 37300 234000 (2019) 27100 (1989) 68200 29400 34200 39200 42400 52700 78500 91600 139000 152000
2026-03-29 05:00 9.82 37300 234000 (2019) 27100 (1989) 68200 29400 34200 39200 42400 52700 78500 91600 139000 152000
2026-03-29 04:00 9.81 37200 234000 (2019) 27100 (1989) 68200 29400 34200 39200 42400 52700 78500 91600 139000 152000
2026-03-29 03:00 9.80 37200 234000 (2019) 27100 (1989) 68200 29400 34200 39200 42400 52700 78500 91600 139000 152000
2026-03-29 02:00 9.79 37100 234000 (2019) 27100 (1989) 68200 29400 34200 39200 42400 52700 78500 91600 139000 152000
2026-03-29 01:00 9.78 37100 234000 (2019) 27100 (1989) 68200 29400 34200 39200 42400 52700 78500 91600 139000 152000
2026-03-29 00:00 9.77 37000 234000 (2019) 27100 (1989) 68200 29400 34200 39200 42400 52700 78500 91600 139000 152000
2026-03-28 23:00 9.76 37000 234000 (2019) 27100 (1989) 68200 29400 34200 39200 42400 52700 78500 91600 139000 152000
2026-03-28 22:00 9.74 36900 246000 (2019) 23500 (1989) 68100 28200 34100 38400 41400 55100 79000 88500 134000 159000
2026-03-28 21:00 9.73 36800 246000 (2019) 23500 (1989) 68100 28200 34100 38400 41400 55100 79000 88500 134000 159000
2026-03-28 20:00 9.72 36800 246000 (2019) 23500 (1989) 68100 28200 34100 38400 41400 55100 79000 88500 134000 159000
2026-03-28 19:00 9.70 36700 246000 (2019) 23500 (1989) 68100 28200 34100 38400 41400 55100 79000 88500 134000 159000
2026-03-28 18:00 9.67 36500 246000 (2019) 23500 (1989) 68100 28200 34100 38400 41400 55100 79000 88500 134000 159000
2026-03-28 17:00 9.66 36500 246000 (2019) 23500 (1989) 68100 28200 34100 38400 41400 55100 79000 88500 134000 159000
2026-03-28 16:00 9.60 36200 246000 (2019) 23500 (1989) 68100 28200 34100 38400 41400 55100 79000 88500 134000 159000
2026-03-28 15:00 9.60 36200 246000 (2019) 23500 (1989) 68100 28200 34100 38400 41400 55100 79000 88500 134000 159000
2026-03-28 14:00 9.56 36000 246000 (2019) 23500 (1989) 68100 28200 34100 38400 41400 55100 79000 88500 134000 159000
2026-03-28 13:00 9.53 35800 246000 (2019) 23500 (1989) 68100 28200 34100 38400 41400 55100 79000 88500 134000 159000
2026-03-28 12:00 9.50 35700 246000 (2019) 23500 (1989) 68100 28200 34100 38400 41400 55100 79000 88500 134000 159000
2026-03-28 11:00 9.53 35800 246000 (2019) 23500 (1989) 68100 28200 34100 38400 41400 55100 79000 88500 134000 159000
2026-03-28 10:00 9.48 35600 246000 (2019) 23500 (1989) 68100 28200 34100 38400 41400 55100 79000 88500 134000 159000
2026-03-28 09:00 9.43 35400 246000 (2019) 23500 (1989) 68100 28200 34100 38400 41400 55100 79000 88500 134000 159000
2026-03-28 08:00 9.46 35500 246000 (2019) 23500 (1989) 68100 28200 34100 38400 41400 55100 79000 88500 134000 159000
2026-03-28 07:00 9.46 35500 246000 (2019) 23500 (1989) 68100 28200 34100 38400 41400 55100 79000 88500 134000 159000
2026-03-28 06:00 9.38 35100 246000 (2019) 23500 (1989) 68100 28200 34100 38400 41400 55100 79000 88500 134000 159000
2026-03-28 05:00 9.39 35200 246000 (2019) 23500 (1989) 68100 28200 34100 38400 41400 55100 79000 88500 134000 159000
2026-03-28 04:00 9.38 35100 246000 (2019) 23500 (1989) 68100 28200 34100 38400 41400 55100 79000 88500 134000 159000
2026-03-28 03:00 9.40 35200 246000 (2019) 23500 (1989) 68100 28200 34100 38400 41400 55100 79000 88500 134000 159000
2026-03-28 02:00 9.38 35100 246000 (2019) 23500 (1989) 68100 28200 34100 38400 41400 55100 79000 88500 134000 159000
2026-03-28 01:00 9.36 35000 246000 (2019) 23500 (1989) 68100 28200 34100 38400 41400 55100 79000 88500 134000 159000
2026-03-28 00:00 9.33 34900 246000 (2019) 23500 (1989) 68100 28200 34100 38400 41400 55100 79000 88500 134000 159000
2026-03-27 23:00 9.30 34700 246000 (2019) 23500 (1989) 68100 28200 34100 38400 41400 55100 79000 88500 134000 159000
2026-03-27 22:00 9.28 34700 264000 (2019) 22800 (1989) 66100 28900 32100 37200 38600 51300 76500 83200 122000 174000
2026-03-27 21:00 9.25 34500 264000 (2019) 22800 (1989) 66100 28900 32100 37200 38600 51300 76500 83200 122000 174000
2026-03-27 20:00 9.24 34500 264000 (2019) 22800 (1989) 66100 28900 32100 37200 38600 51300 76500 83200 122000 174000
2026-03-27 19:00 9.21 34300 264000 (2019) 22800 (1989) 66100 28900 32100 37200 38600 51300 76500 83200 122000 174000
2026-03-27 18:00 9.17 34100 264000 (2019) 22800 (1989) 66100 28900 32100 37200 38600 51300 76500 83200 122000 174000
2026-03-27 17:00 9.17 34100 264000 (2019) 22800 (1989) 66100 28900 32100 37200 38600 51300 76500 83200 122000 174000
2026-03-27 16:00 9.14 34000 264000 (2019) 22800 (1989) 66100 28900 32100 37200 38600 51300 76500 83200 122000 174000
2026-03-27 15:00 9.13 34000 264000 (2019) 22800 (1989) 66100 28900 32100 37200 38600 51300 76500 83200 122000 174000
2026-03-27 14:00 9.10 33800 264000 (2019) 22800 (1989) 66100 28900 32100 37200 38600 51300 76500 83200 122000 174000
2026-03-27 13:00 9.07 33700 264000 (2019) 22800 (1989) 66100 28900 32100 37200 38600 51300 76500 83200 122000 174000
2026-03-27 12:00 9.06 33600 264000 (2019) 22800 (1989) 66100 28900 32100 37200 38600 51300 76500 83200 122000 174000
2026-03-27 11:00 8.99 33300 264000 (2019) 22800 (1989) 66100 28900 32100 37200 38600 51300 76500 83200 122000 174000
2026-03-27 10:00 8.99 33300 264000 (2019) 22800 (1989) 66100 28900 32100 37200 38600 51300 76500 83200 122000 174000
2026-03-27 09:00 8.95 33100 264000 (2019) 22800 (1989) 66100 28900 32100 37200 38600 51300 76500 83200 122000 174000
2026-03-27 08:00 8.96 33200 264000 (2019) 22800 (1989) 66100 28900 32100 37200 38600 51300 76500 83200 122000 174000
2026-03-27 07:00 8.92 33000 264000 (2019) 22800 (1989) 66100 28900 32100 37200 38600 51300 76500 83200 122000 174000
2026-03-27 06:00 8.90 32900 264000 (2019) 22800 (1989) 66100 28900 32100 37200 38600 51300 76500 83200 122000 174000
2026-03-27 05:00 8.84 32600 264000 (2019) 22800 (1989) 66100 28900 32100 37200 38600 51300 76500 83200 122000 174000
2026-03-27 04:00 8.79 32400 264000 (2019) 22800 (1989) 66100 28900 32100 37200 38600 51300 76500 83200 122000 174000
2026-03-27 03:00 8.79 32400 264000 (2019) 22800 (1989) 66100 28900 32100 37200 38600 51300 76500 83200 122000 174000
2026-03-27 02:00 8.75 32200 264000 (2019) 22800 (1989) 66100 28900 32100 37200 38600 51300 76500 83200 122000 174000
2026-03-27 01:00 8.67 31900 264000 (2019) 22800 (1989) 66100 28900 32100 37200 38600 51300 76500 83200 122000 174000
2026-03-27 00:00 8.62 31700 264000 (2019) 22800 (1989) 66100 28900 32100 37200 38600 51300 76500 83200 122000 174000
2026-03-26 23:00 8.61 31600 264000 (2019) 22800 (1989) 66100 28900 32100 37200 38600 51300 76500 83200 122000 174000
2026-03-26 22:00 8.56 31400 278000 (2019) 21700 (1991) 64000 26700 29500 35000 37000 49900 68400 75600 121000 173000
2026-03-26 21:00 8.54 31300 278000 (2019) 21700 (1991) 64000 26700 29500 35000 37000 49900 68400 75600 121000 173000
2026-03-26 20:00 8.51 31200 278000 (2019) 21700 (1991) 64000 26700 29500 35000 37000 49900 68400 75600 121000 173000
2026-03-26 19:00 8.51 31200 278000 (2019) 21700 (1991) 64000 26700 29500 35000 37000 49900 68400 75600 121000 173000
2026-03-26 18:00 8.47 31000 278000 (2019) 21700 (1991) 64000 26700 29500 35000 37000 49900 68400 75600 121000 173000
2026-03-26 17:00 8.42 30800 278000 (2019) 21700 (1991) 64000 26700 29500 35000 37000 49900 68400 75600 121000 173000
2026-03-26 16:00 8.43 30800 278000 (2019) 21700 (1991) 64000 26700 29500 35000 37000 49900 68400 75600 121000 173000
2026-03-26 15:00 8.36 30500 278000 (2019) 21700 (1991) 64000 26700 29500 35000 37000 49900 68400 75600 121000 173000
2026-03-26 14:00 8.35 30500 278000 (2019) 21700 (1991) 64000 26700 29500 35000 37000 49900 68400 75600 121000 173000
2026-03-26 13:00 8.31 30300 278000 (2019) 21700 (1991) 64000 26700 29500 35000 37000 49900 68400 75600 121000 173000
2026-03-26 12:00 8.31 30300 278000 (2019) 21700 (1991) 64000 26700 29500 35000 37000 49900 68400 75600 121000 173000
2026-03-26 11:00 8.29 30200 278000 (2019) 21700 (1991) 64000 26700 29500 35000 37000 49900 68400 75600 121000 173000
2026-03-26 10:00 8.22 29900 278000 (2019) 21700 (1991) 64000 26700 29500 35000 37000 49900 68400 75600 121000 173000
2026-03-26 09:00 8.27 30100 278000 (2019) 21700 (1991) 64000 26700 29500 35000 37000 49900 68400 75600 121000 173000
2026-03-26 08:00 8.25 30100 278000 (2019) 21700 (1991) 64000 26700 29500 35000 37000 49900 68400 75600 121000 173000
2026-03-26 07:00 8.23 30000 278000 (2019) 21700 (1991) 64000 26700 29500 35000 37000 49900 68400 75600 121000 173000
2026-03-26 06:00 8.21 29900 278000 (2019) 21700 (1991) 64000 26700 29500 35000 37000 49900 68400 75600 121000 173000
2026-03-26 05:00 8.19 29800 278000 (2019) 21700 (1991) 64000 26700 29500 35000 37000 49900 68400 75600 121000 173000
2026-03-26 04:00 8.16 29700 278000 (2019) 21700 (1991) 64000 26700 29500 35000 37000 49900 68400 75600 121000 173000
2026-03-26 03:00 8.13 29600 278000 (2019) 21700 (1991) 64000 26700 29500 35000 37000 49900 68400 75600 121000 173000
2026-03-26 02:00 8.09 29400 278000 (2019) 21700 (1991) 64000 26700 29500 35000 37000 49900 68400 75600 121000 173000
2026-03-26 01:00 8.07 29300 278000 (2019) 21700 (1991) 64000 26700 29500 35000 37000 49900 68400 75600 121000 173000
2026-03-26 00:00 8.05 29200 278000 (2019) 21700 (1991) 64000 26700 29500 35000 37000 49900 68400 75600 121000 173000
2026-03-25 23:00 8.03 29100 278000 (2019) 21700 (1991) 64000 26700 29500 35000 37000 49900 68400 75600 121000 173000
2026-03-25 22:00 8.02 29100 280000 (2019) 22000 (1964) 61100 23400 28100 32800 35600 50100 69600 76500 108000 145000
2026-03-25 21:00 7.99 29000 280000 (2019) 22000 (1964) 61100 23400 28100 32800 35600 50100 69600 76500 108000 145000
2026-03-25 20:00 7.99 29000 280000 (2019) 22000 (1964) 61100 23400 28100 32800 35600 50100 69600 76500 108000 145000
2026-03-25 19:00 7.97 28900 280000 (2019) 22000 (1964) 61100 23400 28100 32800 35600 50100 69600 76500 108000 145000
2026-03-25 18:00 7.87 28500 280000 (2019) 22000 (1964) 61100 23400 28100 32800 35600 50100 69600 76500 108000 145000
2026-03-25 17:00 7.90 28600 280000 (2019) 22000 (1964) 61100 23400 28100 32800 35600 50100 69600 76500 108000 145000
2026-03-25 16:00 7.85 28400 280000 (2019) 22000 (1964) 61100 23400 28100 32800 35600 50100 69600 76500 108000 145000
2026-03-25 15:00 7.86 28500 280000 (2019) 22000 (1964) 61100 23400 28100 32800 35600 50100 69600 76500 108000 145000
2026-03-25 14:00 7.84 28400 280000 (2019) 22000 (1964) 61100 23400 28100 32800 35600 50100 69600 76500 108000 145000
2026-03-25 13:00 7.81 28300 280000 (2019) 22000 (1964) 61100 23400 28100 32800 35600 50100 69600 76500 108000 145000
2026-03-25 12:00 7.82 28300 280000 (2019) 22000 (1964) 61100 23400 28100 32800 35600 50100 69600 76500 108000 145000
2026-03-25 11:00 7.81 28300 280000 (2019) 22000 (1964) 61100 23400 28100 32800 35600 50100 69600 76500 108000 145000
2026-03-25 10:00 7.77 28100 280000 (2019) 22000 (1964) 61100 23400 28100 32800 35600 50100 69600 76500 108000 145000
2026-03-25 09:00 7.78 28100 280000 (2019) 22000 (1964) 61100 23400 28100 32800 35600 50100 69600 76500 108000 145000
2026-03-25 08:00 7.77 28100 280000 (2019) 22000 (1964) 61100 23400 28100 32800 35600 50100 69600 76500 108000 145000
2026-03-25 07:00 7.75 28000 280000 (2019) 22000 (1964) 61100 23400 28100 32800 35600 50100 69600 76500 108000 145000
2026-03-25 06:00 7.73 27900 280000 (2019) 22000 (1964) 61100 23400 28100 32800 35600 50100 69600 76500 108000 145000
2026-03-25 05:00 7.71 27800 280000 (2019) 22000 (1964) 61100 23400 28100 32800 35600 50100 69600 76500 108000 145000
2026-03-25 04:00 7.69 27800 280000 (2019) 22000 (1964) 61100 23400 28100 32800 35600 50100 69600 76500 108000 145000
2026-03-25 03:00 7.67 27700 280000 (2019) 22000 (1964) 61100 23400 28100 32800 35600 50100 69600 76500 108000 145000
2026-03-25 02:00 7.65 27600 280000 (2019) 22000 (1964) 61100 23400 28100 32800 35600 50100 69600 76500 108000 145000
2026-03-25 01:00 7.64 27600 280000 (2019) 22000 (1964) 61100 23400 28100 32800 35600 50100 69600 76500 108000 145000
2026-03-25 00:00 7.62 27500 280000 (2019) 22000 (1964) 61100 23400 28100 32800 35600 50100 69600 76500 108000 145000
2026-03-24 23:00 7.60 27400 280000 (2019) 22000 (1964) 61100 23400 28100 32800 35600 50100 69600 76500 108000 145000
2026-03-24 22:00 7.58 27300 272000 (2019) 17000 (1964) 58500 23400 26600 31700 33600 50200 71000 75400 100000 131000
2026-03-24 21:00 7.56 27300 272000 (2019) 17000 (1964) 58500 23400 26600 31700 33600 50200 71000 75400 100000 131000
2026-03-24 20:00 7.54 27200 272000 (2019) 17000 (1964) 58500 23400 26600 31700 33600 50200 71000 75400 100000 131000
2026-03-24 19:00 7.52 27100 272000 (2019) 17000 (1964) 58500 23400 26600 31700 33600 50200 71000 75400 100000 131000
2026-03-24 18:00 7.45 26800 272000 (2019) 17000 (1964) 58500 23400 26600 31700 33600 50200 71000 75400 100000 131000
2026-03-24 17:00 7.43 26800 272000 (2019) 17000 (1964) 58500 23400 26600 31700 33600 50200 71000 75400 100000 131000
2026-03-24 16:00 7.46 26900 272000 (2019) 17000 (1964) 58500 23400 26600 31700 33600 50200 71000 75400 100000 131000
2026-03-24 15:00 7.44 26800 272000 (2019) 17000 (1964) 58500 23400 26600 31700 33600 50200 71000 75400 100000 131000
2026-03-24 14:00 7.43 26800 272000 (2019) 17000 (1964) 58500 23400 26600 31700 33600 50200 71000 75400 100000 131000
2026-03-24 13:00 7.42 26700 272000 (2019) 17000 (1964) 58500 23400 26600 31700 33600 50200 71000 75400 100000 131000
2026-03-24 12:00 7.38 26600 272000 (2019) 17000 (1964) 58500 23400 26600 31700 33600 50200 71000 75400 100000 131000
2026-03-24 11:00 7.38 26600 272000 (2019) 17000 (1964) 58500 23400 26600 31700 33600 50200 71000 75400 100000 131000
2026-03-24 10:00 7.31 26300 272000 (2019) 17000 (1964) 58500 23400 26600 31700 33600 50200 71000 75400 100000 131000
2026-03-24 09:00 7.30 26300 272000 (2019) 17000 (1964) 58500 23400 26600 31700 33600 50200 71000 75400 100000 131000
2026-03-24 08:00 7.26 26100 272000 (2019) 17000 (1964) 58500 23400 26600 31700 33600 50200 71000 75400 100000 131000
2026-03-24 07:00 7.31 26300 272000 (2019) 17000 (1964) 58500 23400 26600 31700 33600 50200 71000 75400 100000 131000
2026-03-24 06:00 7.33 26400 272000 (2019) 17000 (1964) 58500 23400 26600 31700 33600 50200 71000 75400 100000 131000
2026-03-24 05:00 7.31 26300 272000 (2019) 17000 (1964) 58500 23400 26600 31700 33600 50200 71000 75400 100000 131000
2026-03-24 04:00 7.30 26300 272000 (2019) 17000 (1964) 58500 23400 26600 31700 33600 50200 71000 75400 100000 131000
2026-03-24 03:00 7.30 26300 272000 (2019) 17000 (1964) 58500 23400 26600 31700 33600 50200 71000 75400 100000 131000
2026-03-24 02:00 7.28 26200 272000 (2019) 17000 (1964) 58500 23400 26600 31700 33600 50200 71000 75400 100000 131000
2026-03-24 01:00 7.18 25800 272000 (2019) 17000 (1964) 58500 23400 26600 31700 33600 50200 71000 75400 100000 131000
2026-03-24 00:00 7.19 25800 272000 (2019) 17000 (1964) 58500 23400 26600 31700 33600 50200 71000 75400 100000 131000
2026-03-23 23:00 7.19 25800 272000 (2019) 17000 (1964) 58500 23400 26600 31700 33600 50200 71000 75400 100000 131000
2026-03-23 22:00 7.20 25900 246000 (2019) 16100 (1964) 58000 23300 26600 31100 33800 49700 70300 77400 103000 131000
2026-03-23 21:00 7.17 25800 246000 (2019) 16100 (1964) 58000 23300 26600 31100 33800 49700 70300 77400 103000 131000
2026-03-23 20:00 7.18 25800 246000 (2019) 16100 (1964) 58000 23300 26600 31100 33800 49700 70300 77400 103000 131000
2026-03-23 19:00 7.18 25800 246000 (2019) 16100 (1964) 58000 23300 26600 31100 33800 49700 70300 77400 103000 131000
2026-03-23 18:00 7.15 25700 246000 (2019) 16100 (1964) 58000 23300 26600 31100 33800 49700 70300 77400 103000 131000
2026-03-23 17:00 7.11 25500 246000 (2019) 16100 (1964) 58000 23300 26600 31100 33800 49700 70300 77400 103000 131000
2026-03-23 16:00 7.07 25400 246000 (2019) 16100 (1964) 58000 23300 26600 31100 33800 49700 70300 77400 103000 131000
2026-03-23 15:00 7.06 25300 246000 (2019) 16100 (1964) 58000 23300 26600 31100 33800 49700 70300 77400 103000 131000
2026-03-23 14:00 7.10 25500 246000 (2019) 16100 (1964) 58000 23300 26600 31100 33800 49700 70300 77400 103000 131000
2026-03-23 13:00 7.09 25500 246000 (2019) 16100 (1964) 58000 23300 26600 31100 33800 49700 70300 77400 103000 131000
2026-03-23 12:00 7.07 25400 246000 (2019) 16100 (1964) 58000 23300 26600 31100 33800 49700 70300 77400 103000 131000
2026-03-23 11:00 7.10 25500 246000 (2019) 16100 (1964) 58000 23300 26600 31100 33800 49700 70300 77400 103000 131000
2026-03-23 10:00 7.07 25400 246000 (2019) 16100 (1964) 58000 23300 26600 31100 33800 49700 70300 77400 103000 131000
2026-03-23 09:00 7.16 25700 246000 (2019) 16100 (1964) 58000 23300 26600 31100 33800 49700 70300 77400 103000 131000
2026-03-23 08:00 7.17 25800 246000 (2019) 16100 (1964) 58000 23300 26600 31100 33800 49700 70300 77400 103000 131000
2026-03-23 07:00 7.17 25800 246000 (2019) 16100 (1964) 58000 23300 26600 31100 33800 49700 70300 77400 103000 131000
2026-03-23 06:00 7.17 25800 246000 (2019) 16100 (1964) 58000 23300 26600 31100 33800 49700 70300 77400 103000 131000
2026-03-23 05:00 7.17 25800 246000 (2019) 16100 (1964) 58000 23300 26600 31100 33800 49700 70300 77400 103000 131000
2026-03-23 04:00 7.18 25800 246000 (2019) 16100 (1964) 58000 23300 26600 31100 33800 49700 70300 77400 103000 131000
2026-03-23 03:00 7.19 25800 246000 (2019) 16100 (1964) 58000 23300 26600 31100 33800 49700 70300 77400 103000 131000
2026-03-23 02:00 7.20 25900 246000 (2019) 16100 (1964) 58000 23300 26600 31100 33800 49700 70300 77400 103000 131000
2026-03-23 01:00 7.20 25900 246000 (2019) 16100 (1964) 58000 23300 26600 31100 33800 49700 70300 77400 103000 131000
2026-03-23 00:00 7.21 25900 246000 (2019) 16100 (1964) 58000 23300 26600 31100 33800 49700 70300 77400 103000 131000
2026-03-22 23:00 7.21 25900 246000 (2019) 16100 (1964) 58000 23300 26600 31100 33800 49700 70300 77400 103000 131000
2026-03-22 22:00 7.20 25900 235000 (2019) 16200 (1964) 58800 22400 25700 30100 33000 50600 70000 77300 108000 130000
2026-03-22 21:00 7.19 25800 235000 (2019) 16200 (1964) 58800 22400 25700 30100 33000 50600 70000 77300 108000 130000
2026-03-22 20:00 7.19 25800 235000 (2019) 16200 (1964) 58800 22400 25700 30100 33000 50600 70000 77300 108000 130000
2026-03-22 19:00 7.17 25800 235000 (2019) 16200 (1964) 58800 22400 25700 30100 33000 50600 70000 77300 108000 130000
2026-03-22 18:00 7.16 25700 235000 (2019) 16200 (1964) 58800 22400 25700 30100 33000 50600 70000 77300 108000 130000
2026-03-22 17:00 7.15 25700 235000 (2019) 16200 (1964) 58800 22400 25700 30100 33000 50600 70000 77300 108000 130000
2026-03-22 16:00 7.15 25700 235000 (2019) 16200 (1964) 58800 22400 25700 30100 33000 50600 70000 77300 108000 130000
2026-03-22 15:00 7.18 25800 235000 (2019) 16200 (1964) 58800 22400 25700 30100 33000 50600 70000 77300 108000 130000
2026-03-22 14:00 7.20 25900 235000 (2019) 16200 (1964) 58800 22400 25700 30100 33000 50600 70000 77300 108000 130000
2026-03-22 13:00 7.22 25900 235000 (2019) 16200 (1964) 58800 22400 25700 30100 33000 50600 70000 77300 108000 130000
2026-03-22 12:00 7.23 26000 235000 (2019) 16200 (1964) 58800 22400 25700 30100 33000 50600 70000 77300 108000 130000
2026-03-22 11:00 7.25 26100 235000 (2019) 16200 (1964) 58800 22400 25700 30100 33000 50600 70000 77300 108000 130000
2026-03-22 10:00 7.26 26100 235000 (2019) 16200 (1964) 58800 22400 25700 30100 33000 50600 70000 77300 108000 130000
2026-03-22 09:00 7.27 26100 235000 (2019) 16200 (1964) 58800 22400 25700 30100 33000 50600 70000 77300 108000 130000
2026-03-22 08:00 7.27 26100 235000 (2019) 16200 (1964) 58800 22400 25700 30100 33000 50600 70000 77300 108000 130000
2026-03-22 07:00 7.28 26200 235000 (2019) 16200 (1964) 58800 22400 25700 30100 33000 50600 70000 77300 108000 130000
2026-03-22 06:00 7.29 26200 235000 (2019) 16200 (1964) 58800 22400 25700 30100 33000 50600 70000 77300 108000 130000
2026-03-22 05:00 7.30 26300 235000 (2019) 16200 (1964) 58800 22400 25700 30100 33000 50600 70000 77300 108000 130000
2026-03-22 04:00 7.30 26300 235000 (2019) 16200 (1964) 58800 22400 25700 30100 33000 50600 70000 77300 108000 130000
2026-03-22 03:00 7.31 26300 235000 (2019) 16200 (1964) 58800 22400 25700 30100 33000 50600 70000 77300 108000 130000
2026-03-22 02:00 7.32 26300 235000 (2019) 16200 (1964) 58800 22400 25700 30100 33000 50600 70000 77300 108000 130000
2026-03-22 01:00 7.32 26300 235000 (2019) 16200 (1964) 58800 22400 25700 30100 33000 50600 70000 77300 108000 130000
2026-03-22 00:00 7.33 26400 235000 (2019) 16200 (1964) 58800 22400 25700 30100 33000 50600 70000 77300 108000 130000
2026-03-21 23:00 7.33 26400 235000 (2019) 16200 (1964) 58800 22400 25700 30100 33000 50600 70000 77300 108000 130000
2026-03-21 22:00 7.34 26400 232000 (2019) 16800 (1964) 59600 20700 24400 30700 31200 52400 74400 80500 107000 132000
2026-03-21 21:00 7.34 26400 232000 (2019) 16800 (1964) 59600 20700 24400 30700 31200 52400 74400 80500 107000 132000
2026-03-21 20:00 7.35 26400 232000 (2019) 16800 (1964) 59600 20700 24400 30700 31200 52400 74400 80500 107000 132000
2026-03-21 19:00 7.36 26500 232000 (2019) 16800 (1964) 59600 20700 24400 30700 31200 52400 74400 80500 107000 132000
2026-03-21 18:00 7.37 26500 232000 (2019) 16800 (1964) 59600 20700 24400 30700 31200 52400 74400 80500 107000 132000
2026-03-21 17:00 7.37 26500 232000 (2019) 16800 (1964) 59600 20700 24400 30700 31200 52400 74400 80500 107000 132000
2026-03-21 16:00 7.36 26500 232000 (2019) 16800 (1964) 59600 20700 24400 30700 31200 52400 74400 80500 107000 132000
2026-03-21 15:00 7.36 26500 232000 (2019) 16800 (1964) 59600 20700 24400 30700 31200 52400 74400 80500 107000 132000
2026-03-21 14:00 7.39 26600 232000 (2019) 16800 (1964) 59600 20700 24400 30700 31200 52400 74400 80500 107000 132000
2026-03-21 13:00 7.40 26600 232000 (2019) 16800 (1964) 59600 20700 24400 30700 31200 52400 74400 80500 107000 132000
2026-03-21 12:00 7.39 26600 232000 (2019) 16800 (1964) 59600 20700 24400 30700 31200 52400 74400 80500 107000 132000
2026-03-21 11:00 7.38 26600 232000 (2019) 16800 (1964) 59600 20700 24400 30700 31200 52400 74400 80500 107000 132000
2026-03-21 10:00 7.40 26600 232000 (2019) 16800 (1964) 59600 20700 24400 30700 31200 52400 74400 80500 107000 132000
2026-03-21 09:00 7.39 26600 232000 (2019) 16800 (1964) 59600 20700 24400 30700 31200 52400 74400 80500 107000 132000
2026-03-21 08:00 7.38 26600 232000 (2019) 16800 (1964) 59600 20700 24400 30700 31200 52400 74400 80500 107000 132000
2026-03-21 07:00 7.40 26600 232000 (2019) 16800 (1964) 59600 20700 24400 30700 31200 52400 74400 80500 107000 132000
2026-03-21 06:00 7.40 26600 232000 (2019) 16800 (1964) 59600 20700 24400 30700 31200 52400 74400 80500 107000 132000
2026-03-21 05:00 7.40 26600 232000 (2019) 16800 (1964) 59600 20700 24400 30700 31200 52400 74400 80500 107000 132000
2026-03-21 04:00 7.40 26600 232000 (2019) 16800 (1964) 59600 20700 24400 30700 31200 52400 74400 80500 107000 132000
2026-03-21 03:00 7.40 26600 232000 (2019) 16800 (1964) 59600 20700 24400 30700 31200 52400 74400 80500 107000 132000
2026-03-21 02:00 7.40 26600 232000 (2019) 16800 (1964) 59600 20700 24400 30700 31200 52400 74400 80500 107000 132000
2026-03-21 01:00 7.39 26600 232000 (2019) 16800 (1964) 59600 20700 24400 30700 31200 52400 74400 80500 107000 132000
2026-03-21 00:00 7.39 26600 232000 (2019) 16800 (1964) 59600 20700 24400 30700 31200 52400 74400 80500 107000 132000
2026-03-20 23:00 7.39 26600 232000 (2019) 16800 (1964) 59600 20700 24400 30700 31200 52400 74400 80500 107000 132000
2026-03-20 22:00 7.38 26600 231000 (2019) 16600 (1964) 59300 20200 23900 31000 32600 52300 75000 82400 107000 142000
2026-03-20 21:00 7.37 26500 231000 (2019) 16600 (1964) 59300 20200 23900 31000 32600 52300 75000 82400 107000 142000
2026-03-20 20:00 7.36 26500 231000 (2019) 16600 (1964) 59300 20200 23900 31000 32600 52300 75000 82400 107000 142000
2026-03-20 19:00 7.36 26500 231000 (2019) 16600 (1964) 59300 20200 23900 31000 32600 52300 75000 82400 107000 142000
2026-03-20 18:00 7.36 26500 231000 (2019) 16600 (1964) 59300 20200 23900 31000 32600 52300 75000 82400 107000 142000
2026-03-20 17:00 7.37 26500 231000 (2019) 16600 (1964) 59300 20200 23900 31000 32600 52300 75000 82400 107000 142000
2026-03-20 16:00 7.38 26600 231000 (2019) 16600 (1964) 59300 20200 23900 31000 32600 52300 75000 82400 107000 142000
2026-03-20 15:00 7.31 26300 231000 (2019) 16600 (1964) 59300 20200 23900 31000 32600 52300 75000 82400 107000 142000
2026-03-20 14:00 7.33 26400 231000 (2019) 16600 (1964) 59300 20200 23900 31000 32600 52300 75000 82400 107000 142000
2026-03-20 13:00 7.36 26500 231000 (2019) 16600 (1964) 59300 20200 23900 31000 32600 52300 75000 82400 107000 142000
2026-03-20 12:00 7.34 26400 231000 (2019) 16600 (1964) 59300 20200 23900 31000 32600 52300 75000 82400 107000 142000
2026-03-20 11:00 7.34 26400 231000 (2019) 16600 (1964) 59300 20200 23900 31000 32600 52300 75000 82400 107000 142000
2026-03-20 10:00 7.36 26500 231000 (2019) 16600 (1964) 59300 20200 23900 31000 32600 52300 75000 82400 107000 142000
2026-03-20 09:00 7.35 26400 231000 (2019) 16600 (1964) 59300 20200 23900 31000 32600 52300 75000 82400 107000 142000
2026-03-20 08:00 7.38 26600 231000 (2019) 16600 (1964) 59300 20200 23900 31000 32600 52300 75000 82400 107000 142000
2026-03-20 07:00 7.40 26600 231000 (2019) 16600 (1964) 59300 20200 23900 31000 32600 52300 75000 82400 107000 142000
2026-03-20 06:00 7.41 26700 231000 (2019) 16600 (1964) 59300 20200 23900 31000 32600 52300 75000 82400 107000 142000
2026-03-20 05:00 7.41 26700 231000 (2019) 16600 (1964) 59300 20200 23900 31000 32600 52300 75000 82400 107000 142000
2026-03-20 04:00 7.41 26700 231000 (2019) 16600 (1964) 59300 20200 23900 31000 32600 52300 75000 82400 107000 142000
2026-03-20 03:00 7.41 26700 231000 (2019) 16600 (1964) 59300 20200 23900 31000 32600 52300 75000 82400 107000 142000
2026-03-20 02:00 7.42 26700 231000 (2019) 16600 (1964) 59300 20200 23900 31000 32600 52300 75000 82400 107000 142000
2026-03-20 01:00 7.42 26700 231000 (2019) 16600 (1964) 59300 20200 23900 31000 32600 52300 75000 82400 107000 142000
2026-03-20 00:00 7.42 26700 231000 (2019) 16600 (1964) 59300 20200 23900 31000 32600 52300 75000 82400 107000 142000
2026-03-19 23:00 7.43 26800 231000 (2019) 16600 (1964) 59300 20200 23900 31000 32600 52300 75000 82400 107000 142000
2026-03-19 22:00 7.43 26800 233000 (2019) 15800 (1964) 57600 20900 24000 31500 32900 49100 67800 80600 111000 128000
2026-03-19 21:00 7.44 26800 233000 (2019) 15800 (1964) 57600 20900 24000 31500 32900 49100 67800 80600 111000 128000
2026-03-19 20:00 7.45 26800 233000 (2019) 15800 (1964) 57600 20900 24000 31500 32900 49100 67800 80600 111000 128000
2026-03-19 19:00 7.46 26900 233000 (2019) 15800 (1964) 57600 20900 24000 31500 32900 49100 67800 80600 111000 128000
2026-03-19 18:00 7.47 26900 233000 (2019) 15800 (1964) 57600 20900 24000 31500 32900 49100 67800 80600 111000 128000
2026-03-19 17:00 7.48 26900 233000 (2019) 15800 (1964) 57600 20900 24000 31500 32900 49100 67800 80600 111000 128000
2026-03-19 16:00 7.49 27000 233000 (2019) 15800 (1964) 57600 20900 24000 31500 32900 49100 67800 80600 111000 128000
2026-03-19 15:00 7.50 27000 233000 (2019) 15800 (1964) 57600 20900 24000 31500 32900 49100 67800 80600 111000 128000
2026-03-19 14:00 7.51 27100 233000 (2019) 15800 (1964) 57600 20900 24000 31500 32900 49100 67800 80600 111000 128000
2026-03-19 13:00 7.52 27100 233000 (2019) 15800 (1964) 57600 20900 24000 31500 32900 49100 67800 80600 111000 128000
2026-03-19 12:00 7.51 27100 233000 (2019) 15800 (1964) 57600 20900 24000 31500 32900 49100 67800 80600 111000 128000
2026-03-19 11:00 7.53 27100 233000 (2019) 15800 (1964) 57600 20900 24000 31500 32900 49100 67800 80600 111000 128000
2026-03-19 10:00 7.54 27200 233000 (2019) 15800 (1964) 57600 20900 24000 31500 32900 49100 67800 80600 111000 128000
2026-03-19 09:00 7.52 27100 233000 (2019) 15800 (1964) 57600 20900 24000 31500 32900 49100 67800 80600 111000 128000
2026-03-19 08:00 7.54 27200 233000 (2019) 15800 (1964) 57600 20900 24000 31500 32900 49100 67800 80600 111000 128000
2026-03-19 07:00 7.55 27200 233000 (2019) 15800 (1964) 57600 20900 24000 31500 32900 49100 67800 80600 111000 128000
2026-03-19 06:00 7.55 27200 233000 (2019) 15800 (1964) 57600 20900 24000 31500 32900 49100 67800 80600 111000 128000
2026-03-19 05:00 7.56 27300 233000 (2019) 15800 (1964) 57600 20900 24000 31500 32900 49100 67800 80600 111000 128000
2026-03-19 04:00 7.56 27300 233000 (2019) 15800 (1964) 57600 20900 24000 31500 32900 49100 67800 80600 111000 128000
2026-03-19 03:00 7.57 27300 233000 (2019) 15800 (1964) 57600 20900 24000 31500 32900 49100 67800 80600 111000 128000
2026-03-19 02:00 7.56 27300 233000 (2019) 15800 (1964) 57600 20900 24000 31500 32900 49100 67800 80600 111000 128000
2026-03-19 01:00 7.57 27300 233000 (2019) 15800 (1964) 57600 20900 24000 31500 32900 49100 67800 80600 111000 128000
2026-03-19 00:00 7.58 27300 233000 (2019) 15800 (1964) 57600 20900 24000 31500 32900 49100 67800 80600 111000 128000
2026-03-18 23:00 7.58 27300 233000 (2019) 15800 (1964) 57600 20900 24000 31500 32900 49100 67800 80600 111000 128000
2026-03-18 22:00 7.58 27300 233000 (2019) 15300 (1964) 56400 21200 24100 32100 34400 47700 70900 77000 100000 125000
2026-03-18 21:00 7.59 27400 233000 (2019) 15300 (1964) 56400 21200 24100 32100 34400 47700 70900 77000 100000 125000
2026-03-18 20:00 7.59 27400 233000 (2019) 15300 (1964) 56400 21200 24100 32100 34400 47700 70900 77000 100000 125000
2026-03-18 19:00 7.59 27400 233000 (2019) 15300 (1964) 56400 21200 24100 32100 34400 47700 70900 77000 100000 125000
2026-03-18 18:00 7.59 27400 233000 (2019) 15300 (1964) 56400 21200 24100 32100 34400 47700 70900 77000 100000 125000
2026-03-18 17:00 7.59 27400 233000 (2019) 15300 (1964) 56400 21200 24100 32100 34400 47700 70900 77000 100000 125000
2026-03-18 16:00 7.59 27400 233000 (2019) 15300 (1964) 56400 21200 24100 32100 34400 47700 70900 77000 100000 125000
2026-03-18 15:00 7.59 27400 233000 (2019) 15300 (1964) 56400 21200 24100 32100 34400 47700 70900 77000 100000 125000
2026-03-18 14:00 7.59 27400 233000 (2019) 15300 (1964) 56400 21200 24100 32100 34400 47700 70900 77000 100000 125000
2026-03-18 13:00 7.58 27300 233000 (2019) 15300 (1964) 56400 21200 24100 32100 34400 47700 70900 77000 100000 125000
2026-03-18 12:00 7.58 27300 233000 (2019) 15300 (1964) 56400 21200 24100 32100 34400 47700 70900 77000 100000 125000
2026-03-18 11:00 7.58 27300 233000 (2019) 15300 (1964) 56400 21200 24100 32100 34400 47700 70900 77000 100000 125000
2026-03-18 10:00 7.58 27300 233000 (2019) 15300 (1964) 56400 21200 24100 32100 34400 47700 70900 77000 100000 125000
2026-03-18 09:00 7.58 27300 233000 (2019) 15300 (1964) 56400 21200 24100 32100 34400 47700 70900 77000 100000 125000
2026-03-18 08:00 7.58 27300 233000 (2019) 15300 (1964) 56400 21200 24100 32100 34400 47700 70900 77000 100000 125000
2026-03-18 07:00 7.58 27300 233000 (2019) 15300 (1964) 56400 21200 24100 32100 34400 47700 70900 77000 100000 125000
2026-03-18 06:00 7.58 27300 233000 (2019) 15300 (1964) 56400 21200 24100 32100 34400 47700 70900 77000 100000 125000
2026-03-18 05:00 7.58 27300 233000 (2019) 15300 (1964) 56400 21200 24100 32100 34400 47700 70900 77000 100000 125000
2026-03-18 04:00 7.59 27400 233000 (2019) 15300 (1964) 56400 21200 24100 32100 34400 47700 70900 77000 100000 125000
2026-03-18 03:00 7.59 27400 233000 (2019) 15300 (1964) 56400 21200 24100 32100 34400 47700 70900 77000 100000 125000
2026-03-18 02:00 7.55 27200 233000 (2019) 15300 (1964) 56400 21200 24100 32100 34400 47700 70900 77000 100000 125000
2026-03-18 01:00 7.59 27400 233000 (2019) 15300 (1964) 56400 21200 24100 32100 34400 47700 70900 77000 100000 125000
2026-03-18 00:00 7.60 27400 233000 (2019) 15300 (1964) 56400 21200 24100 32100 34400 47700 70900 77000 100000 125000
2026-03-17 23:00 7.56 27300 233000 (2019) 15300 (1964) 56400 21200 24100 32100 34400 47700 70900 77000 100000 125000
2026-03-17 22:00 7.60 27400 228000 (2019) 15000 (1964) 56100 20900 24100 31600 34100 48900 66100 76900 96500 124000
2026-03-17 21:00 7.60 27400 228000 (2019) 15000 (1964) 56100 20900 24100 31600 34100 48900 66100 76900 96500 124000
2026-03-17 20:00 7.58 27300 228000 (2019) 15000 (1964) 56100 20900 24100 31600 34100 48900 66100 76900 96500 124000
2026-03-17 19:00 7.54 27200 228000 (2019) 15000 (1964) 56100 20900 24100 31600 34100 48900 66100 76900 96500 124000
2026-03-17 18:00 7.60 27400 228000 (2019) 15000 (1964) 56100 20900 24100 31600 34100 48900 66100 76900 96500 124000
2026-03-17 17:00 7.60 27400 228000 (2019) 15000 (1964) 56100 20900 24100 31600 34100 48900 66100 76900 96500 124000
2026-03-17 16:00 7.60 27400 228000 (2019) 15000 (1964) 56100 20900 24100 31600 34100 48900 66100 76900 96500 124000
2026-03-17 15:00 7.57 27300 228000 (2019) 15000 (1964) 56100 20900 24100 31600 34100 48900 66100 76900 96500 124000
2026-03-17 14:00 7.63 27500 228000 (2019) 15000 (1964) 56100 20900 24100 31600 34100 48900 66100 76900 96500 124000
2026-03-17 13:00 7.63 27500 228000 (2019) 15000 (1964) 56100 20900 24100 31600 34100 48900 66100 76900 96500 124000
2026-03-17 12:00 7.63 27500 228000 (2019) 15000 (1964) 56100 20900 24100 31600 34100 48900 66100 76900 96500 124000
2026-03-17 11:00 7.63 27500 228000 (2019) 15000 (1964) 56100 20900 24100 31600 34100 48900 66100 76900 96500 124000
2026-03-17 10:00 7.63 27500 228000 (2019) 15000 (1964) 56100 20900 24100 31600 34100 48900 66100 76900 96500 124000
2026-03-17 09:00 7.65 27600 228000 (2019) 15000 (1964) 56100 20900 24100 31600 34100 48900 66100 76900 96500 124000
2026-03-17 08:00 7.67 27700 228000 (2019) 15000 (1964) 56100 20900 24100 31600 34100 48900 66100 76900 96500 124000
2026-03-17 07:00 7.68 27700 228000 (2019) 15000 (1964) 56100 20900 24100 31600 34100 48900 66100 76900 96500 124000
2026-03-17 06:00 7.69 27800 228000 (2019) 15000 (1964) 56100 20900 24100 31600 34100 48900 66100 76900 96500 124000
2026-03-17 05:00 7.70 27800 228000 (2019) 15000 (1964) 56100 20900 24100 31600 34100 48900 66100 76900 96500 124000
2026-03-17 04:00 7.71 27800 228000 (2019) 15000 (1964) 56100 20900 24100 31600 34100 48900 66100 76900 96500 124000
2026-03-17 03:00 7.72 27900 228000 (2019) 15000 (1964) 56100 20900 24100 31600 34100 48900 66100 76900 96500 124000
2026-03-17 02:00 7.72 27900 228000 (2019) 15000 (1964) 56100 20900 24100 31600 34100 48900 66100 76900 96500 124000
2026-03-17 01:00 7.72 27900 228000 (2019) 15000 (1964) 56100 20900 24100 31600 34100 48900 66100 76900 96500 124000
2026-03-17 00:00 7.74 28000 228000 (2019) 15000 (1964) 56100 20900 24100 31600 34100 48900 66100 76900 96500 124000
2026-03-16 23:00 7.75 28000 228000 (2019) 15000 (1964) 56100 20900 24100 31600 34100 48900 66100 76900 96500 124000
2026-03-16 22:00 7.75 28000 223000 (2019) 15000 (1964) 56400 21200 24200 31800 34300 48400 65300 74700 101000 124000
2026-03-16 21:00 7.76 28000 223000 (2019) 15000 (1964) 56400 21200 24200 31800 34300 48400 65300 74700 101000 124000
2026-03-16 20:00 7.78 28100 223000 (2019) 15000 (1964) 56400 21200 24200 31800 34300 48400 65300 74700 101000 124000
2026-03-16 19:00 7.74 28000 223000 (2019) 15000 (1964) 56400 21200 24200 31800 34300 48400 65300 74700 101000 124000
2026-03-16 18:00 7.73 27900 223000 (2019) 15000 (1964) 56400 21200 24200 31800 34300 48400 65300 74700 101000 124000
2026-03-16 17:00 7.75 28000 223000 (2019) 15000 (1964) 56400 21200 24200 31800 34300 48400 65300 74700 101000 124000
2026-03-16 16:00 7.73 27900 223000 (2019) 15000 (1964) 56400 21200 24200 31800 34300 48400 65300 74700 101000 124000
2026-03-16 15:00 7.76 28000 223000 (2019) 15000 (1964) 56400 21200 24200 31800 34300 48400 65300 74700 101000 124000
2026-03-16 14:00 7.77 28100 223000 (2019) 15000 (1964) 56400 21200 24200 31800 34300 48400 65300 74700 101000 124000
2026-03-16 13:00 7.78 28100 223000 (2019) 15000 (1964) 56400 21200 24200 31800 34300 48400 65300 74700 101000 124000
2026-03-16 12:00 7.80 28200 223000 (2019) 15000 (1964) 56400 21200 24200 31800 34300 48400 65300 74700 101000 124000
2026-03-16 11:00 7.80 28200 223000 (2019) 15000 (1964) 56400 21200 24200 31800 34300 48400 65300 74700 101000 124000
2026-03-16 10:00 7.84 28400 223000 (2019) 15000 (1964) 56400 21200 24200 31800 34300 48400 65300 74700 101000 124000
2026-03-16 09:00 7.81 28300 223000 (2019) 15000 (1964) 56400 21200 24200 31800 34300 48400 65300 74700 101000 124000
2026-03-16 08:00 7.85 28400 223000 (2019) 15000 (1964) 56400 21200 24200 31800 34300 48400 65300 74700 101000 124000
2026-03-16 07:00 7.89 28600 223000 (2019) 15000 (1964) 56400 21200 24200 31800 34300 48400 65300 74700 101000 124000
2026-03-16 06:00 7.88 28500 223000 (2019) 15000 (1964) 56400 21200 24200 31800 34300 48400 65300 74700 101000 124000
2026-03-16 05:00 7.90 28600 223000 (2019) 15000 (1964) 56400 21200 24200 31800 34300 48400 65300 74700 101000 124000
2026-03-16 04:00 7.92 28700 223000 (2019) 15000 (1964) 56400 21200 24200 31800 34300 48400 65300 74700 101000 124000
2026-03-16 03:00 7.91 28700 223000 (2019) 15000 (1964) 56400 21200 24200 31800 34300 48400 65300 74700 101000 124000
2026-03-16 02:00 7.90 28600 223000 (2019) 15000 (1964) 56400 21200 24200 31800 34300 48400 65300 74700 101000 124000
2026-03-16 01:00 7.94 28800 223000 (2019) 15000 (1964) 56400 21200 24200 31800 34300 48400 65300 74700 101000 124000
2026-03-16 00:00 7.95 28800 223000 (2019) 15000 (1964) 56400 21200 24200 31800 34300 48400 65300 74700 101000 124000
2026-03-15 23:00 7.96 28900 223000 (2019) 15000 (1964) 56400 21200 24200 31800 34300 48400 65300 74700 101000 124000
2026-03-15 22:00 7.96 28900 211000 (2019) 15000 (1964) 55700 22100 24100 32300 36500 45900 61200 67200 102000 126000
2026-03-15 21:00 7.96 28900 211000 (2019) 15000 (1964) 55700 22100 24100 32300 36500 45900 61200 67200 102000 126000
2026-03-15 20:00 7.98 28900 211000 (2019) 15000 (1964) 55700 22100 24100 32300 36500 45900 61200 67200 102000 126000
2026-03-15 19:00 7.98 28900 211000 (2019) 15000 (1964) 55700 22100 24100 32300 36500 45900 61200 67200 102000 126000
2026-03-15 18:00 8.00 29000 211000 (2019) 15000 (1964) 55700 22100 24100 32300 36500 45900 61200 67200 102000 126000
2026-03-15 17:00 8.04 29200 211000 (2019) 15000 (1964) 55700 22100 24100 32300 36500 45900 61200 67200 102000 126000
2026-03-15 16:00 8.05 29200 211000 (2019) 15000 (1964) 55700 22100 24100 32300 36500 45900 61200 67200 102000 126000
2026-03-15 15:00 8.10 29400 211000 (2019) 15000 (1964) 55700 22100 24100 32300 36500 45900 61200 67200 102000 126000
2026-03-15 14:00 8.12 29500 211000 (2019) 15000 (1964) 55700 22100 24100 32300 36500 45900 61200 67200 102000 126000
2026-03-15 13:00 8.11 29500 211000 (2019) 15000 (1964) 55700 22100 24100 32300 36500 45900 61200 67200 102000 126000
2026-03-15 12:00 8.13 29600 211000 (2019) 15000 (1964) 55700 22100 24100 32300 36500 45900 61200 67200 102000 126000
2026-03-15 11:00 8.15 29600 211000 (2019) 15000 (1964) 55700 22100 24100 32300 36500 45900 61200 67200 102000 126000
2026-03-15 10:00 8.20 29900 211000 (2019) 15000 (1964) 55700 22100 24100 32300 36500 45900 61200 67200 102000 126000
2026-03-15 09:00 8.22 29900 211000 (2019) 15000 (1964) 55700 22100 24100 32300 36500 45900 61200 67200 102000 126000
2026-03-15 08:00 8.24 30000 211000 (2019) 15000 (1964) 55700 22100 24100 32300 36500 45900 61200 67200 102000 126000
2026-03-15 07:00 8.26 30100 211000 (2019) 15000 (1964) 55700 22100 24100 32300 36500 45900 61200 67200 102000 126000
2026-03-15 06:00 8.27 30100 211000 (2019) 15000 (1964) 55700 22100 24100 32300 36500 45900 61200 67200 102000 126000
2026-03-15 05:00 8.27 30100 211000 (2019) 15000 (1964) 55700 22100 24100 32300 36500 45900 61200 67200 102000 126000
2026-03-15 04:00 8.29 30200 211000 (2019) 15000 (1964) 55700 22100 24100 32300 36500 45900 61200 67200 102000 126000
2026-03-15 03:00 8.32 30400 211000 (2019) 15000 (1964) 55700 22100 24100 32300 36500 45900 61200 67200 102000 126000
2026-03-15 02:00 8.35 30500 211000 (2019) 15000 (1964) 55700 22100 24100 32300 36500 45900 61200 67200 102000 126000
2026-03-15 01:00 8.39 30700 211000 (2019) 15000 (1964) 55700 22100 24100 32300 36500 45900 61200 67200 102000 126000
2026-03-15 00:00 8.42 30800 211000 (2019) 15000 (1964) 55700 22100 24100 32300 36500 45900 61200 67200 102000 126000
2026-03-14 23:00 8.43 30800 211000 (2019) 15000 (1964) 55700 22100 24100 32300 36500 45900 61200 67200 102000 126000
2026-03-14 22:00 8.43 30800 173000 (2019) 15200 (1964) 53900 20500 25000 29700 33600 47200 58800 65800 98200 139000
2026-03-14 21:00 8.47 31000 173000 (2019) 15200 (1964) 53900 20500 25000 29700 33600 47200 58800 65800 98200 139000
2026-03-14 20:00 8.51 31200 173000 (2019) 15200 (1964) 53900 20500 25000 29700 33600 47200 58800 65800 98200 139000
2026-03-14 19:00 8.50 31100 173000 (2019) 15200 (1964) 53900 20500 25000 29700 33600 47200 58800 65800 98200 139000
2026-03-14 18:00 8.50 31100 173000 (2019) 15200 (1964) 53900 20500 25000 29700 33600 47200 58800 65800 98200 139000
2026-03-14 17:00 8.52 31200 173000 (2019) 15200 (1964) 53900 20500 25000 29700 33600 47200 58800 65800 98200 139000
2026-03-14 16:00 8.54 31300 173000 (2019) 15200 (1964) 53900 20500 25000 29700 33600 47200 58800 65800 98200 139000
2026-03-14 15:00 8.54 31300 173000 (2019) 15200 (1964) 53900 20500 25000 29700 33600 47200 58800 65800 98200 139000
2026-03-14 14:00 8.57 31400 173000 (2019) 15200 (1964) 53900 20500 25000 29700 33600 47200 58800 65800 98200 139000
2026-03-14 13:00 8.57 31400 173000 (2019) 15200 (1964) 53900 20500 25000 29700 33600 47200 58800 65800 98200 139000
2026-03-14 12:00 8.60 31600 173000 (2019) 15200 (1964) 53900 20500 25000 29700 33600 47200 58800 65800 98200 139000
2026-03-14 11:00 8.60 31600 173000 (2019) 15200 (1964) 53900 20500 25000 29700 33600 47200 58800 65800 98200 139000
2026-03-14 10:00 8.62 31700 173000 (2019) 15200 (1964) 53900 20500 25000 29700 33600 47200 58800 65800 98200 139000
2026-03-14 09:00 8.67 31900 173000 (2019) 15200 (1964) 53900 20500 25000 29700 33600 47200 58800 65800 98200 139000
2026-03-14 08:00 8.72 32100 173000 (2019) 15200 (1964) 53900 20500 25000 29700 33600 47200 58800 65800 98200 139000
2026-03-14 07:00 8.74 32200 173000 (2019) 15200 (1964) 53900 20500 25000 29700 33600 47200 58800 65800 98200 139000
2026-03-14 06:00 8.79 32400 173000 (2019) 15200 (1964) 53900 20500 25000 29700 33600 47200 58800 65800 98200 139000
2026-03-14 05:00 8.79 32400 173000 (2019) 15200 (1964) 53900 20500 25000 29700 33600 47200 58800 65800 98200 139000
2026-03-14 04:00 8.84 32600 173000 (2019) 15200 (1964) 53900 20500 25000 29700 33600 47200 58800 65800 98200 139000
2026-03-14 03:00 8.84 32600 173000 (2019) 15200 (1964) 53900 20500 25000 29700 33600 47200 58800 65800 98200 139000
2026-03-14 02:00 8.92 33000 173000 (2019) 15200 (1964) 53900 20500 25000 29700 33600 47200 58800 65800 98200 139000
2026-03-14 01:00 8.96 33200 173000 (2019) 15200 (1964) 53900 20500 25000 29700 33600 47200 58800 65800 98200 139000
2026-03-14 00:00 9.05 33600 173000 (2019) 15200 (1964) 53900 20500 25000 29700 33600 47200 58800 65800 98200 139000
2026-03-13 23:00 9.08 33700 173000 (2019) 15200 (1964) 53900 20500 25000 29700 33600 47200 58800 65800 98200 139000
2026-03-13 22:00 9.12 33900 155000 (1973) 15400 (1964) 52000 20700 23800 29100 32000 46000 58500 64500 90800 132000
2026-03-13 21:00 9.16 34100 155000 (1973) 15400 (1964) 52000 20700 23800 29100 32000 46000 58500 64500 90800 132000
2026-03-13 20:00 9.21 34300 155000 (1973) 15400 (1964) 52000 20700 23800 29100 32000 46000 58500 64500 90800 132000
2026-03-13 19:00 9.27 34600 155000 (1973) 15400 (1964) 52000 20700 23800 29100 32000 46000 58500 64500 90800 132000
2026-03-13 18:00 9.32 34800 155000 (1973) 15400 (1964) 52000 20700 23800 29100 32000 46000 58500 64500 90800 132000
2026-03-13 17:00 9.38 35100 155000 (1973) 15400 (1964) 52000 20700 23800 29100 32000 46000 58500 64500 90800 132000
2026-03-13 16:00 9.43 35400 155000 (1973) 15400 (1964) 52000 20700 23800 29100 32000 46000 58500 64500 90800 132000
2026-03-13 15:00 9.48 35600 155000 (1973) 15400 (1964) 52000 20700 23800 29100 32000 46000 58500 64500 90800 132000
2026-03-13 14:00 9.54 35900 155000 (1973) 15400 (1964) 52000 20700 23800 29100 32000 46000 58500 64500 90800 132000
2026-03-13 13:00 9.59 36100 155000 (1973) 15400 (1964) 52000 20700 23800 29100 32000 46000 58500 64500 90800 132000
2026-03-13 12:00 9.66 36500 155000 (1973) 15400 (1964) 52000 20700 23800 29100 32000 46000 58500 64500 90800 132000
2026-03-13 11:00 9.72 36800 155000 (1973) 15400 (1964) 52000 20700 23800 29100 32000 46000 58500 64500 90800 132000
2026-03-13 10:00 9.75 36900 155000 (1973) 15400 (1964) 52000 20700 23800 29100 32000 46000 58500 64500 90800 132000
2026-03-13 09:00 9.90 37700 155000 (1973) 15400 (1964) 52000 20700 23800 29100 32000 46000 58500 64500 90800 132000
2026-03-13 08:00 9.97 38300 155000 (1973) 15400 (1964) 52000 20700 23800 29100 32000 46000 58500 64500 90800 132000
2026-03-13 07:00 10.04 38600 155000 (1973) 15400 (1964) 52000 20700 23800 29100 32000 46000 58500 64500 90800 132000
2026-03-13 06:00 10.12 39000 155000 (1973) 15400 (1964) 52000 20700 23800 29100 32000 46000 58500 64500 90800 132000
2026-03-13 05:00 10.25 39700 155000 (1973) 15400 (1964) 52000 20700 23800 29100 32000 46000 58500 64500 90800 132000
2026-03-13 04:00 10.33 40100 155000 (1973) 15400 (1964) 52000 20700 23800 29100 32000 46000 58500 64500 90800 132000
2026-03-13 03:00 10.42 40600 155000 (1973) 15400 (1964) 52000 20700 23800 29100 32000 46000 58500 64500 90800 132000
2026-03-13 02:00 10.52 41100 155000 (1973) 15400 (1964) 52000 20700 23800 29100 32000 46000 58500 64500 90800 132000
2026-03-13 01:00 10.64 41800 155000 (1973) 15400 (1964) 52000 20700 23800 29100 32000 46000 58500 64500 90800 132000
2026-03-13 00:00 10.75 42400 155000 (1973) 15400 (1964) 52000 20700 23800 29100 32000 46000 58500 64500 90800 132000
2026-03-12 23:00 10.84 42800 155000 (1973) 15400 (1964) 52000 20700 23800 29100 32000 46000 58500 64500 90800 132000
2026-03-12 22:00 10.96 43500 157000 (1973) 15900 (1964) 50100 21000 24000 28500 31400 43300 54200 59400 97500 123000
2026-03-12 21:00 11.08 44200 157000 (1973) 15900 (1964) 50100 21000 24000 28500 31400 43300 54200 59400 97500 123000
2026-03-12 20:00 11.20 44900 157000 (1973) 15900 (1964) 50100 21000 24000 28500 31400 43300 54200 59400 97500 123000
2026-03-12 19:00 11.29 45400 157000 (1973) 15900 (1964) 50100 21000 24000 28500 31400 43300 54200 59400 97500 123000
2026-03-12 18:00 11.37 45800 157000 (1973) 15900 (1964) 50100 21000 24000 28500 31400 43300 54200 59400 97500 123000
2026-03-12 17:00 11.43 46200 157000 (1973) 15900 (1964) 50100 21000 24000 28500 31400 43300 54200 59400 97500 123000
2026-03-12 16:00 11.51 46700 157000 (1973) 15900 (1964) 50100 21000 24000 28500 31400 43300 54200 59400 97500 123000
2026-03-12 15:00 11.60 47200 157000 (1973) 15900 (1964) 50100 21000 24000 28500 31400 43300 54200 59400 97500 123000
2026-03-12 14:00 11.69 47700 157000 (1973) 15900 (1964) 50100 21000 24000 28500 31400 43300 54200 59400 97500 123000
2026-03-12 13:00 11.76 48100 157000 (1973) 15900 (1964) 50100 21000 24000 28500 31400 43300 54200 59400 97500 123000
2026-03-12 12:00 11.80 48400 157000 (1973) 15900 (1964) 50100 21000 24000 28500 31400 43300 54200 59400 97500 123000
2026-03-12 11:00 11.85 48700 157000 (1973) 15900 (1964) 50100 21000 24000 28500 31400 43300 54200 59400 97500 123000
2026-03-12 10:00 11.88 48900 157000 (1973) 15900 (1964) 50100 21000 24000 28500 31400 43300 54200 59400 97500 123000
2026-03-12 09:00 11.88 48900 157000 (1973) 15900 (1964) 50100 21000 24000 28500 31400 43300 54200 59400 97500 123000
2026-03-12 08:00 11.89 48900 157000 (1973) 15900 (1964) 50100 21000 24000 28500 31400 43300 54200 59400 97500 123000
2026-03-12 07:00 11.87 48800 157000 (1973) 15900 (1964) 50100 21000 24000 28500 31400 43300 54200 59400 97500 123000
2026-03-12 06:00 11.84 48600 157000 (1973) 15900 (1964) 50100 21000 24000 28500 31400 43300 54200 59400 97500 123000
2026-03-12 05:00 11.80 48400 157000 (1973) 15900 (1964) 50100 21000 24000 28500 31400 43300 54200 59400 97500 123000
2026-03-12 04:00 11.73 48000 157000 (1973) 15900 (1964) 50100 21000 24000 28500 31400 43300 54200 59400 97500 123000
2026-03-12 03:00 11.65 47500 157000 (1973) 15900 (1964) 50100 21000 24000 28500 31400 43300 54200 59400 97500 123000
2026-03-12 02:00 11.53 46800 157000 (1973) 15900 (1964) 50100 21000 24000 28500 31400 43300 54200 59400 97500 123000
2026-03-12 01:00 11.41 46100 157000 (1973) 15900 (1964) 50100 21000 24000 28500 31400 43300 54200 59400 97500 123000
2026-03-12 00:00 11.25 45100 157000 (1973) 15900 (1964) 50100 21000 24000 28500 31400 43300 54200 59400 97500 123000
2026-03-11 23:00 11.07 44100 157000 (1973) 15900 (1964) 50100 21000 24000 28500 31400 43300 54200 59400 97500 123000
2026-03-11 22:00 10.87 43000 142000 (1973) 16600 (1964) 49600 20900 22900 28400 30200 41900 55400 61000 102000 114000
2026-03-11 21:00 10.67 41900 142000 (1973) 16600 (1964) 49600 20900 22900 28400 30200 41900 55400 61000 102000 114000
2026-03-11 20:00 10.44 40700 142000 (1973) 16600 (1964) 49600 20900 22900 28400 30200 41900 55400 61000 102000 114000
2026-03-11 19:00 10.22 39500 142000 (1973) 16600 (1964) 49600 20900 22900 28400 30200 41900 55400 61000 102000 114000
2026-03-11 18:00 1 38400 142000 (1973) 16600 (1964) 49600 20900 22900 28400 30200 41900 55400 61000 102000 114000
2026-03-11 17:00 9.76 37200 142000 (1973) 16600 (1964) 49600 20900 22900 28400 30200 41900 55400 61000 102000 114000
2026-03-11 16:00 9.56 36200 142000 (1973) 16600 (1964) 49600 20900 22900 28400 30200 41900 55400 61000 102000 114000
2026-03-11 15:00 9.36 35300 142000 (1973) 16600 (1964) 49600 20900 22900 28400 30200 41900 55400 61000 102000 114000
2026-03-11 14:00 9.20 34500 142000 (1973) 16600 (1964) 49600 20900 22900 28400 30200 41900 55400 61000 102000 114000
2026-03-11 13:00 9.04 33800 142000 (1973) 16600 (1964) 49600 20900 22900 28400 30200 41900 55400 61000 102000 114000
2026-03-11 12:00 8.87 33000 142000 (1973) 16600 (1964) 49600 20900 22900 28400 30200 41900 55400 61000 102000 114000
2026-03-11 11:00 8.78 32600 142000 (1973) 16600 (1964) 49600 20900 22900 28400 30200 41900 55400 61000 102000 114000
2026-03-11 10:00 8.68 32100 142000 (1973) 16600 (1964) 49600 20900 22900 28400 30200 41900 55400 61000 102000 114000
2026-03-11 09:00 8.57 31700 142000 (1973) 16600 (1964) 49600 20900 22900 28400 30200 41900 55400 61000 102000 114000
2026-03-11 08:00 8.53 31500 142000 (1973) 16600 (1964) 49600 20900 22900 28400 30200 41900 55400 61000 102000 114000
2026-03-11 07:00 8.46 31200 142000 (1973) 16600 (1964) 49600 20900 22900 28400 30200 41900 55400 61000 102000 114000
2026-03-11 06:00 8.40 30900 142000 (1973) 16600 (1964) 49600 20900 22900 28400 30200 41900 55400 61000 102000 114000
2026-03-11 05:00 8.39 30900 142000 (1973) 16600 (1964) 49600 20900 22900 28400 30200 41900 55400 61000 102000 114000
2026-03-11 04:00 8.37 30800 142000 (1973) 16600 (1964) 49600 20900 22900 28400 30200 41900 55400 61000 102000 114000
2026-03-11 03:00 8.32 30600 142000 (1973) 16600 (1964) 49600 20900 22900 28400 30200 41900 55400 61000 102000 114000
2026-03-11 02:00 8.29 30400 142000 (1973) 16600 (1964) 49600 20900 22900 28400 30200 41900 55400 61000 102000 114000
2026-03-11 01:00 8.26 30300 142000 (1973) 16600 (1964) 49600 20900 22900 28400 30200 41900 55400 61000 102000 114000
2026-03-11 00:00 8.21 30100 142000 (1973) 16600 (1964) 49600 20900 22900 28400 30200 41900 55400 61000 102000 114000
2026-03-10 23:00 8.22 30100 142000 (1973) 16600 (1964) 49600 20900 22900 28400 30200 41900 55400 61000 102000 114000
2026-03-10 22:00 8.21 30100 132000 (1973) 17800 (1964) 48900 21600 23700 26700 30100 40800 59700 62400 84200 113000
2026-03-10 21:00 8.21 30100 132000 (1973) 17800 (1964) 48900 21600 23700 26700 30100 40800 59700 62400 84200 113000
2026-03-10 20:00 8.21 30100 132000 (1973) 17800 (1964) 48900 21600 23700 26700 30100 40800 59700 62400 84200 113000
2026-03-10 19:00 8.21 30100 132000 (1973) 17800 (1964) 48900 21600 23700 26700 30100 40800 59700 62400 84200 113000
2026-03-10 18:00 8.20 30100 132000 (1973) 17800 (1964) 48900 21600 23700 26700 30100 40800 59700 62400 84200 113000
2026-03-10 17:00 8.16 29900 132000 (1973) 17800 (1964) 48900 21600 23700 26700 30100 40800 59700 62400 84200 113000
2026-03-10 16:00 8.17 29900 132000 (1973) 17800 (1964) 48900 21600 23700 26700 30100 40800 59700 62400 84200 113000
2026-03-10 15:00 8.13 29800 132000 (1973) 17800 (1964) 48900 21600 23700 26700 30100 40800 59700 62400 84200 113000
2026-03-10 14:00 8.19 30000 132000 (1973) 17800 (1964) 48900 21600 23700 26700 30100 40800 59700 62400 84200 113000
2026-03-10 13:00 8.19 30000 132000 (1973) 17800 (1964) 48900 21600 23700 26700 30100 40800 59700 62400 84200 113000
2026-03-10 12:00 8.19 30000 132000 (1973) 17800 (1964) 48900 21600 23700 26700 30100 40800 59700 62400 84200 113000
2026-03-10 11:00 8.19 30000 132000 (1973) 17800 (1964) 48900 21600 23700 26700 30100 40800 59700 62400 84200 113000
2026-03-10 10:00 8.23 30200 132000 (1973) 17800 (1964) 48900 21600 23700 26700 30100 40800 59700 62400 84200 113000
2026-03-10 09:00 8.24 30200 132000 (1973) 17800 (1964) 48900 21600 23700 26700 30100 40800 59700 62400 84200 113000
2026-03-10 08:00 8.24 30200 132000 (1973) 17800 (1964) 48900 21600 23700 26700 30100 40800 59700 62400 84200 113000
2026-03-10 07:00 8.25 30300 132000 (1973) 17800 (1964) 48900 21600 23700 26700 30100 40800 59700 62400 84200 113000
2026-03-10 06:00 8.24 30200 132000 (1973) 17800 (1964) 48900 21600 23700 26700 30100 40800 59700 62400 84200 113000
2026-03-10 05:00 8.26 30300 132000 (1973) 17800 (1964) 48900 21600 23700 26700 30100 40800 59700 62400 84200 113000
2026-03-10 04:00 8.26 30300 132000 (1973) 17800 (1964) 48900 21600 23700 26700 30100 40800 59700 62400 84200 113000
2026-03-10 03:00 8.28 30400 132000 (1973) 17800 (1964) 48900 21600 23700 26700 30100 40800 59700 62400 84200 113000
2026-03-10 02:00 8.28 30400 132000 (1973) 17800 (1964) 48900 21600 23700 26700 30100 40800 59700 62400 84200 113000
2026-03-10 01:00 8.28 30400 132000 (1973) 17800 (1964) 48900 21600 23700 26700 30100 40800 59700 62400 84200 113000
2026-03-10 00:00 8.30 30500 132000 (1973) 17800 (1964) 48900 21600 23700 26700 30100 40800 59700 62400 84200 113000
2026-03-09 23:00 8.31 30500 132000 (1973) 17800 (1964) 48900 21600 23700 26700 30100 40800 59700 62400 84200 113000
2026-03-09 22:00 8.32 30600 133000 (1973) 18200 (1964) 48400 22500 24300 26700 28500 41600 60800 63400 77600 111000
2026-03-09 21:00 8.33 30600 133000 (1973) 18200 (1964) 48400 22500 24300 26700 28500 41600 60800 63400 77600 111000
2026-03-09 20:00 8.35 30700 133000 (1973) 18200 (1964) 48400 22500 24300 26700 28500 41600 60800 63400 77600 111000
2026-03-09 19:00 8.37 30800 133000 (1973) 18200 (1964) 48400 22500 24300 26700 28500 41600 60800 63400 77600 111000
2026-03-09 18:00 8.34 30700 133000 (1973) 18200 (1964) 48400 22500 24300 26700 28500 41600 60800 63400 77600 111000
2026-03-09 17:00 8.41 31000 133000 (1973) 18200 (1964) 48400 22500 24300 26700 28500 41600 60800 63400 77600 111000
2026-03-09 16:00 8.39 30900 133000 (1973) 18200 (1964) 48400 22500 24300 26700 28500 41600 60800 63400 77600 111000
2026-03-09 15:00 8.42 31000 133000 (1973) 18200 (1964) 48400 22500 24300 26700 28500 41600 60800 63400 77600 111000
2026-03-09 14:00 8.47 31200 133000 (1973) 18200 (1964) 48400 22500 24300 26700 28500 41600 60800 63400 77600 111000
2026-03-09 13:00 8.44 31100 133000 (1973) 18200 (1964) 48400 22500 24300 26700 28500 41600 60800 63400 77600 111000
2026-03-09 12:00 8.50 31400 133000 (1973) 18200 (1964) 48400 22500 24300 26700 28500 41600 60800 63400 77600 111000
2026-03-09 11:00 8.50 31400 133000 (1973) 18200 (1964) 48400 22500 24300 26700 28500 41600 60800 63400 77600 111000
2026-03-09 10:00 8.52 31400 133000 (1973) 18200 (1964) 48400 22500 24300 26700 28500 41600 60800 63400 77600 111000
2026-03-09 09:00 8.55 31600 133000 (1973) 18200 (1964) 48400 22500 24300 26700 28500 41600 60800 63400 77600 111000
2026-03-09 08:00 8.58 31700 133000 (1973) 18200 (1964) 48400 22500 24300 26700 28500 41600 60800 63400 77600 111000
2026-03-09 07:00 8.60 31800 133000 (1973) 18200 (1964) 48400 22500 24300 26700 28500 41600 60800 63400 77600 111000
2026-03-09 06:00 8.62 31900 133000 (1973) 18200 (1964) 48400 22500 24300 26700 28500 41600 60800 63400 77600 111000
2026-03-09 05:00 8.64 32000 133000 (1973) 18200 (1964) 48400 22500 24300 26700 28500 41600 60800 63400 77600 111000
2026-03-09 04:00 8.66 32100 133000 (1973) 18200 (1964) 48400 22500 24300 26700 28500 41600 60800 63400 77600 111000
2026-03-09 03:00 8.69 32200 133000 (1973) 18200 (1964) 48400 22500 24300 26700 28500 41600 60800 63400 77600 111000
2026-03-09 02:00 8.72 32300 133000 (1973) 18200 (1964) 48400 22500 24300 26700 28500 41600 60800 63400 77600 111000
2026-03-09 01:00 8.75 32500 133000 (1973) 18200 (1964) 48400 22500 24300 26700 28500 41600 60800 63400 77600 111000
2026-03-09 00:00 8.79 32600 133000 (1973) 18200 (1964) 48400 22500 24300 26700 28500 41600 60800 63400 77600 111000
2026-03-08 23:00 8.81 32700 133000 (1973) 18200 (1964) 48400 22500 24300 26700 28500 41600 60800 63400 77600 111000
2026-03-08 22:00 8.84 32900 151000 (1979) 17300 (1964) 48500 22600 24700 26700 29500 42200 60800 63900 79300 108000
2026-03-08 21:00 8.87 33000 151000 (1979) 17300 (1964) 48500 22600 24700 26700 29500 42200 60800 63900 79300 108000
2026-03-08 20:00 8.89 33100 151000 (1979) 17300 (1964) 48500 22600 24700 26700 29500 42200 60800 63900 79300 108000
2026-03-08 19:00 8.94 33300 151000 (1979) 17300 (1964) 48500 22600 24700 26700 29500 42200 60800 63900 79300 108000
2026-03-08 18:00 8.98 33500 151000 (1979) 17300 (1964) 48500 22600 24700 26700 29500 42200 60800 63900 79300 108000
2026-03-08 17:00 9.01 33600 151000 (1979) 17300 (1964) 48500 22600 24700 26700 29500 42200 60800 63900 79300 108000
2026-03-08 16:00 9.03 33700 151000 (1979) 17300 (1964) 48500 22600 24700 26700 29500 42200 60800 63900 79300 108000
2026-03-08 15:00 9.12 34100 151000 (1979) 17300 (1964) 48500 22600 24700 26700 29500 42200 60800 63900 79300 108000
2026-03-08 14:00 9.13 34200 151000 (1979) 17300 (1964) 48500 22600 24700 26700 29500 42200 60800 63900 79300 108000
2026-03-08 13:00 9.16 34300 151000 (1979) 17300 (1964) 48500 22600 24700 26700 29500 42200 60800 63900 79300 108000
2026-03-08 12:00 9.20 34500 151000 (1979) 17300 (1964) 48500 22600 24700 26700 29500 42200 60800 63900 79300 108000
2026-03-08 11:00 9.26 34800 151000 (1979) 17300 (1964) 48500 22600 24700 26700 29500 42200 60800 63900 79300 108000
2026-03-08 10:00 9.30 35000 151000 (1979) 17300 (1964) 48500 22600 24700 26700 29500 42200 60800 63900 79300 108000
2026-03-08 09:00 9.33 35100 151000 (1979) 17300 (1964) 48500 22600 24700 26700 29500 42200 60800 63900 79300 108000
2026-03-08 08:00 9.37 35300 151000 (1979) 17300 (1964) 48500 22600 24700 26700 29500 42200 60800 63900 79300 108000
2026-03-08 07:00 9.40 35500 151000 (1979) 17300 (1964) 48500 22600 24700 26700 29500 42200 60800 63900 79300 108000
2026-03-08 06:00 9.43 35600 151000 (1979) 17300 (1964) 48500 22600 24700 26700 29500 42200 60800 63900 79300 108000
2026-03-08 05:00 9.44 35600 151000 (1979) 17300 (1964) 48500 22600 24700 26700 29500 42200 60800 63900 79300 108000
2026-03-08 04:00 9.46 35700 151000 (1979) 17300 (1964) 48500 22600 24700 26700 29500 42200 60800 63900 79300 108000
2026-03-08 03:00 9.47 35800 151000 (1979) 17300 (1964) 48500 22600 24700 26700 29500 42200 60800 63900 79300 108000
2026-03-08 01:00 9.49 35900 151000 (1979) 17300 (1964) 48500 22600 24700 26700 29500 42200 60800 63900 79300 108000
2026-03-08 00:00 9.49 35900 151000 (1979) 17300 (1964) 48500 22600 24700 26700 29500 42200 60800 63900 79300 108000
2026-03-07 23:00 9.49 35900 151000 (1979) 17300 (1964) 48500 22600 24700 26700 29500 42200 60800 63900 79300 108000
2026-03-07 22:00 9.47 35800 139000 (1973) 16200 (1964) 48800 22500 25200 26700 30000 44900 59000 63900 84200 111000
2026-03-07 21:00 9.46 35700 139000 (1973) 16200 (1964) 48800 22500 25200 26700 30000 44900 59000 63900 84200 111000
2026-03-07 20:00 9.43 35600 139000 (1973) 16200 (1964) 48800 22500 25200 26700 30000 44900 59000 63900 84200 111000
2026-03-07 19:00 9.38 35400 139000 (1973) 16200 (1964) 48800 22500 25200 26700 30000 44900 59000 63900 84200 111000
2026-03-07 18:00 9.33 35100 139000 (1973) 16200 (1964) 48800 22500 25200 26700 30000 44900 59000 63900 84200 111000
2026-03-07 17:00 9.21 34600 139000 (1973) 16200 (1964) 48800 22500 25200 26700 30000 44900 59000 63900 84200 111000
2026-03-07 16:00 9.18 34400 139000 (1973) 16200 (1964) 48800 22500 25200 26700 30000 44900 59000 63900 84200 111000
2026-03-07 15:00 9.03 33700 139000 (1973) 16200 (1964) 48800 22500 25200 26700 30000 44900 59000 63900 84200 111000
2026-03-07 14:00 8.99 33500 139000 (1973) 16200 (1964) 48800 22500 25200 26700 30000 44900 59000 63900 84200 111000
2026-03-07 13:00 8.81 32700 139000 (1973) 16200 (1964) 48800 22500 25200 26700 30000 44900 59000 63900 84200 111000
2026-03-07 12:00 8.70 32200 139000 (1973) 16200 (1964) 48800 22500 25200 26700 30000 44900 59000 63900 84200 111000
2026-03-07 11:00 8.53 31500 139000 (1973) 16200 (1964) 48800 22500 25200 26700 30000 44900 59000 63900 84200 111000
2026-03-07 10:00 8.40 30900 139000 (1973) 16200 (1964) 48800 22500 25200 26700 30000 44900 59000 63900 84200 111000
2026-03-07 09:00 8.25 30300 139000 (1973) 16200 (1964) 48800 22500 25200 26700 30000 44900 59000 63900 84200 111000
2026-03-07 08:00 8.16 29900 139000 (1973) 16200 (1964) 48800 22500 25200 26700 30000 44900 59000 63900 84200 111000
2026-03-07 07:00 8.05 29400 139000 (1973) 16200 (1964) 48800 22500 25200 26700 30000 44900 59000 63900 84200 111000
2026-03-07 06:00 7.94 29000 139000 (1973) 16200 (1964) 48800 22500 25200 26700 30000 44900 59000 63900 84200 111000
2026-03-07 05:00 7.84 28600 139000 (1973) 16200 (1964) 48800 22500 25200 26700 30000 44900 59000 63900 84200 111000
2026-03-07 04:00 7.77 28300 139000 (1973) 16200 (1964) 48800 22500 25200 26700 30000 44900 59000 63900 84200 111000
2026-03-07 03:00 7.71 28000 139000 (1973) 16200 (1964) 48800 22500 25200 26700 30000 44900 59000 63900 84200 111000
2026-03-07 02:00 7.72 28100 139000 (1973) 16200 (1964) 48800 22500 25200 26700 30000 44900 59000 63900 84200 111000
2026-03-07 01:00 7.62 27700 139000 (1973) 16200 (1964) 48800 22500 25200 26700 30000 44900 59000 63900 84200 111000
2026-03-07 00:00 7.60 27600 139000 (1973) 16200 (1964) 48800 22500 25200 26700 30000 44900 59000 63900 84200 111000
2026-03-06 23:00 7.56 27500 139000 (1973) 16200 (1964) 48800 22500 25200 26700 30000 44900 59000 63900 84200 111000
2026-03-06 22:00 7.55 27400 154000 (1979) 15400 (1964) 49400 22600 25100 26700 27300 44200 59800 64100 84100 107000
2026-03-06 21:00 7.53 27300 154000 (1979) 15400 (1964) 49400 22600 25100 26700 27300 44200 59800 64100 84100 107000
2026-03-06 20:00 7.45 27000 154000 (1979) 15400 (1964) 49400 22600 25100 26700 27300 44200 59800 64100 84100 107000
2026-03-06 19:00 7.43 26900 154000 (1979) 15400 (1964) 49400 22600 25100 26700 27300 44200 59800 64100 84100 107000
2026-03-06 18:00 7.44 27000 154000 (1979) 15400 (1964) 49400 22600 25100 26700 27300 44200 59800 64100 84100 107000
2026-03-06 17:00 7.40 26800 154000 (1979) 15400 (1964) 49400 22600 25100 26700 27300 44200 59800 64100 84100 107000
2026-03-06 16:00 7.44 27000 154000 (1979) 15400 (1964) 49400 22600 25100 26700 27300 44200 59800 64100 84100 107000
2026-03-06 15:00 7.43 26900 154000 (1979) 15400 (1964) 49400 22600 25100 26700 27300 44200 59800 64100 84100 107000
2026-03-06 14:00 7.43 26900 154000 (1979) 15400 (1964) 49400 22600 25100 26700 27300 44200 59800 64100 84100 107000
2026-03-06 13:00 7.43 26900 154000 (1979) 15400 (1964) 49400 22600 25100 26700 27300 44200 59800 64100 84100 107000
2026-03-06 12:00 7.42 26900 154000 (1979) 15400 (1964) 49400 22600 25100 26700 27300 44200 59800 64100 84100 107000
2026-03-06 11:00 7.39 26800 154000 (1979) 15400 (1964) 49400 22600 25100 26700 27300 44200 59800 64100 84100 107000
2026-03-06 10:00 7.40 26800 154000 (1979) 15400 (1964) 49400 22600 25100 26700 27300 44200 59800 64100 84100 107000
2026-03-06 09:00 7.38 26800 154000 (1979) 15400 (1964) 49400 22600 25100 26700 27300 44200 59800 64100 84100 107000
2026-03-06 08:00 7.40 26800 154000 (1979) 15400 (1964) 49400 22600 25100 26700 27300 44200 59800 64100 84100 107000
2026-03-06 07:00 7.41 26900 154000 (1979) 15400 (1964) 49400 22600 25100 26700 27300 44200 59800 64100 84100 107000
2026-03-06 06:00 7.37 26700 154000 (1979) 15400 (1964) 49400 22600 25100 26700 27300 44200 59800 64100 84100 107000
2026-03-06 05:00 7.39 26800 154000 (1979) 15400 (1964) 49400 22600 25100 26700 27300 44200 59800 64100 84100 107000
2026-03-06 04:00 7.38 26800 154000 (1979) 15400 (1964) 49400 22600 25100 26700 27300 44200 59800 64100 84100 107000
2026-03-06 03:00 7.38 26800 154000 (1979) 15400 (1964) 49400 22600 25100 26700 27300 44200 59800 64100 84100 107000
2026-03-06 02:00 7.36 26700 154000 (1979) 15400 (1964) 49400 22600 25100 26700 27300 44200 59800 64100 84100 107000
2026-03-06 01:00 7.37 26700 154000 (1979) 15400 (1964) 49400 22600 25100 26700 27300 44200 59800 64100 84100 107000
2026-03-06 00:00 7.41 26900 154000 (1979) 15400 (1964) 49400 22600 25100 26700 27300 44200 59800 64100 84100 107000
2026-03-05 23:00 7.42 26900 154000 (1979) 15400 (1964) 49400 22600 25100 26700 27300 44200 59800 64100 84100 107000
2026-03-05 22:00 7.37 26700 189000 (1979) 15000 (1964) 50100 21000 24400 26400 27600 46800 62100 62800 93600 104000
2026-03-05 21:00 7.42 26900 189000 (1979) 15000 (1964) 50100 21000 24400 26400 27600 46800 62100 62800 93600 104000
2026-03-05 20:00 7.42 26900 189000 (1979) 15000 (1964) 50100 21000 24400 26400 27600 46800 62100 62800 93600 104000
2026-03-05 19:00 7.43 26900 189000 (1979) 15000 (1964) 50100 21000 24400 26400 27600 46800 62100 62800 93600 104000
2026-03-05 18:00 7.44 27000 189000 (1979) 15000 (1964) 50100 21000 24400 26400 27600 46800 62100 62800 93600 104000
2026-03-05 17:00 7.45 27000 189000 (1979) 15000 (1964) 50100 21000 24400 26400 27600 46800 62100 62800 93600 104000
2026-03-05 16:00 7.46 27100 189000 (1979) 15000 (1964) 50100 21000 24400 26400 27600 46800 62100 62800 93600 104000
2026-03-05 15:00 7.48 27100 189000 (1979) 15000 (1964) 50100 21000 24400 26400 27600 46800 62100 62800 93600 104000
2026-03-05 14:00 7.49 27200 189000 (1979) 15000 (1964) 50100 21000 24400 26400 27600 46800 62100 62800 93600 104000
2026-03-05 13:00 7.49 27200 189000 (1979) 15000 (1964) 50100 21000 24400 26400 27600 46800 62100 62800 93600 104000
2026-03-05 12:00 7.51 27300 189000 (1979) 15000 (1964) 50100 21000 24400 26400 27600 46800 62100 62800 93600 104000
2026-03-05 11:00 7.52 27300 189000 (1979) 15000 (1964) 50100 21000 24400 26400 27600 46800 62100 62800 93600 104000
2026-03-05 10:00 7.53 27300 189000 (1979) 15000 (1964) 50100 21000 24400 26400 27600 46800 62100 62800 93600 104000
2026-03-05 09:00 7.54 27400 189000 (1979) 15000 (1964) 50100 21000 24400 26400 27600 46800 62100 62800 93600 104000
2026-03-05 08:00 7.55 27400 189000 (1979) 15000 (1964) 50100 21000 24400 26400 27600 46800 62100 62800 93600 104000
2026-03-05 07:00 7.55 27400 189000 (1979) 15000 (1964) 50100 21000 24400 26400 27600 46800 62100 62800 93600 104000
2026-03-05 06:00 7.56 27500 189000 (1979) 15000 (1964) 50100 21000 24400 26400 27600 46800 62100 62800 93600 104000
2026-03-05 05:00 7.58 27500 189000 (1979) 15000 (1964) 50100 21000 24400 26400 27600 46800 62100 62800 93600 104000
2026-03-05 04:00 7.59 27600 189000 (1979) 15000 (1964) 50100 21000 24400 26400 27600 46800 62100 62800 93600 104000
2026-03-05 03:00 7.61 27700 189000 (1979) 15000 (1964) 50100 21000 24400 26400 27600 46800 62100 62800 93600 104000
2026-03-05 02:00 7.61 27700 189000 (1979) 15000 (1964) 50100 21000 24400 26400 27600 46800 62100 62800 93600 104000
2026-03-05 01:00 7.63 27700 189000 (1979) 15000 (1964) 50100 21000 24400 26400 27600 46800 62100 62800 93600 104000
2026-03-05 00:00 7.64 27800 189000 (1979) 15000 (1964) 50100 21000 24400 26400 27600 46800 62100 62800 93600 104000
2026-03-04 23:00 7.64 27800 189000 (1979) 15000 (1964) 50100 21000 24400 26400 27600 46800 62100 62800 93600 104000
2026-03-04 22:00 7.65 27800 140000 (1979) 14700 (1964) 49000 20600 23600 26700 27800 44600 61300 64400 88700 101000
2026-03-04 21:00 7.66 27800 140000 (1979) 14700 (1964) 49000 20600 23600 26700 27800 44600 61300 64400 88700 101000
2026-03-04 20:00 7.66 27800 140000 (1979) 14700 (1964) 49000 20600 23600 26700 27800 44600 61300 64400 88700 101000
2026-03-04 19:00 7.68 27900 140000 (1979) 14700 (1964) 49000 20600 23600 26700 27800 44600 61300 64400 88700 101000
2026-03-04 18:00 7.68 27900 140000 (1979) 14700 (1964) 49000 20600 23600 26700 27800 44600 61300 64400 88700 101000
2026-03-04 17:00 7.69 28000 140000 (1979) 14700 (1964) 49000 20600 23600 26700 27800 44600 61300 64400 88700 101000
2026-03-04 16:00 7.70 28000 140000 (1979) 14700 (1964) 49000 20600 23600 26700 27800 44600 61300 64400 88700 101000
2026-03-04 15:00 7.72 28100 140000 (1979) 14700 (1964) 49000 20600 23600 26700 27800 44600 61300 64400 88700 101000
2026-03-04 14:00 7.72 28100 140000 (1979) 14700 (1964) 49000 20600 23600 26700 27800 44600 61300 64400 88700 101000
2026-03-04 13:00 7.70 28000 140000 (1979) 14700 (1964) 49000 20600 23600 26700 27800 44600 61300 64400 88700 101000
2026-03-04 12:00 7.74 28200 140000 (1979) 14700 (1964) 49000 20600 23600 26700 27800 44600 61300 64400 88700 101000
2026-03-04 11:00 7.65 27800 140000 (1979) 14700 (1964) 49000 20600 23600 26700 27800 44600 61300 64400 88700 101000
2026-03-04 10:00 7.76 28300 140000 (1979) 14700 (1964) 49000 20600 23600 26700 27800 44600 61300 64400 88700 101000
2026-03-04 09:00 7.77 28300 140000 (1979) 14700 (1964) 49000 20600 23600 26700 27800 44600 61300 64400 88700 101000
2026-03-04 08:00 7.78 28300 140000 (1979) 14700 (1964) 49000 20600 23600 26700 27800 44600 61300 64400 88700 101000
2026-03-04 07:00 7.78 28300 140000 (1979) 14700 (1964) 49000 20600 23600 26700 27800 44600 61300 64400 88700 101000
2026-03-04 06:00 7.79 28400 140000 (1979) 14700 (1964) 49000 20600 23600 26700 27800 44600 61300 64400 88700 101000
2026-03-04 05:00 7.80 28400 140000 (1979) 14700 (1964) 49000 20600 23600 26700 27800 44600 61300 64400 88700 101000
2026-03-04 04:00 7.83 28500 140000 (1979) 14700 (1964) 49000 20600 23600 26700 27800 44600 61300 64400 88700 101000
2026-03-04 03:00 7.84 28600 140000 (1979) 14700 (1964) 49000 20600 23600 26700 27800 44600 61300 64400 88700 101000
2026-03-04 02:00 7.86 28700 140000 (1979) 14700 (1964) 49000 20600 23600 26700 27800 44600 61300 64400 88700 101000
2026-03-04 01:00 7.86 28700 140000 (1979) 14700 (1964) 49000 20600 23600 26700 27800 44600 61300 64400 88700 101000
2026-03-04 00:00 7.84 28600 140000 (1979) 14700 (1964) 49000 20600 23600 26700 27800 44600 61300 64400 88700 101000
2026-03-03 23:00 7.88 28700 140000 (1979) 14700 (1964) 49000 20600 23600 26700 27800 44600 61300 64400 88700 101000
2026-03-03 22:00 7.88 28700 136000 (1965) 14100 (1967) 47900 20900 22800 26500 28800 45100 62900 66200 78200 85900
2026-03-03 21:00 7.89 28800 136000 (1965) 14100 (1967) 47900 20900 22800 26500 28800 45100 62900 66200 78200 85900
2026-03-03 20:00 7.91 28900 136000 (1965) 14100 (1967) 47900 20900 22800 26500 28800 45100 62900 66200 78200 85900
2026-03-03 19:00 7.91 28900 136000 (1965) 14100 (1967) 47900 20900 22800 26500 28800 45100 62900 66200 78200 85900
2026-03-03 18:00 7.93 28900 136000 (1965) 14100 (1967) 47900 20900 22800 26500 28800 45100 62900 66200 78200 85900
2026-03-03 17:00 7.92 28900 136000 (1965) 14100 (1967) 47900 20900 22800 26500 28800 45100 62900 66200 78200 85900
2026-03-03 16:00 7.94 29000 136000 (1965) 14100 (1967) 47900 20900 22800 26500 28800 45100 62900 66200 78200 85900
2026-03-03 15:00 7.93 28900 136000 (1965) 14100 (1967) 47900 20900 22800 26500 28800 45100 62900 66200 78200 85900
2026-03-03 14:00 7.94 29000 136000 (1965) 14100 (1967) 47900 20900 22800 26500 28800 45100 62900 66200 78200 85900
2026-03-03 13:00 7.94 29000 136000 (1965) 14100 (1967) 47900 20900 22800 26500 28800 45100 62900 66200 78200 85900
2026-03-03 12:00 7.92 28900 136000 (1965) 14100 (1967) 47900 20900 22800 26500 28800 45100 62900 66200 78200 85900
2026-03-03 11:00 7.92 28900 136000 (1965) 14100 (1967) 47900 20900 22800 26500 28800 45100 62900 66200 78200 85900
2026-03-03 10:00 7.89 28800 136000 (1965) 14100 (1967) 47900 20900 22800 26500 28800 45100 62900 66200 78200 85900
2026-03-03 09:00 7.88 28700 136000 (1965) 14100 (1967) 47900 20900 22800 26500 28800 45100 62900 66200 78200 85900
2026-03-03 08:00 7.86 28700 136000 (1965) 14100 (1967) 47900 20900 22800 26500 28800 45100 62900 66200 78200 85900
2026-03-03 07:00 7.83 28500 136000 (1965) 14100 (1967) 47900 20900 22800 26500 28800 45100 62900 66200 78200 85900
2026-03-03 06:00 7.80 28400 136000 (1965) 14100 (1967) 47900 20900 22800 26500 28800 45100 62900 66200 78200 85900
2026-03-03 05:00 7.77 28300 136000 (1965) 14100 (1967) 47900 20900 22800 26500 28800 45100 62900 66200 78200 85900
2026-03-03 04:00 7.73 28100 136000 (1965) 14100 (1967) 47900 20900 22800 26500 28800 45100 62900 66200 78200 85900
2026-03-03 03:00 7.69 28000 136000 (1965) 14100 (1967) 47900 20900 22800 26500 28800 45100 62900 66200 78200 85900
2026-03-03 02:00 7.64 27800 136000 (1965) 14100 (1967) 47900 20900 22800 26500 28800 45100 62900 66200 78200 85900
2026-03-03 01:00 7.57 27500 136000 (1965) 14100 (1967) 47900 20900 22800 26500 28800 45100 62900 66200 78200 85900
2026-03-03 00:00 7.49 27200 136000 (1965) 14100 (1967) 47900 20900 22800 26500 28800 45100 62900 66200 78200 85900
2026-03-02 23:00 7.49 27200 136000 (1965) 14100 (1967) 47900 20900 22800 26500 28800 45100 62900 66200 78200 85900
2026-03-02 22:00 7.43 26900 120000 (1965) 13800 (1967) 47400 21400 22800 26800 29200 41900 62400 65000 78900 92700
2026-03-02 21:00 7.38 26800 120000 (1965) 13800 (1967) 47400 21400 22800 26800 29200 41900 62400 65000 78900 92700
2026-03-02 20:00 7.29 26400 120000 (1965) 13800 (1967) 47400 21400 22800 26800 29200 41900 62400 65000 78900 92700
2026-03-02 19:00 7.25 26300 120000 (1965) 13800 (1967) 47400 21400 22800 26800 29200 41900 62400 65000 78900 92700
2026-03-02 18:00 7.24 26200 120000 (1965) 13800 (1967) 47400 21400 22800 26800 29200 41900 62400 65000 78900 92700
2026-03-02 17:00 7.18 26000 120000 (1965) 13800 (1967) 47400 21400 22800 26800 29200 41900 62400 65000 78900 92700
2026-03-02 16:00 7.12 25800 120000 (1965) 13800 (1967) 47400 21400 22800 26800 29200 41900 62400 65000 78900 92700
2026-03-02 15:00 7.06 25500 120000 (1965) 13800 (1967) 47400 21400 22800 26800 29200 41900 62400 65000 78900 92700
2026-03-02 14:00 7.02 25400 120000 (1965) 13800 (1967) 47400 21400 22800 26800 29200 41900 62400 65000 78900 92700
2026-03-02 13:00 7.02 25400 120000 (1965) 13800 (1967) 47400 21400 22800 26800 29200 41900 62400 65000 78900 92700
2026-03-02 12:00 6.96 25200 120000 (1965) 13800 (1967) 47400 21400 22800 26800 29200 41900 62400 65000 78900 92700
2026-03-02 11:00 6.96 25200 120000 (1965) 13800 (1967) 47400 21400 22800 26800 29200 41900 62400 65000 78900 92700
2026-03-02 10:00 6.94 25100 120000 (1965) 13800 (1967) 47400 21400 22800 26800 29200 41900 62400 65000 78900 92700
2026-03-02 09:00 6.95 25100 120000 (1965) 13800 (1967) 47400 21400 22800 26800 29200 41900 62400 65000 78900 92700
2026-03-02 08:00 6.95 25100 120000 (1965) 13800 (1967) 47400 21400 22800 26800 29200 41900 62400 65000 78900 92700
2026-03-02 07:00 6.89 24900 120000 (1965) 13800 (1967) 47400 21400 22800 26800 29200 41900 62400 65000 78900 92700
2026-03-02 06:00 6.86 24800 120000 (1965) 13800 (1967) 47400 21400 22800 26800 29200 41900 62400 65000 78900 92700
2026-03-02 05:00 6.85 24800 120000 (1965) 13800 (1967) 47400 21400 22800 26800 29200 41900 62400 65000 78900 92700
2026-03-02 04:00 6.85 24800 120000 (1965) 13800 (1967) 47400 21400 22800 26800 29200 41900 62400 65000 78900 92700
2026-03-02 03:00 6.83 24700 120000 (1965) 13800 (1967) 47400 21400 22800 26800 29200 41900 62400 65000 78900 92700
2026-03-02 02:00 6.82 24700 120000 (1965) 13800 (1967) 47400 21400 22800 26800 29200 41900 62400 65000 78900 92700
2026-03-02 01:00 6.81 24600 120000 (1965) 13800 (1967) 47400 21400 22800 26800 29200 41900 62400 65000 78900 92700
2026-03-02 00:00 6.78 24500 120000 (1965) 13800 (1967) 47400 21400 22800 26800 29200 41900 62400 65000 78900 92700
2026-03-01 23:00 6.77 24500 120000 (1965) 13800 (1967) 47400 21400 22800 26800 29200 41900 62400 65000 78900 92700
2026-03-01 22:00 6.79 24500 103000 (1971) 13800 (1967) 46000 21900 23600 26900 27600 40500 58300 65700 80300 89400
2026-03-01 21:00 6.80 24600 103000 (1971) 13800 (1967) 46000 21900 23600 26900 27600 40500 58300 65700 80300 89400
2026-03-01 20:00 6.78 24500 103000 (1971) 13800 (1967) 46000 21900 23600 26900 27600 40500 58300 65700 80300 89400
2026-03-01 19:00 6.75 24400 103000 (1971) 13800 (1967) 46000 21900 23600 26900 27600 40500 58300 65700 80300 89400
2026-03-01 18:00 6.73 24300 103000 (1971) 13800 (1967) 46000 21900 23600 26900 27600 40500 58300 65700 80300 89400
2026-03-01 17:00 6.71 24300 103000 (1971) 13800 (1967) 46000 21900 23600 26900 27600 40500 58300 65700 80300 89400
2026-03-01 16:00 6.73 24300 103000 (1971) 13800 (1967) 46000 21900 23600 26900 27600 40500 58300 65700 80300 89400
2026-03-01 15:00 6.70 24200 103000 (1971) 13800 (1967) 46000 21900 23600 26900 27600 40500 58300 65700 80300 89400
2026-03-01 14:00 6.70 24200 103000 (1971) 13800 (1967) 46000 21900 23600 26900 27600 40500 58300 65700 80300 89400
2026-03-01 13:00 6.69 24200 103000 (1971) 13800 (1967) 46000 21900 23600 26900 27600 40500 58300 65700 80300 89400
2026-03-01 12:00 6.72 24300 103000 (1971) 13800 (1967) 46000 21900 23600 26900 27600 40500 58300 65700 80300 89400
2026-03-01 11:00 6.70 24200 103000 (1971) 13800 (1967) 46000 21900 23600 26900 27600 40500 58300 65700 80300 89400
2026-03-01 10:00 6.71 24300 103000 (1971) 13800 (1967) 46000 21900 23600 26900 27600 40500 58300 65700 80300 89400
2026-03-01 09:00 6.70 24200 103000 (1971) 13800 (1967) 46000 21900 23600 26900 27600 40500 58300 65700 80300 89400
2026-03-01 08:00 6.70 24200 103000 (1971) 13800 (1967) 46000 21900 23600 26900 27600 40500 58300 65700 80300 89400
2026-03-01 07:00 6.73 24300 103000 (1971) 13800 (1967) 46000 21900 23600 26900 27600 40500 58300 65700 80300 89400
2026-03-01 06:00 6.73 24300 103000 (1971) 13800 (1967) 46000 21900 23600 26900 27600 40500 58300 65700 80300 89400
2026-03-01 05:00 6.73 24300 103000 (1971) 13800 (1967) 46000 21900 23600 26900 27600 40500 58300 65700 80300 89400
2026-03-01 04:00 6.77 24500 103000 (1971) 13800 (1967) 46000 21900 23600 26900 27600 40500 58300 65700 80300 89400
2026-03-01 03:00 6.74 24400 103000 (1971) 13800 (1967) 46000 21900 23600 26900 27600 40500 58300 65700 80300 89400
2026-03-01 02:00 6.74 24400 103000 (1971) 13800 (1967) 46000 21900 23600 26900 27600 40500 58300 65700 80300 89400
2026-03-01 01:00 6.79 24500 103000 (1971) 13800 (1967) 46000 21900 23600 26900 27600 40500 58300 65700 80300 89400
2026-03-01 00:00 6.77 24500 103000 (1971) 13800 (1967) 46000 21900 23600 26900 27600 40500 58300 65700 80300 89400
2026-02-28 23:00 6.76 24400 103000 (1971) 13800 (1967) 46000 21900 23600 26900 27600 40500 58300 65700 80300 89400
2026-02-28 22:00 6.85 24800 107000 (1971) 13500 (1967) 45900 22000 24600 26900 28900 40600 57400 66400 78300 94000
2026-02-28 21:00 6.85 24800 107000 (1971) 13500 (1967) 45900 22000 24600 26900 28900 40600 57400 66400 78300 94000
2026-02-28 20:00 6.86 24800 107000 (1971) 13500 (1967) 45900 22000 24600 26900 28900 40600 57400 66400 78300 94000
2026-02-28 19:00 6.86 24800 107000 (1971) 13500 (1967) 45900 22000 24600 26900 28900 40600 57400 66400 78300 94000
2026-02-28 18:00 6.85 24800 107000 (1971) 13500 (1967) 45900 22000 24600 26900 28900 40600 57400 66400 78300 94000
2026-02-28 17:00 6.84 24700 107000 (1971) 13500 (1967) 45900 22000 24600 26900 28900 40600 57400 66400 78300 94000
2026-02-28 16:00 6.89 24900 107000 (1971) 13500 (1967) 45900 22000 24600 26900 28900 40600 57400 66400 78300 94000
2026-02-28 15:00 6.90 24900 107000 (1971) 13500 (1967) 45900 22000 24600 26900 28900 40600 57400 66400 78300 94000
2026-02-28 14:00 6.90 24900 107000 (1971) 13500 (1967) 45900 22000 24600 26900 28900 40600 57400 66400 78300 94000
2026-02-28 13:00 6.85 24800 107000 (1971) 13500 (1967) 45900 22000 24600 26900 28900 40600 57400 66400 78300 94000
2026-02-28 12:00 6.82 24700 107000 (1971) 13500 (1967) 45900 22000 24600 26900 28900 40600 57400 66400 78300 94000
2026-02-28 11:00 6.84 24700 107000 (1971) 13500 (1967) 45900 22000 24600 26900 28900 40600 57400 66400 78300 94000
2026-02-28 10:00 6.86 24800 107000 (1971) 13500 (1967) 45900 22000 24600 26900 28900 40600 57400 66400 78300 94000
2026-02-28 09:00 6.85 24800 107000 (1971) 13500 (1967) 45900 22000 24600 26900 28900 40600 57400 66400 78300 94000
2026-02-28 08:00 6.89 24900 107000 (1971) 13500 (1967) 45900 22000 24600 26900 28900 40600 57400 66400 78300 94000
2026-02-28 07:00 6.95 25100 107000 (1971) 13500 (1967) 45900 22000 24600 26900 28900 40600 57400 66400 78300 94000
2026-02-28 06:00 6.95 25100 107000 (1971) 13500 (1967) 45900 22000 24600 26900 28900 40600 57400 66400 78300 94000
2026-02-28 05:00 6.95 25100 107000 (1971) 13500 (1967) 45900 22000 24600 26900 28900 40600 57400 66400 78300 94000
2026-02-28 04:00 6.94 25100 107000 (1971) 13500 (1967) 45900 22000 24600 26900 28900 40600 57400 66400 78300 94000
2026-02-28 03:00 6.93 25100 107000 (1971) 13500 (1967) 45900 22000 24600 26900 28900 40600 57400 66400 78300 94000
2026-02-28 02:00 6.95 25100 107000 (1971) 13500 (1967) 45900 22000 24600 26900 28900 40600 57400 66400 78300 94000
2026-02-28 01:00 6.96 25200 107000 (1971) 13500 (1967) 45900 22000 24600 26900 28900 40600 57400 66400 78300 94000
2026-02-28 00:00 6.97 25200 107000 (1971) 13500 (1967) 45900 22000 24600 26900 28900 40600 57400 66400 78300 94000
2026-02-27 23:00 6.97 25200 107000 (1971) 13500 (1967) 45900 22000 24600 26900 28900 40600 57400 66400 78300 94000
2026-02-27 22:00 6.97 25200 110000 (1982) 13500 (1967) 46200 21700 24000 27700 30100 40100 58100 64700 79000 94900
2026-02-27 21:00 6.98 25200 110000 (1982) 13500 (1967) 46200 21700 24000 27700 30100 40100 58100 64700 79000 94900
2026-02-27 20:00 6.98 25200 110000 (1982) 13500 (1967) 46200 21700 24000 27700 30100 40100 58100 64700 79000 94900
2026-02-27 19:00 6.98 25200 110000 (1982) 13500 (1967) 46200 21700 24000 27700 30100 40100 58100 64700 79000 94900
2026-02-27 18:00 6.99 25300 110000 (1982) 13500 (1967) 46200 21700 24000 27700 30100 40100 58100 64700 79000 94900
2026-02-27 17:00 7.00 25300 110000 (1982) 13500 (1967) 46200 21700 24000 27700 30100 40100 58100 64700 79000 94900
2026-02-27 16:00 6.94 25100 110000 (1982) 13500 (1967) 46200 21700 24000 27700 30100 40100 58100 64700 79000 94900
2026-02-27 15:00 7.00 25300 110000 (1982) 13500 (1967) 46200 21700 24000 27700 30100 40100 58100 64700 79000 94900
2026-02-27 14:00 6.94 25100 110000 (1982) 13500 (1967) 46200 21700 24000 27700 30100 40100 58100 64700 79000 94900
2026-02-27 13:00 6.95 25100 110000 (1982) 13500 (1967) 46200 21700 24000 27700 30100 40100 58100 64700 79000 94900
2026-02-27 12:00 6.95 25100 110000 (1982) 13500 (1967) 46200 21700 24000 27700 30100 40100 58100 64700 79000 94900
2026-02-27 11:00 6.96 25200 110000 (1982) 13500 (1967) 46200 21700 24000 27700 30100 40100 58100 64700 79000 94900
2026-02-27 10:00 6.97 25200 110000 (1982) 13500 (1967) 46200 21700 24000 27700 30100 40100 58100 64700 79000 94900
2026-02-27 09:00 7.00 25300 110000 (1982) 13500 (1967) 46200 21700 24000 27700 30100 40100 58100 64700 79000 94900
2026-02-27 08:00 7.04 25500 110000 (1982) 13500 (1967) 46200 21700 24000 27700 30100 40100 58100 64700 79000 94900
2026-02-27 07:00 7.06 25500 110000 (1982) 13500 (1967) 46200 21700 24000 27700 30100 40100 58100 64700 79000 94900
2026-02-27 06:00 7.06 25500 110000 (1982) 13500 (1967) 46200 21700 24000 27700 30100 40100 58100 64700 79000 94900
2026-02-27 05:00 7.07 25600 110000 (1982) 13500 (1967) 46200 21700 24000 27700 30100 40100 58100 64700 79000 94900
2026-02-27 04:00 7.08 25600 110000 (1982) 13500 (1967) 46200 21700 24000 27700 30100 40100 58100 64700 79000 94900
2026-02-27 03:00 7.08 25600 110000 (1982) 13500 (1967) 46200 21700 24000 27700 30100 40100 58100 64700 79000 94900
2026-02-27 02:00 7.08 25600 110000 (1982) 13500 (1967) 46200 21700 24000 27700 30100 40100 58100 64700 79000 94900
2026-02-27 01:00 7.09 25600 110000 (1982) 13500 (1967) 46200 21700 24000 27700 30100 40100 58100 64700 79000 94900
2026-02-27 00:00 7.10 25700 110000 (1982) 13500 (1967) 46200 21700 24000 27700 30100 40100 58100 64700 79000 94900
2026-02-26 23:00 7.11 25700 110000 (1982) 13500 (1967) 46200 21700 24000 27700 30100 40100 58100 64700 79000 94900
2026-02-26 22:00 7.12 25800 134000 (1982) 14700 (1967) 47100 21900 23800 28000 30700 39900 58000 67600 80600 95300
2026-02-26 21:00 7.13 25800 134000 (1982) 14700 (1967) 47100 21900 23800 28000 30700 39900 58000 67600 80600 95300
2026-02-26 20:00 7.13 25800 134000 (1982) 14700 (1967) 47100 21900 23800 28000 30700 39900 58000 67600 80600 95300
2026-02-26 19:00 7.14 25800 134000 (1982) 14700 (1967) 47100 21900 23800 28000 30700 39900 58000 67600 80600 95300
2026-02-26 18:00 7.15 25900 134000 (1982) 14700 (1967) 47100 21900 23800 28000 30700 39900 58000 67600 80600 95300
2026-02-26 17:00 7.16 25900 134000 (1982) 14700 (1967) 47100 21900 23800 28000 30700 39900 58000 67600 80600 95300
2026-02-26 16:00 7.18 26000 134000 (1982) 14700 (1967) 47100 21900 23800 28000 30700 39900 58000 67600 80600 95300
2026-02-26 15:00 7.19 26000 134000 (1982) 14700 (1967) 47100 21900 23800 28000 30700 39900 58000 67600 80600 95300
2026-02-26 14:00 7.20 26100 134000 (1982) 14700 (1967) 47100 21900 23800 28000 30700 39900 58000 67600 80600 95300
2026-02-26 13:00 7.21 26100 134000 (1982) 14700 (1967) 47100 21900 23800 28000 30700 39900 58000 67600 80600 95300
2026-02-26 12:00 7.19 26000 134000 (1982) 14700 (1967) 47100 21900 23800 28000 30700 39900 58000 67600 80600 95300
2026-02-26 11:00 7.22 26100 134000 (1982) 14700 (1967) 47100 21900 23800 28000 30700 39900 58000 67600 80600 95300
2026-02-26 10:00 7.25 26300 134000 (1982) 14700 (1967) 47100 21900 23800 28000 30700 39900 58000 67600 80600 95300
2026-02-26 09:00 7.26 26300 134000 (1982) 14700 (1967) 47100 21900 23800 28000 30700 39900 58000 67600 80600 95300
2026-02-26 08:00 7.28 26400 134000 (1982) 14700 (1967) 47100 21900 23800 28000 30700 39900 58000 67600 80600 95300
2026-02-26 07:00 7.28 26400 134000 (1982) 14700 (1967) 47100 21900 23800 28000 30700 39900 58000 67600 80600 95300
2026-02-26 06:00 7.29 26400 134000 (1982) 14700 (1967) 47100 21900 23800 28000 30700 39900 58000 67600 80600 95300
2026-02-26 05:00 7.30 26400 134000 (1982) 14700 (1967) 47100 21900 23800 28000 30700 39900 58000 67600 80600 95300
2026-02-26 04:00 7.31 26500 134000 (1982) 14700 (1967) 47100 21900 23800 28000 30700 39900 58000 67600 80600 95300
2026-02-26 03:00 7.32 26500 134000 (1982) 14700 (1967) 47100 21900 23800 28000 30700 39900 58000 67600 80600 95300
2026-02-26 02:00 7.33 26600 134000 (1982) 14700 (1967) 47100 21900 23800 28000 30700 39900 58000 67600 80600 95300
2026-02-26 01:00 7.25 26300 134000 (1982) 14700 (1967) 47100 21900 23800 28000 30700 39900 58000 67600 80600 95300
2026-02-26 00:00 7.27 26300 134000 (1982) 14700 (1967) 47100 21900 23800 28000 30700 39900 58000 67600 80600 95300
2026-02-25 23:00 7.31 26500 134000 (1982) 14700 (1967) 47100 21900 23800 28000 30700 39900 58000 67600 80600 95300
2026-02-25 22:00 7.40 26800 128000 (1982) 15000 (1967) 46900 21400 23400 28600 31200 39400 57700 68000 80300 105000
2026-02-25 21:00 7.41 26900 128000 (1982) 15000 (1967) 46900 21400 23400 28600 31200 39400 57700 68000 80300 105000
2026-02-25 20:00 7.42 26900 128000 (1982) 15000 (1967) 46900 21400 23400 28600 31200 39400 57700 68000 80300 105000
2026-02-25 19:00 7.43 26900 128000 (1982) 15000 (1967) 46900 21400 23400 28600 31200 39400 57700 68000 80300 105000
2026-02-25 18:00 7.44 27000 128000 (1982) 15000 (1967) 46900 21400 23400 28600 31200 39400 57700 68000 80300 105000
2026-02-25 17:00 7.41 26900 128000 (1982) 15000 (1967) 46900 21400 23400 28600 31200 39400 57700 68000 80300 105000
2026-02-25 16:00 7.42 26900 128000 (1982) 15000 (1967) 46900 21400 23400 28600 31200 39400 57700 68000 80300 105000
2026-02-25 15:00 7.42 26900 128000 (1982) 15000 (1967) 46900 21400 23400 28600 31200 39400 57700 68000 80300 105000
2026-02-25 14:00 7.43 26900 128000 (1982) 15000 (1967) 46900 21400 23400 28600 31200 39400 57700 68000 80300 105000
2026-02-25 13:00 7.47 27100 128000 (1982) 15000 (1967) 46900 21400 23400 28600 31200 39400 57700 68000 80300 105000
2026-02-25 12:00 7.47 27100 128000 (1982) 15000 (1967) 46900 21400 23400 28600 31200 39400 57700 68000 80300 105000
2026-02-25 11:00 7.49 27200 128000 (1982) 15000 (1967) 46900 21400 23400 28600 31200 39400 57700 68000 80300 105000
2026-02-25 10:00 7.51 27300 128000 (1982) 15000 (1967) 46900 21400 23400 28600 31200 39400 57700 68000 80300 105000
2026-02-25 09:00 7.57 27500 128000 (1982) 15000 (1967) 46900 21400 23400 28600 31200 39400 57700 68000 80300 105000
2026-02-25 08:00 7.58 27500 128000 (1982) 15000 (1967) 46900 21400 23400 28600 31200 39400 57700 68000 80300 105000
2026-02-25 07:00 7.59 27600 128000 (1982) 15000 (1967) 46900 21400 23400 28600 31200 39400 57700 68000 80300 105000
2026-02-25 06:00 7.60 27600 128000 (1982) 15000 (1967) 46900 21400 23400 28600 31200 39400 57700 68000 80300 105000
2026-02-25 05:00 7.60 27600 128000 (1982) 15000 (1967) 46900 21400 23400 28600 31200 39400 57700 68000 80300 105000
2026-02-25 04:00 7.61 27700 128000 (1982) 15000 (1967) 46900 21400 23400 28600 31200 39400 57700 68000 80300 105000
2026-02-25 03:00 7.61 27700 128000 (1982) 15000 (1967) 46900 21400 23400 28600 31200 39400 57700 68000 80300 105000
2026-02-25 02:00 7.62 27700 128000 (1982) 15000 (1967) 46900 21400 23400 28600 31200 39400 57700 68000 80300 105000
2026-02-25 01:00 7.62 27700 128000 (1982) 15000 (1967) 46900 21400 23400 28600 31200 39400 57700 68000 80300 105000
2026-02-25 00:00 7.61 27700 128000 (1982) 15000 (1967) 46900 21400 23400 28600 31200 39400 57700 68000 80300 105000
2026-02-24 23:00 7.61 27700 128000 (1982) 15000 (1967) 46900 21400 23400 28600 31200 39400 57700 68000 80300 105000
2026-02-24 22:00 7.62 27700 122000 (1982) 14600 (1967) 46500 19600 23400 28300 30200 39200 54500 61600 81200 117000
2026-02-24 21:00 7.62 27700 122000 (1982) 14600 (1967) 46500 19600 23400 28300 30200 39200 54500 61600 81200 117000
2026-02-24 20:00 7.62 27700 122000 (1982) 14600 (1967) 46500 19600 23400 28300 30200 39200 54500 61600 81200 117000
2026-02-24 19:00 7.62 27700 122000 (1982) 14600 (1967) 46500 19600 23400 28300 30200 39200 54500 61600 81200 117000
2026-02-24 18:00 7.62 27700 122000 (1982) 14600 (1967) 46500 19600 23400 28300 30200 39200 54500 61600 81200 117000
2026-02-24 17:00 7.62 27700 122000 (1982) 14600 (1967) 46500 19600 23400 28300 30200 39200 54500 61600 81200 117000
2026-02-24 16:00 7.58 27500 122000 (1982) 14600 (1967) 46500 19600 23400 28300 30200 39200 54500 61600 81200 117000
2026-02-24 15:00 7.55 27400 122000 (1982) 14600 (1967) 46500 19600 23400 28300 30200 39200 54500 61600 81200 117000
2026-02-24 14:00 7.61 27700 122000 (1982) 14600 (1967) 46500 19600 23400 28300 30200 39200 54500 61600 81200 117000
2026-02-24 13:00 7.53 27300 122000 (1982) 14600 (1967) 46500 19600 23400 28300 30200 39200 54500 61600 81200 117000
2026-02-24 12:00 7.53 27300 122000 (1982) 14600 (1967) 46500 19600 23400 28300 30200 39200 54500 61600 81200 117000
2026-02-24 11:00 7.52 27300 122000 (1982) 14600 (1967) 46500 19600 23400 28300 30200 39200 54500 61600 81200 117000
2026-02-24 10:00 7.53 27300 122000 (1982) 14600 (1967) 46500 19600 23400 28300 30200 39200 54500 61600 81200 117000
2026-02-24 09:00 7.57 27500 122000 (1982) 14600 (1967) 46500 19600 23400 28300 30200 39200 54500 61600 81200 117000
2026-02-24 08:00 7.60 27600 122000 (1982) 14600 (1967) 46500 19600 23400 28300 30200 39200 54500 61600 81200 117000
2026-02-24 07:00 7.60 27600 122000 (1982) 14600 (1967) 46500 19600 23400 28300 30200 39200 54500 61600 81200 117000
2026-02-24 06:00 7.60 27600 122000 (1982) 14600 (1967) 46500 19600 23400 28300 30200 39200 54500 61600 81200 117000
2026-02-24 05:00 7.59 27600 122000 (1982) 14600 (1967) 46500 19600 23400 28300 30200 39200 54500 61600 81200 117000
2026-02-24 04:00 7.59 27600 122000 (1982) 14600 (1967) 46500 19600 23400 28300 30200 39200 54500 61600 81200 117000
2026-02-24 03:00 7.58 27500 122000 (1982) 14600 (1967) 46500 19600 23400 28300 30200 39200 54500 61600 81200 117000
2026-02-24 02:00 7.59 27600 122000 (1982) 14600 (1967) 46500 19600 23400 28300 30200 39200 54500 61600 81200 117000
2026-02-24 01:00 7.58 27500 122000 (1982) 14600 (1967) 46500 19600 23400 28300 30200 39200 54500 61600 81200 117000
2026-02-24 00:00 7.58 27500 122000 (1982) 14600 (1967) 46500 19600 23400 28300 30200 39200 54500 61600 81200 117000
2026-02-23 23:00 7.57 27500 122000 (1982) 14600 (1967) 46500 19600 23400 28300 30200 39200 54500 61600 81200 117000
2026-02-23 22:00 7.57 27500 134000 (1997) 13400 (1958) 46000 19800 23500 26900 28900 39000 49500 57100 86300 114000
2026-02-23 21:00 7.57 27500 134000 (1997) 13400 (1958) 46000 19800 23500 26900 28900 39000 49500 57100 86300 114000
2026-02-23 20:00 7.57 27500 134000 (1997) 13400 (1958) 46000 19800 23500 26900 28900 39000 49500 57100 86300 114000
2026-02-23 19:00 7.56 27500 134000 (1997) 13400 (1958) 46000 19800 23500 26900 28900 39000 49500 57100 86300 114000
2026-02-23 18:00 7.55 27400 134000 (1997) 13400 (1958) 46000 19800 23500 26900 28900 39000 49500 57100 86300 114000
2026-02-23 17:00 7.55 27400 134000 (1997) 13400 (1958) 46000 19800 23500 26900 28900 39000 49500 57100 86300 114000
2026-02-23 16:00 7.55 27400 134000 (1997) 13400 (1958) 46000 19800 23500 26900 28900 39000 49500 57100 86300 114000
2026-02-23 15:00 7.56 27500 134000 (1997) 13400 (1958) 46000 19800 23500 26900 28900 39000 49500 57100 86300 114000
2026-02-23 14:00 7.55 27400 134000 (1997) 13400 (1958) 46000 19800 23500 26900 28900 39000 49500 57100 86300 114000
2026-02-23 13:00 7.53 27300 134000 (1997) 13400 (1958) 46000 19800 23500 26900 28900 39000 49500 57100 86300 114000
2026-02-23 12:00 7.51 27300 134000 (1997) 13400 (1958) 46000 19800 23500 26900 28900 39000 49500 57100 86300 114000
2026-02-23 11:00 7.52 27300 134000 (1997) 13400 (1958) 46000 19800 23500 26900 28900 39000 49500 57100 86300 114000
2026-02-23 10:00 7.52 27300 134000 (1997) 13400 (1958) 46000 19800 23500 26900 28900 39000 49500 57100 86300 114000
2026-02-23 09:00 7.52 27300 134000 (1997) 13400 (1958) 46000 19800 23500 26900 28900 39000 49500 57100 86300 114000
2026-02-23 08:00 7.54 27400 134000 (1997) 13400 (1958) 46000 19800 23500 26900 28900 39000 49500 57100 86300 114000
2026-02-23 07:00 7.55 27400 134000 (1997) 13400 (1958) 46000 19800 23500 26900 28900 39000 49500 57100 86300 114000
2026-02-23 06:00 7.56 27500 134000 (1997) 13400 (1958) 46000 19800 23500 26900 28900 39000 49500 57100 86300 114000
2026-02-23 05:00 7.57 27500 134000 (1997) 13400 (1958) 46000 19800 23500 26900 28900 39000 49500 57100 86300 114000
2026-02-23 04:00 7.57 27500 134000 (1997) 13400 (1958) 46000 19800 23500 26900 28900 39000 49500 57100 86300 114000
2026-02-23 03:00 7.56 27500 134000 (1997) 13400 (1958) 46000 19800 23500 26900 28900 39000 49500 57100 86300 114000
2026-02-23 02:00 7.56 27500 134000 (1997) 13400 (1958) 46000 19800 23500 26900 28900 39000 49500 57100 86300 114000
2026-02-23 01:00 7.57 27500 134000 (1997) 13400 (1958) 46000 19800 23500 26900 28900 39000 49500 57100 86300 114000
2026-02-23 00:00 7.52 27300 134000 (1997) 13400 (1958) 46000 19800 23500 26900 28900 39000 49500 57100 86300 114000
2026-02-22 23:00 7.55 27400 134000 (1997) 13400 (1958) 46000 19800 23500 26900 28900 39000 49500 57100 86300 114000
2026-02-22 22:00 7.56 27500 140000 (1997) 11500 (1958) 44400 19300 23100 26000 27000 37400 50900 56100 84100 98400
2026-02-22 21:00 7.57 27500 140000 (1997) 11500 (1958) 44400 19300 23100 26000 27000 37400 50900 56100 84100 98400
2026-02-22 20:00 7.57 27500 140000 (1997) 11500 (1958) 44400 19300 23100 26000 27000 37400 50900 56100 84100 98400
2026-02-22 19:00 7.57 27500 140000 (1997) 11500 (1958) 44400 19300 23100 26000 27000 37400 50900 56100 84100 98400
2026-02-22 18:00 7.57 27500 140000 (1997) 11500 (1958) 44400 19300 23100 26000 27000 37400 50900 56100 84100 98400
2026-02-22 17:00 7.55 27400 140000 (1997) 11500 (1958) 44400 19300 23100 26000 27000 37400 50900 56100 84100 98400
2026-02-22 16:00 7.51 27300 140000 (1997) 11500 (1958) 44400 19300 23100 26000 27000 37400 50900 56100 84100 98400
2026-02-22 15:00 7.54 27400 140000 (1997) 11500 (1958) 44400 19300 23100 26000 27000 37400 50900 56100 84100 98400
2026-02-22 14:00 7.55 27400 140000 (1997) 11500 (1958) 44400 19300 23100 26000 27000 37400 50900 56100 84100 98400
2026-02-22 13:00 7.54 27400 140000 (1997) 11500 (1958) 44400 19300 23100 26000 27000 37400 50900 56100 84100 98400
2026-02-22 12:00 7.53 27300 140000 (1997) 11500 (1958) 44400 19300 23100 26000 27000 37400 50900 56100 84100 98400
2026-02-22 11:00 7.57 27500 140000 (1997) 11500 (1958) 44400 19300 23100 26000 27000 37400 50900 56100 84100 98400
2026-02-22 10:00 7.53 27300 140000 (1997) 11500 (1958) 44400 19300 23100 26000 27000 37400 50900 56100 84100 98400
2026-02-22 09:00 7.60 27600 140000 (1997) 11500 (1958) 44400 19300 23100 26000 27000 37400 50900 56100 84100 98400
2026-02-22 08:00 7.64 27800 140000 (1997) 11500 (1958) 44400 19300 23100 26000 27000 37400 50900 56100 84100 98400
2026-02-22 07:00 7.65 27800 140000 (1997) 11500 (1958) 44400 19300 23100 26000 27000 37400 50900 56100 84100 98400
2026-02-22 06:00 7.62 27700 140000 (1997) 11500 (1958) 44400 19300 23100 26000 27000 37400 50900 56100 84100 98400
2026-02-22 05:00 7.63 27700 140000 (1997) 11500 (1958) 44400 19300 23100 26000 27000 37400 50900 56100 84100 98400
2026-02-22 04:00 7.66 27800 140000 (1997) 11500 (1958) 44400 19300 23100 26000 27000 37400 50900 56100 84100 98400
2026-02-22 03:00 7.67 27900 140000 (1997) 11500 (1958) 44400 19300 23100 26000 27000 37400 50900 56100 84100 98400
2026-02-22 02:00 7.69 28000 140000 (1997) 11500 (1958) 44400 19300 23100 26000 27000 37400 50900 56100 84100 98400
2026-02-22 01:00 7.69 28000 140000 (1997) 11500 (1958) 44400 19300 23100 26000 27000 37400 50900 56100 84100 98400
2026-02-22 00:00 7.66 27800 140000 (1997) 11500 (1958) 44400 19300 23100 26000 27000 37400 50900 56100 84100 98400
2026-02-21 23:00 7.71 28000 140000 (1997) 11500 (1958) 44400 19300 23100 26000 27000 37400 50900 56100 84100 98400
2026-02-21 22:00 7.71 28000 121000 (1997) 12000 (1958) 42800 18300 23200 26300 27800 36900 51600 56200 78900 95400
2026-02-21 21:00 7.74 28200 121000 (1997) 12000 (1958) 42800 18300 23200 26300 27800 36900 51600 56200 78900 95400
2026-02-21 20:00 7.74 28200 121000 (1997) 12000 (1958) 42800 18300 23200 26300 27800 36900 51600 56200 78900 95400
2026-02-21 19:00 7.75 28200 121000 (1997) 12000 (1958) 42800 18300 23200 26300 27800 36900 51600 56200 78900 95400
2026-02-21 18:00 7.77 28300 121000 (1997) 12000 (1958) 42800 18300 23200 26300 27800 36900 51600 56200 78900 95400
2026-02-21 17:00 7.70 28000 121000 (1997) 12000 (1958) 42800 18300 23200 26300 27800 36900 51600 56200 78900 95400
2026-02-21 16:00 7.71 28000 121000 (1997) 12000 (1958) 42800 18300 23200 26300 27800 36900 51600 56200 78900 95400
2026-02-21 15:00 7.75 28200 121000 (1997) 12000 (1958) 42800 18300 23200 26300 27800 36900 51600 56200 78900 95400
2026-02-21 14:00 7.74 28200 121000 (1997) 12000 (1958) 42800 18300 23200 26300 27800 36900 51600 56200 78900 95400
2026-02-21 13:00 7.75 28200 121000 (1997) 12000 (1958) 42800 18300 23200 26300 27800 36900 51600 56200 78900 95400
2026-02-21 12:00 7.80 28400 121000 (1997) 12000 (1958) 42800 18300 23200 26300 27800 36900 51600 56200 78900 95400
2026-02-21 11:00 7.82 28500 121000 (1997) 12000 (1958) 42800 18300 23200 26300 27800 36900 51600 56200 78900 95400
2026-02-21 10:00 7.84 28600 121000 (1997) 12000 (1958) 42800 18300 23200 26300 27800 36900 51600 56200 78900 95400
2026-02-21 09:00 7.85 28600 121000 (1997) 12000 (1958) 42800 18300 23200 26300 27800 36900 51600 56200 78900 95400
2026-02-21 08:00 7.86 28700 121000 (1997) 12000 (1958) 42800 18300 23200 26300 27800 36900 51600 56200 78900 95400
2026-02-21 07:00 7.87 28700 121000 (1997) 12000 (1958) 42800 18300 23200 26300 27800 36900 51600 56200 78900 95400
2026-02-21 06:00 7.89 28800 121000 (1997) 12000 (1958) 42800 18300 23200 26300 27800 36900 51600 56200 78900 95400
2026-02-21 05:00 7.90 28800 121000 (1997) 12000 (1958) 42800 18300 23200 26300 27800 36900 51600 56200 78900 95400
2026-02-21 04:00 7.92 28900 121000 (1997) 12000 (1958) 42800 18300 23200 26300 27800 36900 51600 56200 78900 95400
2026-02-21 03:00 7.93 28900 121000 (1997) 12000 (1958) 42800 18300 23200 26300 27800 36900 51600 56200 78900 95400
2026-02-21 02:00 7.94 29000 121000 (1997) 12000 (1958) 42800 18300 23200 26300 27800 36900 51600 56200 78900 95400
2026-02-21 01:00 7.95 29000 121000 (1997) 12000 (1958) 42800 18300 23200 26300 27800 36900 51600 56200 78900 95400
2026-02-21 00:00 7.97 29100 121000 (1997) 12000 (1958) 42800 18300 23200 26300 27800 36900 51600 56200 78900 95400
2026-02-20 23:00 7.99 29200 121000 (1997) 12000 (1958) 42800 18300 23200 26300 27800 36900 51600 56200 78900 95400
2026-02-20 22:00 8.00 29200 105000 (2011) 12300 (1958) 41500 18300 23600 26700 28100 36400 49000 56300 71100 82200
2026-02-20 21:00 8.02 29300 105000 (2011) 12300 (1958) 41500 18300 23600 26700 28100 36400 49000 56300 71100 82200
2026-02-20 20:00 8.02 29300 105000 (2011) 12300 (1958) 41500 18300 23600 26700 28100 36400 49000 56300 71100 82200
2026-02-20 19:00 8.03 29400 105000 (2011) 12300 (1958) 41500 18300 23600 26700 28100 36400 49000 56300 71100 82200
2026-02-20 18:00 8.04 29400 105000 (2011) 12300 (1958) 41500 18300 23600 26700 28100 36400 49000 56300 71100 82200
2026-02-20 17:00 8.05 29400 105000 (2011) 12300 (1958) 41500 18300 23600 26700 28100 36400 49000 56300 71100 82200
2026-02-20 16:00 8.04 29400 105000 (2011) 12300 (1958) 41500 18300 23600 26700 28100 36400 49000 56300 71100 82200
2026-02-20 15:00 8.04 29400 105000 (2011) 12300 (1958) 41500 18300 23600 26700 28100 36400 49000 56300 71100 82200
2026-02-20 14:00 8.01 29300 105000 (2011) 12300 (1958) 41500 18300 23600 26700 28100 36400 49000 56300 71100 82200
2026-02-20 13:00 8.02 29300 105000 (2011) 12300 (1958) 41500 18300 23600 26700 28100 36400 49000 56300 71100 82200
2026-02-20 12:00 8.02 29300 105000 (2011) 12300 (1958) 41500 18300 23600 26700 28100 36400 49000 56300 71100 82200
2026-02-20 11:00 8.03 29400 105000 (2011) 12300 (1958) 41500 18300 23600 26700 28100 36400 49000 56300 71100 82200
2026-02-20 10:00 8.04 29400 105000 (2011) 12300 (1958) 41500 18300 23600 26700 28100 36400 49000 56300 71100 82200
2026-02-20 09:00 8.05 29400 105000 (2011) 12300 (1958) 41500 18300 23600 26700 28100 36400 49000 56300 71100 82200
2026-02-20 08:00 8.05 29400 105000 (2011) 12300 (1958) 41500 18300 23600 26700 28100 36400 49000 56300 71100 82200
2026-02-20 07:00 8.07 29500 105000 (2011) 12300 (1958) 41500 18300 23600 26700 28100 36400 49000 56300 71100 82200
2026-02-20 06:00 8.06 29500 105000 (2011) 12300 (1958) 41500 18300 23600 26700 28100 36400 49000 56300 71100 82200
2026-02-20 05:00 8.05 29400 105000 (2011) 12300 (1958) 41500 18300 23600 26700 28100 36400 49000 56300 71100 82200
2026-02-20 04:00 8.09 29600 105000 (2011) 12300 (1958) 41500 18300 23600 26700 28100 36400 49000 56300 71100 82200
2026-02-20 03:00 8.07 29500 105000 (2011) 12300 (1958) 41500 18300 23600 26700 28100 36400 49000 56300 71100 82200
2026-02-20 02:00 8.09 29600 105000 (2011) 12300 (1958) 41500 18300 23600 26700 28100 36400 49000 56300 71100 82200
2026-02-20 01:00 8.10 29600 105000 (2011) 12300 (1958) 41500 18300 23600 26700 28100 36400 49000 56300 71100 82200
2026-02-20 00:00 8.09 29600 105000 (2011) 12300 (1958) 41500 18300 23600 26700 28100 36400 49000 56300 71100 82200
2026-02-19 23:00 8.11 29700 105000 (2011) 12300 (1958) 41500 18300 23600 26700 28100 36400 49000 56300 71100 82200
2026-02-19 22:00 8.10 29600 100000 (2011) 11500 (1958) 40200 18700 23000 26000 27500 33900 51400 55100 62700 74900
2026-02-19 21:00 8.11 29700 100000 (2011) 11500 (1958) 40200 18700 23000 26000 27500 33900 51400 55100 62700 74900
2026-02-19 20:00 8.12 29700 100000 (2011) 11500 (1958) 40200 18700 23000 26000 27500 33900 51400 55100 62700 74900
2026-02-19 19:00 8.11 29700 100000 (2011) 11500 (1958) 40200 18700 23000 26000 27500 33900 51400 55100 62700 74900
2026-02-19 18:00 8.18 30000 100000 (2011) 11500 (1958) 40200 18700 23000 26000 27500 33900 51400 55100 62700 74900
2026-02-19 17:00 8.13 29800 100000 (2011) 11500 (1958) 40200 18700 23000 26000 27500 33900 51400 55100 62700 74900
2026-02-19 16:00 8.12 29700 100000 (2011) 11500 (1958) 40200 18700 23000 26000 27500 33900 51400 55100 62700 74900
2026-02-19 15:00 8.10 29600 100000 (2011) 11500 (1958) 40200 18700 23000 26000 27500 33900 51400 55100 62700 74900
2026-02-19 14:00 8.15 29900 100000 (2011) 11500 (1958) 40200 18700 23000 26000 27500 33900 51400 55100 62700 74900
2026-02-19 13:00 8.19 30000 100000 (2011) 11500 (1958) 40200 18700 23000 26000 27500 33900 51400 55100 62700 74900
2026-02-19 12:00 8.13 29800 100000 (2011) 11500 (1958) 40200 18700 23000 26000 27500 33900 51400 55100 62700 74900
2026-02-19 11:00 8.13 29800 100000 (2011) 11500 (1958) 40200 18700 23000 26000 27500 33900 51400 55100 62700 74900
2026-02-19 10:00 8.13 29800 100000 (2011) 11500 (1958) 40200 18700 23000 26000 27500 33900 51400 55100 62700 74900
2026-02-19 09:00 8.17 29900 100000 (2011) 11500 (1958) 40200 18700 23000 26000 27500 33900 51400 55100 62700 74900
2026-02-19 08:00 8.26 30300 100000 (2011) 11500 (1958) 40200 18700 23000 26000 27500 33900 51400 55100 62700 74900
2026-02-19 07:00 8.26 30300 100000 (2011) 11500 (1958) 40200 18700 23000 26000 27500 33900 51400 55100 62700 74900
2026-02-19 06:00 8.28 30400 100000 (2011) 11500 (1958) 40200 18700 23000 26000 27500 33900 51400 55100 62700 74900
2026-02-19 05:00 8.29 30400 100000 (2011) 11500 (1958) 40200 18700 23000 26000 27500 33900 51400 55100 62700 74900
2026-02-19 04:00 8.29 30400 100000 (2011) 11500 (1958) 40200 18700 23000 26000 27500 33900 51400 55100 62700 74900
2026-02-19 03:00 8.27 30400 100000 (2011) 11500 (1958) 40200 18700 23000 26000 27500 33900 51400 55100 62700 74900
2026-02-19 02:00 8.28 30400 100000 (2011) 11500 (1958) 40200 18700 23000 26000 27500 33900 51400 55100 62700 74900
2026-02-19 01:00 8.30 30500 100000 (2011) 11500 (1958) 40200 18700 23000 26000 27500 33900 51400 55100 62700 74900
2026-02-19 00:00 8.32 30600 100000 (2011) 11500 (1958) 40200 18700 23000 26000 27500 33900 51400 55100 62700 74900
2026-02-18 23:00 8.32 30600 100000 (2011) 11500 (1958) 40200 18700 23000 26000 27500 33900 51400 55100 62700 74900
2026-02-18 22:00 8.32 30600 87500 (1984) 10200 (1958) 38900 18900 22200 24900 27100 33000 49800 52600 64400 73600
2026-02-18 21:00 8.33 30600 87500 (1984) 10200 (1958) 38900 18900 22200 24900 27100 33000 49800 52600 64400 73600
2026-02-18 20:00 8.34 30700 87500 (1984) 10200 (1958) 38900 18900 22200 24900 27100 33000 49800 52600 64400 73600
2026-02-18 19:00 8.35 30700 87500 (1984) 10200 (1958) 38900 18900 22200 24900 27100 33000 49800 52600 64400 73600
2026-02-18 18:00 8.36 30700 87500 (1984) 10200 (1958) 38900 18900 22200 24900 27100 33000 49800 52600 64400 73600
2026-02-18 17:00 8.37 30800 87500 (1984) 10200 (1958) 38900 18900 22200 24900 27100 33000 49800 52600 64400 73600
2026-02-18 16:00 8.38 30800 87500 (1984) 10200 (1958) 38900 18900 22200 24900 27100 33000 49800 52600 64400 73600
2026-02-18 15:00 8.38 30800 87500 (1984) 10200 (1958) 38900 18900 22200 24900 27100 33000 49800 52600 64400 73600
2026-02-18 14:00 8.33 30600 87500 (1984) 10200 (1958) 38900 18900 22200 24900 27100 33000 49800 52600 64400 73600
2026-02-18 13:00 8.40 30900 87500 (1984) 10200 (1958) 38900 18900 22200 24900 27100 33000 49800 52600 64400 73600
2026-02-18 12:00 8.41 31000 87500 (1984) 10200 (1958) 38900 18900 22200 24900 27100 33000 49800 52600 64400 73600
2026-02-18 11:00 8.42 31000 87500 (1984) 10200 (1958) 38900 18900 22200 24900 27100 33000 49800 52600 64400 73600
2026-02-18 10:00 8.44 31100 87500 (1984) 10200 (1958) 38900 18900 22200 24900 27100 33000 49800 52600 64400 73600
2026-02-18 08:00 8.48 31300 87500 (1984) 10200 (1958) 38900 18900 22200 24900 27100 33000 49800 52600 64400 73600
2026-02-18 07:00 8.51 31400 87500 (1984) 10200 (1958) 38900 18900 22200 24900 27100 33000 49800 52600 64400 73600
2026-02-18 06:00 8.52 31400 87500 (1984) 10200 (1958) 38900 18900 22200 24900 27100 33000 49800 52600 64400 73600
2026-02-18 05:00 8.54 31500 87500 (1984) 10200 (1958) 38900 18900 22200 24900 27100 33000 49800 52600 64400 73600
2026-02-18 04:00 8.52 31400 87500 (1984) 10200 (1958) 38900 18900 22200 24900 27100 33000 49800 52600 64400 73600
2026-02-18 03:00 8.59 31700 87500 (1984) 10200 (1958) 38900 18900 22200 24900 27100 33000 49800 52600 64400 73600
2026-02-18 02:00 8.61 31800 87500 (1984) 10200 (1958) 38900 18900 22200 24900 27100 33000 49800 52600 64400 73600
2026-02-18 01:00 8.63 31900 87500 (1984) 10200 (1958) 38900 18900 22200 24900 27100 33000 49800 52600 64400 73600
2026-02-18 00:00 8.65 32000 87500 (1984) 10200 (1958) 38900 18900 22200 24900 27100 33000 49800 52600 64400 73600
2026-02-17 23:00 8.66 32100 87500 (1984) 10200 (1958) 38900 18900 22200 24900 27100 33000 49800 52600 64400 73600
2026-02-17 22:00 8.64 32000 79900 (1962) 10200 (1958) 38500 18200 21600 25600 26900 33000 49000 52600 67100 71300
2026-02-17 21:00 8.66 32100 79900 (1962) 10200 (1958) 38500 18200 21600 25600 26900 33000 49000 52600 67100 71300
2026-02-17 20:00 8.68 32100 79900 (1962) 10200 (1958) 38500 18200 21600 25600 26900 33000 49000 52600 67100 71300
2026-02-17 19:00 8.75 32500 79900 (1962) 10200 (1958) 38500 18200 21600 25600 26900 33000 49000 52600 67100 71300
2026-02-17 18:00 8.69 32200 79900 (1962) 10200 (1958) 38500 18200 21600 25600 26900 33000 49000 52600 67100 71300
2026-02-17 17:00 8.78 32600 79900 (1962) 10200 (1958) 38500 18200 21600 25600 26900 33000 49000 52600 67100 71300
2026-02-17 16:00 8.81 32700 79900 (1962) 10200 (1958) 38500 18200 21600 25600 26900 33000 49000 52600 67100 71300
2026-02-17 15:00 8.82 32800 79900 (1962) 10200 (1958) 38500 18200 21600 25600 26900 33000 49000 52600 67100 71300
2026-02-17 14:00 8.82 32800 79900 (1962) 10200 (1958) 38500 18200 21600 25600 26900 33000 49000 52600 67100 71300
2026-02-17 13:00 8.85 32900 79900 (1962) 10200 (1958) 38500 18200 21600 25600 26900 33000 49000 52600 67100 71300
2026-02-17 12:00 8.84 32900 79900 (1962) 10200 (1958) 38500 18200 21600 25600 26900 33000 49000 52600 67100 71300
2026-02-17 11:00 8.89 33100 79900 (1962) 10200 (1958) 38500 18200 21600 25600 26900 33000 49000 52600 67100 71300
2026-02-17 10:00 8.93 33300 79900 (1962) 10200 (1958) 38500 18200 21600 25600 26900 33000 49000 52600 67100 71300
2026-02-17 09:00 8.95 33400 79900 (1962) 10200 (1958) 38500 18200 21600 25600 26900 33000 49000 52600 67100 71300
2026-02-17 08:00 9.00 33600 79900 (1962) 10200 (1958) 38500 18200 21600 25600 26900 33000 49000 52600 67100 71300
2026-02-17 07:00 9.03 33700 79900 (1962) 10200 (1958) 38500 18200 21600 25600 26900 33000 49000 52600 67100 71300
2026-02-17 06:00 9.05 33800 79900 (1962) 10200 (1958) 38500 18200 21600 25600 26900 33000 49000 52600 67100 71300
2026-02-17 05:00 9.06 33900 79900 (1962) 10200 (1958) 38500 18200 21600 25600 26900 33000 49000 52600 67100 71300
2026-02-17 04:00 9.07 33900 79900 (1962) 10200 (1958) 38500 18200 21600 25600 26900 33000 49000 52600 67100 71300
2026-02-17 03:00 9.09 34000 79900 (1962) 10200 (1958) 38500 18200 21600 25600 26900 33000 49000 52600 67100 71300
2026-02-17 02:00 9.11 34100 79900 (1962) 10200 (1958) 38500 18200 21600 25600 26900 33000 49000 52600 67100 71300
2026-02-17 01:00 9.12 34100 79900 (1962) 10200 (1958) 38500 18200 21600 25600 26900 33000 49000 52600 67100 71300
2026-02-17 00:00 9.15 34300 79900 (1962) 10200 (1958) 38500 18200 21600 25600 26900 33000 49000 52600 67100 71300
2026-02-16 23:00 9.18 34400 79900 (1962) 10200 (1958) 38500 18200 21600 25600 26900 33000 49000 52600 67100 71300
2026-02-16 22:00 9.20 34500 74400 (1962) 10400 (1958) 38300 18600 21200 25800 27200 33600 49900 52400 62900 71400
2026-02-16 21:00 9.20 34500 74400 (1962) 10400 (1958) 38300 18600 21200 25800 27200 33600 49900 52400 62900 71400
2026-02-16 20:00 9.22 34600 74400 (1962) 10400 (1958) 38300 18600 21200 25800 27200 33600 49900 52400 62900 71400
2026-02-16 19:00 9.24 34700 74400 (1962) 10400 (1958) 38300 18600 21200 25800 27200 33600 49900 52400 62900 71400
2026-02-16 18:00 9.25 34700 74400 (1962) 10400 (1958) 38300 18600 21200 25800 27200 33600 49900 52400 62900 71400
2026-02-16 17:00 9.26 34800 74400 (1962) 10400 (1958) 38300 18600 21200 25800 27200 33600 49900 52400 62900 71400
2026-02-16 16:00 9.27 34800 74400 (1962) 10400 (1958) 38300 18600 21200 25800 27200 33600 49900 52400 62900 71400
2026-02-16 15:00 9.26 34800 74400 (1962) 10400 (1958) 38300 18600 21200 25800 27200 33600 49900 52400 62900 71400
2026-02-16 14:00 9.28 34900 74400 (1962) 10400 (1958) 38300 18600 21200 25800 27200 33600 49900 52400 62900 71400
2026-02-16 13:00 9.28 34900 74400 (1962) 10400 (1958) 38300 18600 21200 25800 27200 33600 49900 52400 62900 71400
2026-02-16 12:00 9.31 35000 74400 (1962) 10400 (1958) 38300 18600 21200 25800 27200 33600 49900 52400 62900 71400
2026-02-16 11:00 9.34 35200 74400 (1962) 10400 (1958) 38300 18600 21200 25800 27200 33600 49900 52400 62900 71400
2026-02-16 10:00 9.34 35200 74400 (1962) 10400 (1958) 38300 18600 21200 25800 27200 33600 49900 52400 62900 71400
2026-02-16 09:00 9.34 35200 74400 (1962) 10400 (1958) 38300 18600 21200 25800 27200 33600 49900 52400 62900 71400
2026-02-16 08:00 9.34 35200 74400 (1962) 10400 (1958) 38300 18600 21200 25800 27200 33600 49900 52400 62900 71400
2026-02-16 07:00 9.34 35200 74400 (1962) 10400 (1958) 38300 18600 21200 25800 27200 33600 49900 52400 62900 71400
2026-02-16 06:00 9.33 35100 74400 (1962) 10400 (1958) 38300 18600 21200 25800 27200 33600 49900 52400 62900 71400
2026-02-16 05:00 9.33 35100 74400 (1962) 10400 (1958) 38300 18600 21200 25800 27200 33600 49900 52400 62900 71400
2026-02-16 04:00 9.34 35200 74400 (1962) 10400 (1958) 38300 18600 21200 25800 27200 33600 49900 52400 62900 71400
2026-02-16 03:00 9.32 35100 74400 (1962) 10400 (1958) 38300 18600 21200 25800 27200 33600 49900 52400 62900 71400
2026-02-16 02:00 9.32 35100 74400 (1962) 10400 (1958) 38300 18600 21200 25800 27200 33600 49900 52400 62900 71400
2026-02-16 01:00 9.32 35100 74400 (1962) 10400 (1958) 38300 18600 21200 25800 27200 33600 49900 52400 62900 71400
2026-02-16 00:00 9.32 35100 74400 (1962) 10400 (1958) 38300 18600 21200 25800 27200 33600 49900 52400 62900 71400
2026-02-15 23:00 9.31 35000 74400 (1962) 10400 (1958) 38300 18600 21200 25800 27200 33600 49900 52400 62900 71400
2026-02-15 22:00 9.28 34900 78300 (1973) 10600 (1958) 38000 18300 22500 25800 27100 33100 47200 52100 61100 72900
2026-02-15 21:00 9.28 34900 78300 (1973) 10600 (1958) 38000 18300 22500 25800 27100 33100 47200 52100 61100 72900
2026-02-15 20:00 9.26 34800 78300 (1973) 10600 (1958) 38000 18300 22500 25800 27100 33100 47200 52100 61100 72900
2026-02-15 19:00 9.25 34700 78300 (1973) 10600 (1958) 38000 18300 22500 25800 27100 33100 47200 52100 61100 72900
2026-02-15 18:00 9.24 34700 78300 (1973) 10600 (1958) 38000 18300 22500 25800 27100 33100 47200 52100 61100 72900
2026-02-15 17:00 9.21 34600 78300 (1973) 10600 (1958) 38000 18300 22500 25800 27100 33100 47200 52100 61100 72900
2026-02-15 16:00 9.20 34500 78300 (1973) 10600 (1958) 38000 18300 22500 25800 27100 33100 47200 52100 61100 72900
2026-02-15 15:00 9.18 34400 78300 (1973) 10600 (1958) 38000 18300 22500 25800 27100 33100 47200 52100 61100 72900
2026-02-15 14:00 9.15 34300 78300 (1973) 10600 (1958) 38000 18300 22500 25800 27100 33100 47200 52100 61100 72900
2026-02-15 13:00 9.12 34100 78300 (1973) 10600 (1958) 38000 18300 22500 25800 27100 33100 47200 52100 61100 72900
2026-02-15 12:00 9.10 34000 78300 (1973) 10600 (1958) 38000 18300 22500 25800 27100 33100 47200 52100 61100 72900
2026-02-15 11:00 9.08 34000 78300 (1973) 10600 (1958) 38000 18300 22500 25800 27100 33100 47200 52100 61100 72900
2026-02-15 10:00 9.06 33900 78300 (1973) 10600 (1958) 38000 18300 22500 25800 27100 33100 47200 52100 61100 72900
2026-02-15 09:00 9.05 33800 78300 (1973) 10600 (1958) 38000 18300 22500 25800 27100 33100 47200 52100 61100 72900
2026-02-15 08:00 9.03 33700 78300 (1973) 10600 (1958) 38000 18300 22500 25800 27100 33100 47200 52100 61100 72900
2026-02-15 07:00 9.03 33700 78300 (1973) 10600 (1958) 38000 18300 22500 25800 27100 33100 47200 52100 61100 72900
2026-02-15 06:00 9.01 33600 78300 (1973) 10600 (1958) 38000 18300 22500 25800 27100 33100 47200 52100 61100 72900
2026-02-15 05:00 8.99 33500 78300 (1973) 10600 (1958) 38000 18300 22500 25800 27100 33100 47200 52100 61100 72900
2026-02-15 04:00 8.97 33400 78300 (1973) 10600 (1958) 38000 18300 22500 25800 27100 33100 47200 52100 61100 72900
2026-02-15 03:00 8.96 33400 78300 (1973) 10600 (1958) 38000 18300 22500 25800 27100 33100 47200 52100 61100 72900
2026-02-15 02:00 8.95 33400 78300 (1973) 10600 (1958) 38000 18300 22500 25800 27100 33100 47200 52100 61100 72900
2026-02-15 01:00 8.93 33300 78300 (1973) 10600 (1958) 38000 18300 22500 25800 27100 33100 47200 52100 61100 72900
2026-02-15 00:00 8.88 33000 78300 (1973) 10600 (1958) 38000 18300 22500 25800 27100 33100 47200 52100 61100 72900
2026-02-14 23:00 8.88 33000 78300 (1973) 10600 (1958) 38000 18300 22500 25800 27100 33100 47200 52100 61100 72900
2026-02-14 22:00 8.79 32600 79900 (1993) 10800 (1958) 38200 18600 22200 25800 26700 33000 46800 53000 65100 69400
2026-02-14 21:00 8.82 32800 79900 (1993) 10800 (1958) 38200 18600 22200 25800 26700 33000 46800 53000 65100 69400
2026-02-14 20:00 8.74 32400 79900 (1993) 10800 (1958) 38200 18600 22200 25800 26700 33000 46800 53000 65100 69400
2026-02-14 19:00 8.71 32300 79900 (1993) 10800 (1958) 38200 18600 22200 25800 26700 33000 46800 53000 65100 69400
2026-02-14 18:00 8.71 32300 79900 (1993) 10800 (1958) 38200 18600 22200 25800 26700 33000 46800 53000 65100 69400
2026-02-14 17:00 8.68 32100 79900 (1993) 10800 (1958) 38200 18600 22200 25800 26700 33000 46800 53000 65100 69400
2026-02-14 16:00 8.68 32100 79900 (1993) 10800 (1958) 38200 18600 22200 25800 26700 33000 46800 53000 65100 69400
2026-02-14 15:00 8.66 32100 79900 (1993) 10800 (1958) 38200 18600 22200 25800 26700 33000 46800 53000 65100 69400
2026-02-14 14:00 8.63 31900 79900 (1993) 10800 (1958) 38200 18600 22200 25800 26700 33000 46800 53000 65100 69400
2026-02-14 13:00 8.60 31800 79900 (1993) 10800 (1958) 38200 18600 22200 25800 26700 33000 46800 53000 65100 69400
2026-02-14 12:00 8.62 31900 79900 (1993) 10800 (1958) 38200 18600 22200 25800 26700 33000 46800 53000 65100 69400
2026-02-14 11:00 8.56 31600 79900 (1993) 10800 (1958) 38200 18600 22200 25800 26700 33000 46800 53000 65100 69400
2026-02-14 10:00 8.52 31400 79900 (1993) 10800 (1958) 38200 18600 22200 25800 26700 33000 46800 53000 65100 69400
2026-02-14 09:00 8.51 31400 79900 (1993) 10800 (1958) 38200 18600 22200 25800 26700 33000 46800 53000 65100 69400
2026-02-14 08:00 8.51 31400 79900 (1993) 10800 (1958) 38200 18600 22200 25800 26700 33000 46800 53000 65100 69400
2026-02-14 07:00 8.48 31300 79900 (1993) 10800 (1958) 38200 18600 22200 25800 26700 33000 46800 53000 65100 69400
2026-02-14 06:00 8.45 31100 79900 (1993) 10800 (1958) 38200 18600 22200 25800 26700 33000 46800 53000 65100 69400
2026-02-14 05:00 8.43 31000 79900 (1993) 10800 (1958) 38200 18600 22200 25800 26700 33000 46800 53000 65100 69400
2026-02-14 04:00 8.39 30900 79900 (1993) 10800 (1958) 38200 18600 22200 25800 26700 33000 46800 53000 65100 69400
2026-02-14 03:00 8.37 30800 79900 (1993) 10800 (1958) 38200 18600 22200 25800 26700 33000 46800 53000 65100 69400
2026-02-14 02:00 8.33 30600 79900 (1993) 10800 (1958) 38200 18600 22200 25800 26700 33000 46800 53000 65100 69400
2026-02-14 01:00 8.30 30500 79900 (1993) 10800 (1958) 38200 18600 22200 25800 26700 33000 46800 53000 65100 69400
2026-02-14 00:00 8.29 30400 79900 (1993) 10800 (1958) 38200 18600 22200 25800 26700 33000 46800 53000 65100 69400
2026-02-13 23:00 8.27 30400 79900 (1993) 10800 (1958) 38200 18600 22200 25800 26700 33000 46800 53000 65100 69400
2026-02-13 22:00 8.23 30200 83400 (1966) 12000 (1958) 38400 19400 22200 25100 26900 33200 46500 51100 63900 73800
2026-02-13 21:00 8.20 30100 83400 (1966) 12000 (1958) 38400 19400 22200 25100 26900 33200 46500 51100 63900 73800
2026-02-13 20:00 8.18 30000 83400 (1966) 12000 (1958) 38400 19400 22200 25100 26900 33200 46500 51100 63900 73800
2026-02-13 19:00 8.15 29900 83400 (1966) 12000 (1958) 38400 19400 22200 25100 26900 33200 46500 51100 63900 73800
2026-02-13 18:00 8.13 29800 83400 (1966) 12000 (1958) 38400 19400 22200 25100 26900 33200 46500 51100 63900 73800
2026-02-13 17:00 8.11 29700 83400 (1966) 12000 (1958) 38400 19400 22200 25100 26900 33200 46500 51100 63900 73800
2026-02-13 16:00 8.07 29500 83400 (1966) 12000 (1958) 38400 19400 22200 25100 26900 33200 46500 51100 63900 73800
2026-02-13 15:00 8.08 29600 83400 (1966) 12000 (1958) 38400 19400 22200 25100 26900 33200 46500 51100 63900 73800
2026-02-13 14:00 8.07 29500 83400 (1966) 12000 (1958) 38400 19400 22200 25100 26900 33200 46500 51100 63900 73800
2026-02-13 13:00 8.05 29400 83400 (1966) 12000 (1958) 38400 19400 22200 25100 26900 33200 46500 51100 63900 73800
2026-02-13 12:00 8.03 29400 83400 (1966) 12000 (1958) 38400 19400 22200 25100 26900 33200 46500 51100 63900 73800
2026-02-13 11:00 8.02 29300 83400 (1966) 12000 (1958) 38400 19400 22200 25100 26900 33200 46500 51100 63900 73800
2026-02-13 10:00 7.99 29200 83400 (1966) 12000 (1958) 38400 19400 22200 25100 26900 33200 46500 51100 63900 73800
2026-02-13 09:00 7.98 29100 83400 (1966) 12000 (1958) 38400 19400 22200 25100 26900 33200 46500 51100 63900 73800
2026-02-13 08:00 7.97 29100 83400 (1966) 12000 (1958) 38400 19400 22200 25100 26900 33200 46500 51100 63900 73800
2026-02-13 07:00 7.95 29000 83400 (1966) 12000 (1958) 38400 19400 22200 25100 26900 33200 46500 51100 63900 73800
2026-02-13 06:00 7.94 29000 83400 (1966) 12000 (1958) 38400 19400 22200 25100 26900 33200 46500 51100 63900 73800
2026-02-13 05:00 7.93 28900 83400 (1966) 12000 (1958) 38400 19400 22200 25100 26900 33200 46500 51100 63900 73800
2026-02-13 04:00 7.91 28900 83400 (1966) 12000 (1958) 38400 19400 22200 25100 26900 33200 46500 51100 63900 73800
2026-02-13 03:00 7.90 28800 83400 (1966) 12000 (1958) 38400 19400 22200 25100 26900 33200 46500 51100 63900 73800
2026-02-13 02:00 7.90 28800 83400 (1966) 12000 (1958) 38400 19400 22200 25100 26900 33200 46500 51100 63900 73800
2026-02-13 01:00 7.88 28700 83400 (1966) 12000 (1958) 38400 19400 22200 25100 26900 33200 46500 51100 63900 73800
2026-02-13 00:00 7.87 28700 83400 (1966) 12000 (1958) 38400 19400 22200 25100 26900 33200 46500 51100 63900 73800
2026-02-12 23:00 7.86 28700 83400 (1966) 12000 (1958) 38400 19400 22200 25100 26900 33200 46500 51100 63900 73800
2026-02-12 22:00 7.85 28600 87000 (1966) 13900 (1958) 37500 18000 21800 24800 25300 34700 45400 47800 63400 66800
2026-02-12 21:00 7.84 28600 87000 (1966) 13900 (1958) 37500 18000 21800 24800 25300 34700 45400 47800 63400 66800
2026-02-12 20:00 7.84 28600 87000 (1966) 13900 (1958) 37500 18000 21800 24800 25300 34700 45400 47800 63400 66800
2026-02-12 19:00 7.83 28500 87000 (1966) 13900 (1958) 37500 18000 21800 24800 25300 34700 45400 47800 63400 66800
2026-02-12 18:00 7.82 28500 87000 (1966) 13900 (1958) 37500 18000 21800 24800 25300 34700 45400 47800 63400 66800
2026-02-12 17:00 7.83 28500 87000 (1966) 13900 (1958) 37500 18000 21800 24800 25300 34700 45400 47800 63400 66800
2026-02-12 16:00 7.83 28500 87000 (1966) 13900 (1958) 37500 18000 21800 24800 25300 34700 45400 47800 63400 66800
2026-02-12 15:00 7.81 28500 87000 (1966) 13900 (1958) 37500 18000 21800 24800 25300 34700 45400 47800 63400 66800
2026-02-12 14:00 7.83 28500 87000 (1966) 13900 (1958) 37500 18000 21800 24800 25300 34700 45400 47800 63400 66800
2026-02-12 13:00 7.82 28500 87000 (1966) 13900 (1958) 37500 18000 21800 24800 25300 34700 45400 47800 63400 66800
2026-02-12 12:00 7.82 28500 87000 (1966) 13900 (1958) 37500 18000 21800 24800 25300 34700 45400 47800 63400 66800
2026-02-12 11:00 7.79 28400 87000 (1966) 13900 (1958) 37500 18000 21800 24800 25300 34700 45400 47800 63400 66800
2026-02-12 10:00 7.72 28100 87000 (1966) 13900 (1958) 37500 18000 21800 24800 25300 34700 45400 47800 63400 66800
2026-02-12 09:00 7.80 28400 87000 (1966) 13900 (1958) 37500 18000 21800 24800 25300 34700 45400 47800 63400 66800
2026-02-12 08:00 7.81 28500 87000 (1966) 13900 (1958) 37500 18000 21800 24800 25300 34700 45400 47800 63400 66800
2026-02-12 07:00 7.80 28400 87000 (1966) 13900 (1958) 37500 18000 21800 24800 25300 34700 45400 47800 63400 66800
2026-02-12 06:00 7.79 28400 87000 (1966) 13900 (1958) 37500 18000 21800 24800 25300 34700 45400 47800 63400 66800
2026-02-12 05:00 7.79 28400 87000 (1966) 13900 (1958) 37500 18000 21800 24800 25300 34700 45400 47800 63400 66800
2026-02-12 04:00 7.78 28300 87000 (1966) 13900 (1958) 37500 18000 21800 24800 25300 34700 45400 47800 63400 66800
2026-02-12 03:00 7.77 28300 87000 (1966) 13900 (1958) 37500 18000 21800 24800 25300 34700 45400 47800 63400 66800
2026-02-12 02:00 7.75 28200 87000 (1966) 13900 (1958) 37500 18000 21800 24800 25300 34700 45400 47800 63400 66800
2026-02-12 01:00 7.73 28100 87000 (1966) 13900 (1958) 37500 18000 21800 24800 25300 34700 45400 47800 63400 66800
2026-02-12 00:00 7.73 28100 87000 (1966) 13900 (1958) 37500 18000 21800 24800 25300 34700 45400 47800 63400 66800
2026-02-11 23:00 7.73 28100 87000 (1966) 13900 (1958) 37500 18000 21800 24800 25300 34700 45400 47800 63400 66800
2026-02-11 22:00 7.72 28100 78500 (2020) 14000 (1989) 36900 17000 21800 24700 25200 33300 45200 46800 61300 68600
2026-02-11 21:00 7.72 28100 78500 (2020) 14000 (1989) 36900 17000 21800 24700 25200 33300 45200 46800 61300 68600
2026-02-11 20:00 7.71 28000 78500 (2020) 14000 (1989) 36900 17000 21800 24700 25200 33300 45200 46800 61300 68600
2026-02-11 19:00 7.71 28000 78500 (2020) 14000 (1989) 36900 17000 21800 24700 25200 33300 45200 46800 61300 68600
2026-02-11 18:00 7.71 28000 78500 (2020) 14000 (1989) 36900 17000 21800 24700 25200 33300 45200 46800 61300 68600
2026-02-11 17:00 7.71 28000 78500 (2020) 14000 (1989) 36900 17000 21800 24700 25200 33300 45200 46800 61300 68600
2026-02-11 16:00 7.71 28000 78500 (2020) 14000 (1989) 36900 17000 21800 24700 25200 33300 45200 46800 61300 68600
2026-02-11 15:00 7.70 28000 78500 (2020) 14000 (1989) 36900 17000 21800 24700 25200 33300 45200 46800 61300 68600
2026-02-11 14:00 7.71 28000 78500 (2020) 14000 (1989) 36900 17000 21800 24700 25200 33300 45200 46800 61300 68600
2026-02-11 13:00 7.70 28000 78500 (2020) 14000 (1989) 36900 17000 21800 24700 25200 33300 45200 46800 61300 68600
2026-02-11 12:00 7.63 27700 78500 (2020) 14000 (1989) 36900 17000 21800 24700 25200 33300 45200 46800 61300 68600
2026-02-11 11:00 7.68 27900 78500 (2020) 14000 (1989) 36900 17000 21800 24700 25200 33300 45200 46800 61300 68600
2026-02-11 10:00 7.67 27900 78500 (2020) 14000 (1989) 36900 17000 21800 24700 25200 33300 45200 46800 61300 68600
2026-02-11 09:00 7.68 27900 78500 (2020) 14000 (1989) 36900 17000 21800 24700 25200 33300 45200 46800 61300 68600
2026-02-11 08:00 7.67 27900 78500 (2020) 14000 (1989) 36900 17000 21800 24700 25200 33300 45200 46800 61300 68600
2026-02-11 07:00 7.67 27900 78500 (2020) 14000 (1989) 36900 17000 21800 24700 25200 33300 45200 46800 61300 68600
2026-02-11 06:00 7.67 27900 78500 (2020) 14000 (1989) 36900 17000 21800 24700 25200 33300 45200 46800 61300 68600
2026-02-11 05:00 7.67 27900 78500 (2020) 14000 (1989) 36900 17000 21800 24700 25200 33300 45200 46800 61300 68600
2026-02-11 04:00 7.66 27800 78500 (2020) 14000 (1989) 36900 17000 21800 24700 25200 33300 45200 46800 61300 68600
2026-02-11 03:00 7.66 27800 78500 (2020) 14000 (1989) 36900 17000 21800 24700 25200 33300 45200 46800 61300 68600
2026-02-11 02:00 7.66 27800 78500 (2020) 14000 (1989) 36900 17000 21800 24700 25200 33300 45200 46800 61300 68600
2026-02-11 01:00 7.65 27800 78500 (2020) 14000 (1989) 36900 17000 21800 24700 25200 33300 45200 46800 61300 68600
2026-02-11 00:00 7.64 27800 78500 (2020) 14000 (1989) 36900 17000 21800 24700 25200 33300 45200 46800 61300 68600
2026-02-10 23:00 7.64 27800 78500 (2020) 14000 (1989) 36900 17000 21800 24700 25200 33300 45200 46800 61300 68600
2026-02-10 22:00 7.64 27800 82400 (2020) 11100 (1989) 36700 17100 21500 24500 25600 32800 46800 50900 60500 65100
2026-02-10 21:00 7.64 27800 82400 (2020) 11100 (1989) 36700 17100 21500 24500 25600 32800 46800 50900 60500 65100
2026-02-10 20:00 7.65 27800 82400 (2020) 11100 (1989) 36700 17100 21500 24500 25600 32800 46800 50900 60500 65100
2026-02-10 19:00 7.65 27800 82400 (2020) 11100 (1989) 36700 17100 21500 24500 25600 32800 46800 50900 60500 65100
2026-02-10 18:00 7.65 27800 82400 (2020) 11100 (1989) 36700 17100 21500 24500 25600 32800 46800 50900 60500 65100
2026-02-10 17:00 7.66 27800 82400 (2020) 11100 (1989) 36700 17100 21500 24500 25600 32800 46800 50900 60500 65100
2026-02-10 16:00 7.66 27800 82400 (2020) 11100 (1989) 36700 17100 21500 24500 25600 32800 46800 50900 60500 65100
2026-02-10 15:00 7.65 27800 82400 (2020) 11100 (1989) 36700 17100 21500 24500 25600 32800 46800 50900 60500 65100
2026-02-10 14:00 7.59 27600 82400 (2020) 11100 (1989) 36700 17100 21500 24500 25600 32800 46800 50900 60500 65100
2026-02-10 13:00 7.60 27600 82400 (2020) 11100 (1989) 36700 17100 21500 24500 25600 32800 46800 50900 60500 65100
2026-02-10 12:00 7.58 27500 82400 (2020) 11100 (1989) 36700 17100 21500 24500 25600 32800 46800 50900 60500 65100
2026-02-10 11:00 7.57 27500 82400 (2020) 11100 (1989) 36700 17100 21500 24500 25600 32800 46800 50900 60500 65100
2026-02-10 10:00 7.58 27500 82400 (2020) 11100 (1989) 36700 17100 21500 24500 25600 32800 46800 50900 60500 65100
2026-02-10 09:00 7.61 27700 82400 (2020) 11100 (1989) 36700 17100 21500 24500 25600 32800 46800 50900 60500 65100
2026-02-10 08:00 7.61 27700 82400 (2020) 11100 (1989) 36700 17100 21500 24500 25600 32800 46800 50900 60500 65100
2026-02-10 07:00 7.61 27700 82400 (2020) 11100 (1989) 36700 17100 21500 24500 25600 32800 46800 50900 60500 65100
2026-02-10 06:00 7.59 27600 82400 (2020) 11100 (1989) 36700 17100 21500 24500 25600 32800 46800 50900 60500 65100
2026-02-10 05:00 7.60 27600 82400 (2020) 11100 (1989) 36700 17100 21500 24500 25600 32800 46800 50900 60500 65100
2026-02-10 04:00 7.58 27500 82400 (2020) 11100 (1989) 36700 17100 21500 24500 25600 32800 46800 50900 60500 65100
2026-02-10 03:00 7.56 27500 82400 (2020) 11100 (1989) 36700 17100 21500 24500 25600 32800 46800 50900 60500 65100
2026-02-10 02:00 7.55 27400 82400 (2020) 11100 (1989) 36700 17100 21500 24500 25600 32800 46800 50900 60500 65100
2026-02-10 01:00 7.54 27400 82400 (2020) 11100 (1989) 36700 17100 21500 24500 25600 32800 46800 50900 60500 65100
2026-02-10 00:00 7.52 27300 82400 (2020) 11100 (1989) 36700 17100 21500 24500 25600 32800 46800 50900 60500 65100
2026-02-09 23:00 7.51 27300 82400 (2020) 11100 (1989) 36700 17100 21500 24500 25600 32800 46800 50900 60500 65100
2026-02-09 22:00 7.51 27300 84200 (2020) 13000 (1989) 35900 16400 20800 22700 24700 32700 43000 49900 57800 65300
2026-02-09 21:00 7.49 27200 84200 (2020) 13000 (1989) 35900 16400 20800 22700 24700 32700 43000 49900 57800 65300
2026-02-09 20:00 7.48 27100 84200 (2020) 13000 (1989) 35900 16400 20800 22700 24700 32700 43000 49900 57800 65300
2026-02-09 19:00 7.46 27100 84200 (2020) 13000 (1989) 35900 16400 20800 22700 24700 32700 43000 49900 57800 65300
2026-02-09 18:00 7.44 27000 84200 (2020) 13000 (1989) 35900 16400 20800 22700 24700 32700 43000 49900 57800 65300
2026-02-09 17:00 7.43 26900 84200 (2020) 13000 (1989) 35900 16400 20800 22700 24700 32700 43000 49900 57800 65300
2026-02-09 16:00 7.40 26800 84200 (2020) 13000 (1989) 35900 16400 20800 22700 24700 32700 43000 49900 57800 65300
2026-02-09 15:00 7.38 26800 84200 (2020) 13000 (1989) 35900 16400 20800 22700 24700 32700 43000 49900 57800 65300
2026-02-09 14:00 7.36 26700 84200 (2020) 13000 (1989) 35900 16400 20800 22700 24700 32700 43000 49900 57800 65300
2026-02-09 13:00 7.33 26600 84200 (2020) 13000 (1989) 35900 16400 20800 22700 24700 32700 43000 49900 57800 65300
2026-02-09 12:00 7.33 26600 84200 (2020) 13000 (1989) 35900 16400 20800 22700 24700 32700 43000 49900 57800 65300
2026-02-09 11:00 7.30 26400 84200 (2020) 13000 (1989) 35900 16400 20800 22700 24700 32700 43000 49900 57800 65300
2026-02-09 10:00 7.29 26400 84200 (2020) 13000 (1989) 35900 16400 20800 22700 24700 32700 43000 49900 57800 65300
2026-02-09 09:00 7.28 26400 84200 (2020) 13000 (1989) 35900 16400 20800 22700 24700 32700 43000 49900 57800 65300
2026-02-09 08:00 7.26 26300 84200 (2020) 13000 (1989) 35900 16400 20800 22700 24700 32700 43000 49900 57800 65300
2026-02-09 07:00 7.24 26200 84200 (2020) 13000 (1989) 35900 16400 20800 22700 24700 32700 43000 49900 57800 65300
2026-02-09 06:00 7.21 26100 84200 (2020) 13000 (1989) 35900 16400 20800 22700 24700 32700 43000 49900 57800 65300
2026-02-09 05:00 7.19 26000 84200 (2020) 13000 (1989) 35900 16400 20800 22700 24700 32700 43000 49900 57800 65300
2026-02-09 04:00 7.17 25900 84200 (2020) 13000 (1989) 35900 16400 20800 22700 24700 32700 43000 49900 57800 65300
2026-02-09 03:00 7.15 25900 84200 (2020) 13000 (1989) 35900 16400 20800 22700 24700 32700 43000 49900 57800 65300
2026-02-09 02:00 7.13 25800 84200 (2020) 13000 (1989) 35900 16400 20800 22700 24700 32700 43000 49900 57800 65300
2026-02-09 01:00 7.12 25800 84200 (2020) 13000 (1989) 35900 16400 20800 22700 24700 32700 43000 49900 57800 65300
2026-02-09 00:00 7.11 25700 84200 (2020) 13000 (1989) 35900 16400 20800 22700 24700 32700 43000 49900 57800 65300
2026-02-08 23:00 7.10 25700 84200 (2020) 13000 (1989) 35900 16400 20800 22700 24700 32700 43000 49900 57800 65300
2026-02-08 22:00 7.08 25600 86900 (2020) 15600 (1989) 36100 16200 18600 21900 24100 33000 44000 49900 60100 65300
2026-02-08 21:00 7.07 25600 86900 (2020) 15600 (1989) 36100 16200 18600 21900 24100 33000 44000 49900 60100 65300
2026-02-08 20:00 7.05 25500 86900 (2020) 15600 (1989) 36100 16200 18600 21900 24100 33000 44000 49900 60100 65300
2026-02-08 19:00 7.04 25500 86900 (2020) 15600 (1989) 36100 16200 18600 21900 24100 33000 44000 49900 60100 65300
2026-02-08 18:00 7.03 25400 86900 (2020) 15600 (1989) 36100 16200 18600 21900 24100 33000 44000 49900 60100 65300
2026-02-08 17:00 6.99 25300 86900 (2020) 15600 (1989) 36100 16200 18600 21900 24100 33000 44000 49900 60100 65300
2026-02-08 16:00 7.01 25300 86900 (2020) 15600 (1989) 36100 16200 18600 21900 24100 33000 44000 49900 60100 65300
2026-02-08 15:00 7.00 25300 86900 (2020) 15600 (1989) 36100 16200 18600 21900 24100 33000 44000 49900 60100 65300
2026-02-08 14:00 6.96 25200 86900 (2020) 15600 (1989) 36100 16200 18600 21900 24100 33000 44000 49900 60100 65300
2026-02-08 13:00 6.98 25200 86900 (2020) 15600 (1989) 36100 16200 18600 21900 24100 33000 44000 49900 60100 65300
2026-02-08 12:00 6.96 25200 86900 (2020) 15600 (1989) 36100 16200 18600 21900 24100 33000 44000 49900 60100 65300
2026-02-08 11:00 6.96 25200 86900 (2020) 15600 (1989) 36100 16200 18600 21900 24100 33000 44000 49900 60100 65300
2026-02-08 10:00 6.95 25100 86900 (2020) 15600 (1989) 36100 16200 18600 21900 24100 33000 44000 49900 60100 65300
2026-02-08 09:00 6.95 25100 86900 (2020) 15600 (1989) 36100 16200 18600 21900 24100 33000 44000 49900 60100 65300
2026-02-08 08:00 6.95 25100 86900 (2020) 15600 (1989) 36100 16200 18600 21900 24100 33000 44000 49900 60100 65300
2026-02-08 07:00 6.95 25100 86900 (2020) 15600 (1989) 36100 16200 18600 21900 24100 33000 44000 49900 60100 65300
2026-02-08 06:00 6.95 25100 86900 (2020) 15600 (1989) 36100 16200 18600 21900 24100 33000 44000 49900 60100 65300
2026-02-08 05:00 6.94 25100 86900 (2020) 15600 (1989) 36100 16200 18600 21900 24100 33000 44000 49900 60100 65300
2026-02-08 04:00 6.92 25000 86900 (2020) 15600 (1989) 36100 16200 18600 21900 24100 33000 44000 49900 60100 65300
2026-02-08 03:00 6.92 25000 86900 (2020) 15600 (1989) 36100 16200 18600 21900 24100 33000 44000 49900 60100 65300
2026-02-08 02:00 6.91 25000 86900 (2020) 15600 (1989) 36100 16200 18600 21900 24100 33000 44000 49900 60100 65300
2026-02-08 01:00 6.90 24900 86900 (2020) 15600 (1989) 36100 16200 18600 21900 24100 33000 44000 49900 60100 65300
2026-02-08 00:00 6.84 24700 86900 (2020) 15600 (1989) 36100 16200 18600 21900 24100 33000 44000 49900 60100 65300
2026-02-07 23:00 6.89 24900 86900 (2020) 15600 (1989) 36100 16200 18600 21900 24100 33000 44000 49900 60100 65300
2026-02-07 22:00 6.91 25000 90000 (2020) 12000 (1966) 36600 15100 17000 21800 23800 32900 46100 50900 62800 76200
2026-02-07 21:00 6.91 25000 90000 (2020) 12000 (1966) 36600 15100 17000 21800 23800 32900 46100 50900 62800 76200
2026-02-07 20:00 6.91 25000 90000 (2020) 12000 (1966) 36600 15100 17000 21800 23800 32900 46100 50900 62800 76200
2026-02-07 19:00 6.84 24700 90000 (2020) 12000 (1966) 36600 15100 17000 21800 23800 32900 46100 50900 62800 76200
2026-02-07 18:00 6.90 24900 90000 (2020) 12000 (1966) 36600 15100 17000 21800 23800 32900 46100 50900 62800 76200
2026-02-07 17:00 6.88 24900 90000 (2020) 12000 (1966) 36600 15100 17000 21800 23800 32900 46100 50900 62800 76200
2026-02-07 16:00 6.83 24700 90000 (2020) 12000 (1966) 36600 15100 17000 21800 23800 32900 46100 50900 62800 76200
2026-02-07 15:00 6.86 24800 90000 (2020) 12000 (1966) 36600 15100 17000 21800 23800 32900 46100 50900 62800 76200
2026-02-07 14:00 6.81 24600 90000 (2020) 12000 (1966) 36600 15100 17000 21800 23800 32900 46100 50900 62800 76200
2026-02-07 13:00 6.79 24500 90000 (2020) 12000 (1966) 36600 15100 17000 21800 23800 32900 46100 50900 62800 76200
2026-02-07 12:00 6.79 24500 90000 (2020) 12000 (1966) 36600 15100 17000 21800 23800 32900 46100 50900 62800 76200
2026-02-07 11:00 6.82 24700 90000 (2020) 12000 (1966) 36600 15100 17000 21800 23800 32900 46100 50900 62800 76200
2026-02-07 10:00 6.79 24500 90000 (2020) 12000 (1966) 36600 15100 17000 21800 23800 32900 46100 50900 62800 76200
2026-02-07 09:00 6.78 24500 90000 (2020) 12000 (1966) 36600 15100 17000 21800 23800 32900 46100 50900 62800 76200
2026-02-07 08:00 6.84 24700 90000 (2020) 12000 (1966) 36600 15100 17000 21800 23800 32900 46100 50900 62800 76200
2026-02-07 07:00 6.84 24700 90000 (2020) 12000 (1966) 36600 15100 17000 21800 23800 32900 46100 50900 62800 76200
2026-02-07 06:00 6.84 24700 90000 (2020) 12000 (1966) 36600 15100 17000 21800 23800 32900 46100 50900 62800 76200
2026-02-07 05:00 6.83 24700 90000 (2020) 12000 (1966) 36600 15100 17000 21800 23800 32900 46100 50900 62800 76200
2026-02-07 04:00 6.83 24700 90000 (2020) 12000 (1966) 36600 15100 17000 21800 23800 32900 46100 50900 62800 76200
2026-02-07 03:00 6.82 24700 90000 (2020) 12000 (1966) 36600 15100 17000 21800 23800 32900 46100 50900 62800 76200
2026-02-07 02:00 6.82 24700 90000 (2020) 12000 (1966) 36600 15100 17000 21800 23800 32900 46100 50900 62800 76200
2026-02-07 01:00 6.82 24700 90000 (2020) 12000 (1966) 36600 15100 17000 21800 23800 32900 46100 50900 62800 76200
2026-02-07 00:00 6.82 24700 90000 (2020) 12000 (1966) 36600 15100 17000 21800 23800 32900 46100 50900 62800 76200
2026-02-06 23:00 6.81 24600 90000 (2020) 12000 (1966) 36600 15100 17000 21800 23800 32900 46100 50900 62800 76200
2026-02-06 22:00 6.80 24600 99000 (1973) 10000 (1965) 37000 13100 16900 21600 23900 32800 43900 50800 62000 90000
2026-02-06 21:00 6.80 24600 99000 (1973) 10000 (1965) 37000 13100 16900 21600 23900 32800 43900 50800 62000 90000
2026-02-06 20:00 6.80 24600 99000 (1973) 10000 (1965) 37000 13100 16900 21600 23900 32800 43900 50800 62000 90000
2026-02-06 19:00 6.79 24500 99000 (1973) 10000 (1965) 37000 13100 16900 21600 23900 32800 43900 50800 62000 90000
2026-02-06 18:00 6.78 24500 99000 (1973) 10000 (1965) 37000 13100 16900 21600 23900 32800 43900 50800 62000 90000
2026-02-06 17:00 6.80 24600 99000 (1973) 10000 (1965) 37000 13100 16900 21600 23900 32800 43900 50800 62000 90000
2026-02-06 16:00 6.79 24500 99000 (1973) 10000 (1965) 37000 13100 16900 21600 23900 32800 43900 50800 62000 90000
2026-02-06 15:00 6.75 24400 99000 (1973) 10000 (1965) 37000 13100 16900 21600 23900 32800 43900 50800 62000 90000
2026-02-06 14:00 6.78 24500 99000 (1973) 10000 (1965) 37000 13100 16900 21600 23900 32800 43900 50800 62000 90000
2026-02-06 13:00 6.78 24500 99000 (1973) 10000 (1965) 37000 13100 16900 21600 23900 32800 43900 50800 62000 90000
2026-02-06 12:00 6.77 24500 99000 (1973) 10000 (1965) 37000 13100 16900 21600 23900 32800 43900 50800 62000 90000
2026-02-06 11:00 6.75 24400 99000 (1973) 10000 (1965) 37000 13100 16900 21600 23900 32800 43900 50800 62000 90000
2026-02-06 10:00 6.77 24500 99000 (1973) 10000 (1965) 37000 13100 16900 21600 23900 32800 43900 50800 62000 90000
2026-02-06 09:00 6.77 24500 99000 (1973) 10000 (1965) 37000 13100 16900 21600 23900 32800 43900 50800 62000 90000
2026-02-06 08:00 6.76 24400 99000 (1973) 10000 (1965) 37000 13100 16900 21600 23900 32800 43900 50800 62000 90000
2026-02-06 07:00 6.75 24400 99000 (1973) 10000 (1965) 37000 13100 16900 21600 23900 32800 43900 50800 62000 90000
2026-02-06 06:00 6.69 24200 99000 (1973) 10000 (1965) 37000 13100 16900 21600 23900 32800 43900 50800 62000 90000
2026-02-06 05:00 6.76 24400 99000 (1973) 10000 (1965) 37000 13100 16900 21600 23900 32800 43900 50800 62000 90000
2026-02-06 04:00 6.74 24400 99000 (1973) 10000 (1965) 37000 13100 16900 21600 23900 32800 43900 50800 62000 90000
2026-02-06 03:00 6.76 24400 99000 (1973) 10000 (1965) 37000 13100 16900 21600 23900 32800 43900 50800 62000 90000
2026-02-06 02:00 6.75 24400 99000 (1973) 10000 (1965) 37000 13100 16900 21600 23900 32800 43900 50800 62000 90000
2026-02-06 01:00 6.75 24400 99000 (1973) 10000 (1965) 37000 13100 16900 21600 23900 32800 43900 50800 62000 90000
2026-02-06 00:00 6.75 24400 99000 (1973) 10000 (1965) 37000 13100 16900 21600 23900 32800 43900 50800 62000 90000
2026-02-05 23:00 6.76 24400 99000 (1973) 10000 (1965) 37000 13100 16900 21600 23900 32800 43900 50800 62000 90000
2026-02-05 22:00 6.75 24400 110000 (1962) 9750 (1965) 37100 12800 16300 22300 24400 31400 44400 50000 63500 85700
2026-02-05 21:00 6.75 24400 110000 (1962) 9750 (1965) 37100 12800 16300 22300 24400 31400 44400 50000 63500 85700
2026-02-05 20:00 6.75 24400 110000 (1962) 9750 (1965) 37100 12800 16300 22300 24400 31400 44400 50000 63500 85700
2026-02-05 19:00 6.74 24400 110000 (1962) 9750 (1965) 37100 12800 16300 22300 24400 31400 44400 50000 63500 85700
2026-02-05 18:00 6.73 24300 110000 (1962) 9750 (1965) 37100 12800 16300 22300 24400 31400 44400 50000 63500 85700
2026-02-05 17:00 6.73 24300 110000 (1962) 9750 (1965) 37100 12800 16300 22300 24400 31400 44400 50000 63500 85700
2026-02-05 16:00 6.72 24300 110000 (1962) 9750 (1965) 37100 12800 16300 22300 24400 31400 44400 50000 63500 85700
2026-02-05 15:00 6.66 24100 110000 (1962) 9750 (1965) 37100 12800 16300 22300 24400 31400 44400 50000 63500 85700
2026-02-05 14:00 6.66 24100 110000 (1962) 9750 (1965) 37100 12800 16300 22300 24400 31400 44400 50000 63500 85700
2026-02-05 13:00 6.66 24100 110000 (1962) 9750 (1965) 37100 12800 16300 22300 24400 31400 44400 50000 63500 85700
2026-02-05 12:00 6.63 24000 110000 (1962) 9750 (1965) 37100 12800 16300 22300 24400 31400 44400 50000 63500 85700
2026-02-05 11:00 6.65 24000 110000 (1962) 9750 (1965) 37100 12800 16300 22300 24400 31400 44400 50000 63500 85700
2026-02-05 10:00 6.70 24200 110000 (1962) 9750 (1965) 37100 12800 16300 22300 24400 31400 44400 50000 63500 85700
2026-02-05 09:00 6.71 24300 110000 (1962) 9750 (1965) 37100 12800 16300 22300 24400 31400 44400 50000 63500 85700
2026-02-05 08:00 6.70 24200 110000 (1962) 9750 (1965) 37100 12800 16300 22300 24400 31400 44400 50000 63500 85700
2026-02-05 07:00 6.70 24200 110000 (1962) 9750 (1965) 37100 12800 16300 22300 24400 31400 44400 50000 63500 85700
2026-02-05 06:00 6.69 24200 110000 (1962) 9750 (1965) 37100 12800 16300 22300 24400 31400 44400 50000 63500 85700
2026-02-05 05:00 6.69 24200 110000 (1962) 9750 (1965) 37100 12800 16300 22300 24400 31400 44400 50000 63500 85700
2026-02-05 04:00 6.69 24200 110000 (1962) 9750 (1965) 37100 12800 16300 22300 24400 31400 44400 50000 63500 85700
2026-02-05 03:00 6.68 24100 110000 (1962) 9750 (1965) 37100 12800 16300 22300 24400 31400 44400 50000 63500 85700
2026-02-05 02:00 6.67 24100 110000 (1962) 9750 (1965) 37100 12800 16300 22300 24400 31400 44400 50000 63500 85700
2026-02-05 01:00 6.67 24100 110000 (1962) 9750 (1965) 37100 12800 16300 22300 24400 31400 44400 50000 63500 85700
2026-02-05 00:00 6.66 24100 110000 (1962) 9750 (1965) 37100 12800 16300 22300 24400 31400 44400 50000 63500 85700
2026-02-04 23:00 6.66 24100 110000 (1962) 9750 (1965) 37100 12800 16300 22300 24400 31400 44400 50000 63500 85700
2026-02-04 22:00 6.65 24000 132000 (1973) 9300 (1965) 37200 13200 16500 22900 24200 31400 43900 48800 63500 83100
2026-02-04 21:00 6.64 24000 132000 (1973) 9300 (1965) 37200 13200 16500 22900 24200 31400 43900 48800 63500 83100
2026-02-04 20:00 6.63 24000 132000 (1973) 9300 (1965) 37200 13200 16500 22900 24200 31400 43900 48800 63500 83100
2026-02-04 19:00 6.62 23900 132000 (1973) 9300 (1965) 37200 13200 16500 22900 24200 31400 43900 48800 63500 83100
2026-02-04 18:00 6.62 23900 132000 (1973) 9300 (1965) 37200 13200 16500 22900 24200 31400 43900 48800 63500 83100
2026-02-04 17:00 6.61 23900 132000 (1973) 9300 (1965) 37200 13200 16500 22900 24200 31400 43900 48800 63500 83100
2026-02-04 16:00 6.61 23900 132000 (1973) 9300 (1965) 37200 13200 16500 22900 24200 31400 43900 48800 63500 83100
2026-02-04 15:00 6.61 23900 132000 (1973) 9300 (1965) 37200 13200 16500 22900 24200 31400 43900 48800 63500 83100
2026-02-04 14:00 6.61 23900 132000 (1973) 9300 (1965) 37200 13200 16500 22900 24200 31400 43900 48800 63500 83100
2026-02-04 13:00 6.61 23900 132000 (1973) 9300 (1965) 37200 13200 16500 22900 24200 31400 43900 48800 63500 83100
2026-02-04 12:00 6.61 23900 132000 (1973) 9300 (1965) 37200 13200 16500 22900 24200 31400 43900 48800 63500 83100
2026-02-04 11:00 6.61 23900 132000 (1973) 9300 (1965) 37200 13200 16500 22900 24200 31400 43900 48800 63500 83100
2026-02-04 10:00 6.60 23900 132000 (1973) 9300 (1965) 37200 13200 16500 22900 24200 31400 43900 48800 63500 83100
2026-02-04 09:00 6.59 23800 132000 (1973) 9300 (1965) 37200 13200 16500 22900 24200 31400 43900 48800 63500 83100
2026-02-04 08:00 6.59 23800 132000 (1973) 9300 (1965) 37200 13200 16500 22900 24200 31400 43900 48800 63500 83100
2026-02-04 07:00 6.58 23800 132000 (1973) 9300 (1965) 37200 13200 16500 22900 24200 31400 43900 48800 63500 83100
2026-02-04 06:00 6.58 23800 132000 (1973) 9300 (1965) 37200 13200 16500 22900 24200 31400 43900 48800 63500 83100
2026-02-04 05:00 6.57 23800 132000 (1973) 9300 (1965) 37200 13200 16500 22900 24200 31400 43900 48800 63500 83100
2026-02-04 04:00 6.56 23700 132000 (1973) 9300 (1965) 37200 13200 16500 22900 24200 31400 43900 48800 63500 83100
2026-02-04 03:00 6.56 23700 132000 (1973) 9300 (1965) 37200 13200 16500 22900 24200 31400 43900 48800 63500 83100
2026-02-04 02:00 6.56 23700 132000 (1973) 9300 (1965) 37200 13200 16500 22900 24200 31400 43900 48800 63500 83100
2026-02-04 01:00 6.55 23700 132000 (1973) 9300 (1965) 37200 13200 16500 22900 24200 31400 43900 48800 63500 83100
2026-02-04 00:00 6.55 23700 132000 (1973) 9300 (1965) 37200 13200 16500 22900 24200 31400 43900 48800 63500 83100
2026-02-03 23:00 6.54 23600 132000 (1973) 9300 (1965) 37200 13200 16500 22900 24200 31400 43900 48800 63500 83100
2026-02-03 22:00 6.53 23600 159000 (1973) 8880 (1965) 37600 12800 17800 23400 24700 31300 44200 48500 65700 82600
2026-02-03 21:00 6.53 23600 159000 (1973) 8880 (1965) 37600 12800 17800 23400 24700 31300 44200 48500 65700 82600
2026-02-03 20:00 6.53 23600 159000 (1973) 8880 (1965) 37600 12800 17800 23400 24700 31300 44200 48500 65700 82600
2026-02-03 19:00 6.52 23600 159000 (1973) 8880 (1965) 37600 12800 17800 23400 24700 31300 44200 48500 65700 82600
2026-02-03 18:00 6.52 23600 159000 (1973) 8880 (1965) 37600 12800 17800 23400 24700 31300 44200 48500 65700 82600
2026-02-03 17:00 6.51 23500 159000 (1973) 8880 (1965) 37600 12800 17800 23400 24700 31300 44200 48500 65700 82600
2026-02-03 16:00 6.51 23500 159000 (1973) 8880 (1965) 37600 12800 17800 23400 24700 31300 44200 48500 65700 82600
2026-02-03 15:00 6.51 23500 159000 (1973) 8880 (1965) 37600 12800 17800 23400 24700 31300 44200 48500 65700 82600
2026-02-03 14:00 6.51 23500 159000 (1973) 8880 (1965) 37600 12800 17800 23400 24700 31300 44200 48500 65700 82600
2026-02-03 13:00 6.51 23500 159000 (1973) 8880 (1965) 37600 12800 17800 23400 24700 31300 44200 48500 65700 82600
2026-02-03 12:00 6.51 23500 159000 (1973) 8880 (1965) 37600 12800 17800 23400 24700 31300 44200 48500 65700 82600
2026-02-03 11:00 6.49 23500 159000 (1973) 8880 (1965) 37600 12800 17800 23400 24700 31300 44200 48500 65700 82600
2026-02-03 10:00 6.49 23500 159000 (1973) 8880 (1965) 37600 12800 17800 23400 24700 31300 44200 48500 65700 82600
2026-02-03 09:00 6.47 23400 159000 (1973) 8880 (1965) 37600 12800 17800 23400 24700 31300 44200 48500 65700 82600
2026-02-03 08:00 6.49 23500 159000 (1973) 8880 (1965) 37600 12800 17800 23400 24700 31300 44200 48500 65700 82600
2026-02-03 07:00 6.48 23400 159000 (1973) 8880 (1965) 37600 12800 17800 23400 24700 31300 44200 48500 65700 82600
2026-02-03 06:00 6.48 23400 159000 (1973) 8880 (1965) 37600 12800 17800 23400 24700 31300 44200 48500 65700 82600
2026-02-03 05:00 6.48 23400 159000 (1973) 8880 (1965) 37600 12800 17800 23400 24700 31300 44200 48500 65700 82600
2026-02-03 04:00 6.48 23400 159000 (1973) 8880 (1965) 37600 12800 17800 23400 24700 31300 44200 48500 65700 82600
2026-02-03 03:00 6.47 23400 159000 (1973) 8880 (1965) 37600 12800 17800 23400 24700 31300 44200 48500 65700 82600
2026-02-03 02:00 6.46 23400 159000 (1973) 8880 (1965) 37600 12800 17800 23400 24700 31300 44200 48500 65700 82600
2026-02-03 01:00 6.45 23300 159000 (1973) 8880 (1965) 37600 12800 17800 23400 24700 31300 44200 48500 65700 82600
2026-02-03 00:00 6.45 23300 159000 (1973) 8880 (1965) 37600 12800 17800 23400 24700 31300 44200 48500 65700 82600
2026-02-02 23:00 6.45 23300 159000 (1973) 8880 (1965) 37600 12800 17800 23400 24700 31300 44200 48500 65700 82600

A total of 2194 rows are displayed for years 1958 through 2025.